<?xml version="1.0" encoding="UTF-8" standalone="no" ?>
<gpx xmlns="http://www.topografix.com/GPX/1/1" xmlns:xsi="http://www.w3.org/2001/XMLSchema-instance" xsi:schemaLocation="http://www.topografix.com/GPX/1/1 http://www.topografix.com/GPX/1/1/gpx.xsd" version="1.1" creator="VisuGPX - https://www.visugpx.com">
  <metadata>
    <name>projet 500</name>
    <desc><![CDATA[projet 500: Permettre le téléchargement de la trace]]></desc>
  </metadata>
  <trk>
    <name><![CDATA[Randonnée du 17/12/2018 à 09:43]]></name>
    <trkseg>
      <trkpt lat="48.70239" lon="1.89214">
        <ele>136</ele>
        <time>2018-12-17T09:43:57+01:00</time>
      </trkpt>
      <trkpt lat="48.70239" lon="1.89215">
        <ele>138</ele>
        <time>2018-12-17T09:43:57+01:00</time>
      </trkpt>
      <trkpt lat="48.70237" lon="1.89239">
        <ele>137</ele>
        <time>2018-12-17T09:43:57+01:00</time>
      </trkpt>
      <trkpt lat="48.70236" lon="1.89261">
        <ele>136</ele>
        <time>2018-12-17T09:43:57+01:00</time>
      </trkpt>
      <trkpt lat="48.7024" lon="1.89268">
        <ele>135</ele>
        <time>2018-12-17T09:43:57+01:00</time>
      </trkpt>
      <trkpt lat="48.70252" lon="1.8929">
        <ele>133</ele>
        <time>2018-12-17T09:43:57+01:00</time>
      </trkpt>
      <trkpt lat="48.70263" lon="1.89308">
        <ele>131</ele>
        <time>2018-12-17T09:43:57+01:00</time>
      </trkpt>
      <trkpt lat="48.70274" lon="1.89322">
        <ele>129</ele>
        <time>2018-12-17T09:43:57+01:00</time>
      </trkpt>
      <trkpt lat="48.70283" lon="1.89333">
        <ele>128</ele>
        <time>2018-12-17T09:43:57+01:00</time>
      </trkpt>
      <trkpt lat="48.70284" lon="1.89336">
        <ele>127</ele>
        <time>2018-12-17T09:43:57+01:00</time>
      </trkpt>
      <trkpt lat="48.70292" lon="1.89358">
        <ele>126</ele>
        <time>2018-12-17T09:43:57+01:00</time>
      </trkpt>
      <trkpt lat="48.70292" lon="1.89371">
        <ele>126</ele>
        <time>2018-12-17T09:43:57+01:00</time>
      </trkpt>
      <trkpt lat="48.70295" lon="1.89397">
        <ele>126</ele>
        <time>2018-12-17T09:43:57+01:00</time>
      </trkpt>
      <trkpt lat="48.70298" lon="1.89421">
        <ele>124</ele>
        <time>2018-12-17T09:43:57+01:00</time>
      </trkpt>
      <trkpt lat="48.70306" lon="1.89441">
        <ele>125</ele>
        <time>2018-12-17T09:43:57+01:00</time>
      </trkpt>
      <trkpt lat="48.70319" lon="1.8946">
        <ele>125</ele>
        <time>2018-12-17T09:43:57+01:00</time>
      </trkpt>
      <trkpt lat="48.70322" lon="1.89464">
        <ele>125</ele>
        <time>2018-12-17T09:43:57+01:00</time>
      </trkpt>
      <trkpt lat="48.70334" lon="1.89485">
        <ele>127</ele>
        <time>2018-12-17T09:43:57+01:00</time>
      </trkpt>
      <trkpt lat="48.70337" lon="1.89492">
        <ele>125</ele>
        <time>2018-12-17T09:43:57+01:00</time>
      </trkpt>
      <trkpt lat="48.70337" lon="1.89508">
        <ele>124</ele>
        <time>2018-12-17T09:43:57+01:00</time>
      </trkpt>
      <trkpt lat="48.70331" lon="1.89525">
        <ele>121</ele>
        <time>2018-12-17T09:43:57+01:00</time>
      </trkpt>
      <trkpt lat="48.70326" lon="1.89539">
        <ele>120</ele>
        <time>2018-12-17T09:43:57+01:00</time>
      </trkpt>
      <trkpt lat="48.70318" lon="1.8955">
        <ele>120</ele>
        <time>2018-12-17T09:43:57+01:00</time>
      </trkpt>
      <trkpt lat="48.70316" lon="1.89554">
        <ele>121</ele>
        <time>2018-12-17T09:43:57+01:00</time>
      </trkpt>
      <trkpt lat="48.70303" lon="1.89565">
        <ele>121</ele>
        <time>2018-12-17T09:43:57+01:00</time>
      </trkpt>
      <trkpt lat="48.70293" lon="1.8957">
        <ele>122</ele>
        <time>2018-12-17T09:43:57+01:00</time>
      </trkpt>
      <trkpt lat="48.70277" lon="1.8958">
        <ele>122</ele>
        <time>2018-12-17T09:43:57+01:00</time>
      </trkpt>
      <trkpt lat="48.70268" lon="1.89593">
        <ele>123</ele>
        <time>2018-12-17T09:43:57+01:00</time>
      </trkpt>
      <trkpt lat="48.70259" lon="1.89607">
        <ele>124</ele>
        <time>2018-12-17T09:43:57+01:00</time>
      </trkpt>
      <trkpt lat="48.70251" lon="1.89621">
        <ele>123</ele>
        <time>2018-12-17T09:43:57+01:00</time>
      </trkpt>
      <trkpt lat="48.7024" lon="1.89638">
        <ele>121</ele>
        <time>2018-12-17T09:43:57+01:00</time>
      </trkpt>
      <trkpt lat="48.7023" lon="1.89653">
        <ele>118</ele>
        <time>2018-12-17T09:43:57+01:00</time>
      </trkpt>
      <trkpt lat="48.70219" lon="1.8967">
        <ele>119</ele>
        <time>2018-12-17T09:43:57+01:00</time>
      </trkpt>
      <trkpt lat="48.70208" lon="1.89686">
        <ele>117</ele>
        <time>2018-12-17T09:43:57+01:00</time>
      </trkpt>
      <trkpt lat="48.70198" lon="1.89697">
        <ele>116</ele>
        <time>2018-12-17T09:43:57+01:00</time>
      </trkpt>
      <trkpt lat="48.70197" lon="1.89698">
        <ele>116</ele>
        <time>2018-12-17T09:43:57+01:00</time>
      </trkpt>
      <trkpt lat="48.70184" lon="1.89714">
        <ele>113</ele>
        <time>2018-12-17T09:43:57+01:00</time>
      </trkpt>
      <trkpt lat="48.70178" lon="1.89733">
        <ele>110</ele>
        <time>2018-12-17T09:43:57+01:00</time>
      </trkpt>
      <trkpt lat="48.70177" lon="1.89751">
        <ele>110</ele>
        <time>2018-12-17T09:43:57+01:00</time>
      </trkpt>
      <trkpt lat="48.70173" lon="1.89774">
        <ele>118</ele>
        <time>2018-12-17T09:43:57+01:00</time>
      </trkpt>
      <trkpt lat="48.70173" lon="1.89787">
        <ele>121</ele>
        <time>2018-12-17T09:43:57+01:00</time>
      </trkpt>
      <trkpt lat="48.70173" lon="1.89809">
        <ele>123</ele>
        <time>2018-12-17T09:43:57+01:00</time>
      </trkpt>
      <trkpt lat="48.70176" lon="1.89826">
        <ele>132</ele>
        <time>2018-12-17T09:43:57+01:00</time>
      </trkpt>
      <trkpt lat="48.70181" lon="1.8984">
        <ele>141</ele>
        <time>2018-12-17T09:43:57+01:00</time>
      </trkpt>
      <trkpt lat="48.70184" lon="1.89844">
        <ele>142</ele>
        <time>2018-12-17T09:43:57+01:00</time>
      </trkpt>
      <trkpt lat="48.7019" lon="1.89851">
        <ele>145</ele>
        <time>2018-12-17T09:43:57+01:00</time>
      </trkpt>
      <trkpt lat="48.70198" lon="1.89864">
        <ele>147</ele>
        <time>2018-12-17T09:43:57+01:00</time>
      </trkpt>
      <trkpt lat="48.70201" lon="1.89876">
        <ele>148</ele>
        <time>2018-12-17T09:43:57+01:00</time>
      </trkpt>
      <trkpt lat="48.70204" lon="1.89889">
        <ele>150</ele>
        <time>2018-12-17T09:43:57+01:00</time>
      </trkpt>
      <trkpt lat="48.70208" lon="1.89902">
        <ele>152</ele>
        <time>2018-12-17T09:43:57+01:00</time>
      </trkpt>
      <trkpt lat="48.70208" lon="1.89904">
        <ele>152</ele>
        <time>2018-12-17T09:43:57+01:00</time>
      </trkpt>
      <trkpt lat="48.7021" lon="1.89912">
        <ele>154</ele>
        <time>2018-12-17T09:43:57+01:00</time>
      </trkpt>
      <trkpt lat="48.70216" lon="1.89927">
        <ele>156</ele>
        <time>2018-12-17T09:43:57+01:00</time>
      </trkpt>
      <trkpt lat="48.70218" lon="1.89937">
        <ele>157</ele>
        <time>2018-12-17T09:43:57+01:00</time>
      </trkpt>
      <trkpt lat="48.70219" lon="1.89943">
        <ele>158</ele>
        <time>2018-12-17T09:43:57+01:00</time>
      </trkpt>
      <trkpt lat="48.70226" lon="1.89959">
        <ele>162</ele>
        <time>2018-12-17T09:43:57+01:00</time>
      </trkpt>
      <trkpt lat="48.70229" lon="1.89972">
        <ele>163</ele>
        <time>2018-12-17T09:43:57+01:00</time>
      </trkpt>
      <trkpt lat="48.70234" lon="1.89979">
        <ele>164</ele>
        <time>2018-12-17T09:43:57+01:00</time>
      </trkpt>
      <trkpt lat="48.70239" lon="1.89986">
        <ele>166</ele>
        <time>2018-12-17T09:43:57+01:00</time>
      </trkpt>
      <trkpt lat="48.70244" lon="1.89994">
        <ele>169</ele>
        <time>2018-12-17T09:43:57+01:00</time>
      </trkpt>
      <trkpt lat="48.70247" lon="1.9">
        <ele>169</ele>
        <time>2018-12-17T09:43:57+01:00</time>
      </trkpt>
      <trkpt lat="48.7025" lon="1.9001">
        <ele>169</ele>
        <time>2018-12-17T09:43:57+01:00</time>
      </trkpt>
      <trkpt lat="48.70259" lon="1.90017">
        <ele>173</ele>
        <time>2018-12-17T09:43:57+01:00</time>
      </trkpt>
      <trkpt lat="48.70261" lon="1.90022">
        <ele>172</ele>
        <time>2018-12-17T09:43:57+01:00</time>
      </trkpt>
      <trkpt lat="48.70266" lon="1.90039">
        <ele>171</ele>
        <time>2018-12-17T09:43:57+01:00</time>
      </trkpt>
      <trkpt lat="48.70274" lon="1.90053">
        <ele>171</ele>
        <time>2018-12-17T09:43:57+01:00</time>
      </trkpt>
      <trkpt lat="48.70283" lon="1.90068">
        <ele>174</ele>
        <time>2018-12-17T09:43:57+01:00</time>
      </trkpt>
      <trkpt lat="48.70287" lon="1.90078">
        <ele>174</ele>
        <time>2018-12-17T09:43:57+01:00</time>
      </trkpt>
      <trkpt lat="48.70294" lon="1.90095">
        <ele>172</ele>
        <time>2018-12-17T09:43:57+01:00</time>
      </trkpt>
      <trkpt lat="48.70302" lon="1.90114">
        <ele>175</ele>
        <time>2018-12-17T09:43:57+01:00</time>
      </trkpt>
      <trkpt lat="48.70308" lon="1.90131">
        <ele>175</ele>
        <time>2018-12-17T09:43:57+01:00</time>
      </trkpt>
      <trkpt lat="48.7031" lon="1.90147">
        <ele>173</ele>
        <time>2018-12-17T09:43:57+01:00</time>
      </trkpt>
      <trkpt lat="48.70311" lon="1.90168">
        <ele>170</ele>
        <time>2018-12-17T09:43:57+01:00</time>
      </trkpt>
      <trkpt lat="48.70307" lon="1.90183">
        <ele>167</ele>
        <time>2018-12-17T09:43:57+01:00</time>
      </trkpt>
      <trkpt lat="48.70304" lon="1.90199">
        <ele>163</ele>
        <time>2018-12-17T09:43:57+01:00</time>
      </trkpt>
      <trkpt lat="48.70299" lon="1.90222">
        <ele>163</ele>
        <time>2018-12-17T09:43:57+01:00</time>
      </trkpt>
      <trkpt lat="48.70296" lon="1.90232">
        <ele>162</ele>
        <time>2018-12-17T09:43:57+01:00</time>
      </trkpt>
      <trkpt lat="48.70292" lon="1.90247">
        <ele>161</ele>
        <time>2018-12-17T09:43:57+01:00</time>
      </trkpt>
      <trkpt lat="48.70292" lon="1.90257">
        <ele>160</ele>
        <time>2018-12-17T09:43:57+01:00</time>
      </trkpt>
      <trkpt lat="48.70293" lon="1.90264">
        <ele>164</ele>
        <time>2018-12-17T09:43:57+01:00</time>
      </trkpt>
      <trkpt lat="48.70295" lon="1.90271">
        <ele>169</ele>
        <time>2018-12-17T09:43:57+01:00</time>
      </trkpt>
      <trkpt lat="48.70294" lon="1.90281">
        <ele>169</ele>
        <time>2018-12-17T09:43:57+01:00</time>
      </trkpt>
      <trkpt lat="48.70289" lon="1.90294">
        <ele>165</ele>
        <time>2018-12-17T09:43:57+01:00</time>
      </trkpt>
      <trkpt lat="48.70285" lon="1.90306">
        <ele>168</ele>
        <time>2018-12-17T09:43:57+01:00</time>
      </trkpt>
      <trkpt lat="48.70285" lon="1.9031">
        <ele>168</ele>
        <time>2018-12-17T09:43:57+01:00</time>
      </trkpt>
      <trkpt lat="48.70282" lon="1.90326">
        <ele>163</ele>
        <time>2018-12-17T09:43:57+01:00</time>
      </trkpt>
      <trkpt lat="48.70278" lon="1.90339">
        <ele>160</ele>
        <time>2018-12-17T09:43:57+01:00</time>
      </trkpt>
      <trkpt lat="48.70278" lon="1.90342">
        <ele>159</ele>
        <time>2018-12-17T09:43:57+01:00</time>
      </trkpt>
      <trkpt lat="48.70273" lon="1.90359">
        <ele>154</ele>
        <time>2018-12-17T09:43:57+01:00</time>
      </trkpt>
      <trkpt lat="48.70272" lon="1.90361">
        <ele>154</ele>
        <time>2018-12-17T09:43:57+01:00</time>
      </trkpt>
      <trkpt lat="48.70269" lon="1.90367">
        <ele>152</ele>
        <time>2018-12-17T09:43:57+01:00</time>
      </trkpt>
      <trkpt lat="48.70267" lon="1.90383">
        <ele>146</ele>
        <time>2018-12-17T09:43:57+01:00</time>
      </trkpt>
      <trkpt lat="48.70261" lon="1.90399">
        <ele>142</ele>
        <time>2018-12-17T09:43:57+01:00</time>
      </trkpt>
      <trkpt lat="48.70256" lon="1.90419">
        <ele>146</ele>
        <time>2018-12-17T09:43:57+01:00</time>
      </trkpt>
      <trkpt lat="48.70254" lon="1.9043">
        <ele>146</ele>
        <time>2018-12-17T09:43:57+01:00</time>
      </trkpt>
      <trkpt lat="48.70248" lon="1.90445">
        <ele>146</ele>
        <time>2018-12-17T09:43:57+01:00</time>
      </trkpt>
      <trkpt lat="48.70246" lon="1.90463">
        <ele>148</ele>
        <time>2018-12-17T09:43:57+01:00</time>
      </trkpt>
      <trkpt lat="48.70246" lon="1.90479">
        <ele>149</ele>
        <time>2018-12-17T09:43:57+01:00</time>
      </trkpt>
      <trkpt lat="48.70246" lon="1.90484">
        <ele>150</ele>
        <time>2018-12-17T09:43:57+01:00</time>
      </trkpt>
      <trkpt lat="48.70246" lon="1.90505">
        <ele>156</ele>
        <time>2018-12-17T09:43:57+01:00</time>
      </trkpt>
      <trkpt lat="48.70244" lon="1.90523">
        <ele>160</ele>
        <time>2018-12-17T09:43:57+01:00</time>
      </trkpt>
      <trkpt lat="48.70244" lon="1.90529">
        <ele>161</ele>
        <time>2018-12-17T09:43:57+01:00</time>
      </trkpt>
      <trkpt lat="48.70242" lon="1.90557">
        <ele>168</ele>
        <time>2018-12-17T09:43:57+01:00</time>
      </trkpt>
      <trkpt lat="48.70244" lon="1.90571">
        <ele>170</ele>
        <time>2018-12-17T09:43:57+01:00</time>
      </trkpt>
      <trkpt lat="48.70242" lon="1.9058">
        <ele>167</ele>
        <time>2018-12-17T09:43:57+01:00</time>
      </trkpt>
      <trkpt lat="48.70243" lon="1.90598">
        <ele>166</ele>
        <time>2018-12-17T09:43:57+01:00</time>
      </trkpt>
      <trkpt lat="48.70241" lon="1.90613">
        <ele>166</ele>
        <time>2018-12-17T09:43:57+01:00</time>
      </trkpt>
      <trkpt lat="48.70238" lon="1.90632">
        <ele>162</ele>
        <time>2018-12-17T09:43:57+01:00</time>
      </trkpt>
      <trkpt lat="48.70236" lon="1.9065">
        <ele>160</ele>
        <time>2018-12-17T09:43:57+01:00</time>
      </trkpt>
      <trkpt lat="48.70236" lon="1.90668">
        <ele>158</ele>
        <time>2018-12-17T09:43:57+01:00</time>
      </trkpt>
      <trkpt lat="48.70236" lon="1.90682">
        <ele>153</ele>
        <time>2018-12-17T09:43:57+01:00</time>
      </trkpt>
      <trkpt lat="48.70233" lon="1.90697">
        <ele>154</ele>
        <time>2018-12-17T09:43:57+01:00</time>
      </trkpt>
      <trkpt lat="48.70231" lon="1.90709">
        <ele>154</ele>
        <time>2018-12-17T09:43:57+01:00</time>
      </trkpt>
      <trkpt lat="48.70225" lon="1.9073">
        <ele>155</ele>
        <time>2018-12-17T09:43:57+01:00</time>
      </trkpt>
      <trkpt lat="48.70221" lon="1.90745">
        <ele>157</ele>
        <time>2018-12-17T09:43:57+01:00</time>
      </trkpt>
      <trkpt lat="48.70215" lon="1.9077">
        <ele>157</ele>
        <time>2018-12-17T09:43:57+01:00</time>
      </trkpt>
      <trkpt lat="48.70209" lon="1.90789">
        <ele>159</ele>
        <time>2018-12-17T09:43:57+01:00</time>
      </trkpt>
      <trkpt lat="48.70208" lon="1.9081">
        <ele>163</ele>
        <time>2018-12-17T09:43:57+01:00</time>
      </trkpt>
      <trkpt lat="48.70204" lon="1.90826">
        <ele>163</ele>
        <time>2018-12-17T09:43:57+01:00</time>
      </trkpt>
      <trkpt lat="48.702" lon="1.9084">
        <ele>164</ele>
        <time>2018-12-17T09:43:57+01:00</time>
      </trkpt>
      <trkpt lat="48.70191" lon="1.90859">
        <ele>164</ele>
        <time>2018-12-17T09:43:57+01:00</time>
      </trkpt>
      <trkpt lat="48.70184" lon="1.90876">
        <ele>166</ele>
        <time>2018-12-17T09:43:57+01:00</time>
      </trkpt>
      <trkpt lat="48.70178" lon="1.90898">
        <ele>166</ele>
        <time>2018-12-17T09:43:57+01:00</time>
      </trkpt>
      <trkpt lat="48.70174" lon="1.90917">
        <ele>166</ele>
        <time>2018-12-17T09:43:57+01:00</time>
      </trkpt>
      <trkpt lat="48.70166" lon="1.90944">
        <ele>165</ele>
        <time>2018-12-17T09:43:57+01:00</time>
      </trkpt>
      <trkpt lat="48.70158" lon="1.90969">
        <ele>164</ele>
        <time>2018-12-17T09:43:57+01:00</time>
      </trkpt>
      <trkpt lat="48.70153" lon="1.90993">
        <ele>164</ele>
        <time>2018-12-17T09:43:57+01:00</time>
      </trkpt>
      <trkpt lat="48.70149" lon="1.91014">
        <ele>165</ele>
        <time>2018-12-17T09:43:57+01:00</time>
      </trkpt>
      <trkpt lat="48.70141" lon="1.9104">
        <ele>165</ele>
        <time>2018-12-17T09:43:57+01:00</time>
      </trkpt>
      <trkpt lat="48.7014" lon="1.91044">
        <ele>167</ele>
        <time>2018-12-17T09:43:57+01:00</time>
      </trkpt>
      <trkpt lat="48.70136" lon="1.91052">
        <ele>167</ele>
        <time>2018-12-17T09:43:57+01:00</time>
      </trkpt>
      <trkpt lat="48.70135" lon="1.91053">
        <ele>166</ele>
        <time>2018-12-17T09:43:57+01:00</time>
      </trkpt>
      <trkpt lat="48.70132" lon="1.91069">
        <ele>164</ele>
        <time>2018-12-17T09:43:57+01:00</time>
      </trkpt>
      <trkpt lat="48.70131" lon="1.91075">
        <ele>165</ele>
        <time>2018-12-17T09:43:57+01:00</time>
      </trkpt>
      <trkpt lat="48.70127" lon="1.91098">
        <ele>162</ele>
        <time>2018-12-17T09:43:57+01:00</time>
      </trkpt>
      <trkpt lat="48.70122" lon="1.91116">
        <ele>157</ele>
        <time>2018-12-17T09:43:57+01:00</time>
      </trkpt>
      <trkpt lat="48.70121" lon="1.91123">
        <ele>155</ele>
        <time>2018-12-17T09:43:57+01:00</time>
      </trkpt>
      <trkpt lat="48.70121" lon="1.9113">
        <ele>154</ele>
        <time>2018-12-17T09:43:57+01:00</time>
      </trkpt>
      <trkpt lat="48.70115" lon="1.91157">
        <ele>146</ele>
        <time>2018-12-17T09:43:57+01:00</time>
      </trkpt>
      <trkpt lat="48.70118" lon="1.91178">
        <ele>148</ele>
        <time>2018-12-17T09:43:57+01:00</time>
      </trkpt>
      <trkpt lat="48.70108" lon="1.91197">
        <ele>144</ele>
        <time>2018-12-17T09:43:57+01:00</time>
      </trkpt>
      <trkpt lat="48.70105" lon="1.91203">
        <ele>141</ele>
        <time>2018-12-17T09:43:57+01:00</time>
      </trkpt>
      <trkpt lat="48.70095" lon="1.91206">
        <ele>140</ele>
        <time>2018-12-17T09:43:57+01:00</time>
      </trkpt>
      <trkpt lat="48.70079" lon="1.91194">
        <ele>140</ele>
        <time>2018-12-17T09:43:57+01:00</time>
      </trkpt>
      <trkpt lat="48.70068" lon="1.91185">
        <ele>142</ele>
        <time>2018-12-17T09:43:57+01:00</time>
      </trkpt>
      <trkpt lat="48.70057" lon="1.91179">
        <ele>140</ele>
        <time>2018-12-17T09:43:57+01:00</time>
      </trkpt>
      <trkpt lat="48.70041" lon="1.91171">
        <ele>141</ele>
        <time>2018-12-17T09:43:57+01:00</time>
      </trkpt>
      <trkpt lat="48.7003" lon="1.91166">
        <ele>144</ele>
        <time>2018-12-17T09:43:57+01:00</time>
      </trkpt>
      <trkpt lat="48.70023" lon="1.91155">
        <ele>148</ele>
        <time>2018-12-17T09:43:57+01:00</time>
      </trkpt>
      <trkpt lat="48.70017" lon="1.91143">
        <ele>149</ele>
        <time>2018-12-17T09:43:57+01:00</time>
      </trkpt>
      <trkpt lat="48.70014" lon="1.91139">
        <ele>151</ele>
        <time>2018-12-17T09:43:57+01:00</time>
      </trkpt>
      <trkpt lat="48.70007" lon="1.91128">
        <ele>152</ele>
        <time>2018-12-17T09:43:57+01:00</time>
      </trkpt>
      <trkpt lat="48.70001" lon="1.91116">
        <ele>153</ele>
        <time>2018-12-17T09:43:57+01:00</time>
      </trkpt>
      <trkpt lat="48.69999" lon="1.91113">
        <ele>153</ele>
        <time>2018-12-17T09:43:57+01:00</time>
      </trkpt>
      <trkpt lat="48.69992" lon="1.91096">
        <ele>152</ele>
        <time>2018-12-17T09:43:57+01:00</time>
      </trkpt>
      <trkpt lat="48.69991" lon="1.91081">
        <ele>151</ele>
        <time>2018-12-17T09:43:57+01:00</time>
      </trkpt>
      <trkpt lat="48.69988" lon="1.91067">
        <ele>149</ele>
        <time>2018-12-17T09:43:57+01:00</time>
      </trkpt>
      <trkpt lat="48.69985" lon="1.9106">
        <ele>148</ele>
        <time>2018-12-17T09:43:57+01:00</time>
      </trkpt>
      <trkpt lat="48.69972" lon="1.91046">
        <ele>144</ele>
        <time>2018-12-17T09:43:57+01:00</time>
      </trkpt>
      <trkpt lat="48.69962" lon="1.91035">
        <ele>141</ele>
        <time>2018-12-17T09:43:57+01:00</time>
      </trkpt>
      <trkpt lat="48.69952" lon="1.91015">
        <ele>139</ele>
        <time>2018-12-17T09:43:57+01:00</time>
      </trkpt>
      <trkpt lat="48.69942" lon="1.9102">
        <ele>133</ele>
        <time>2018-12-17T09:43:57+01:00</time>
      </trkpt>
      <trkpt lat="48.6994" lon="1.91032">
        <ele>129</ele>
        <time>2018-12-17T09:43:57+01:00</time>
      </trkpt>
      <trkpt lat="48.69935" lon="1.91066">
        <ele>123</ele>
        <time>2018-12-17T09:43:57+01:00</time>
      </trkpt>
      <trkpt lat="48.69933" lon="1.91089">
        <ele>122</ele>
        <time>2018-12-17T09:43:57+01:00</time>
      </trkpt>
      <trkpt lat="48.69931" lon="1.91113">
        <ele>122</ele>
        <time>2018-12-17T09:43:57+01:00</time>
      </trkpt>
      <trkpt lat="48.69936" lon="1.91134">
        <ele>116</ele>
        <time>2018-12-17T09:43:57+01:00</time>
      </trkpt>
      <trkpt lat="48.69938" lon="1.91154">
        <ele>113</ele>
        <time>2018-12-17T09:43:57+01:00</time>
      </trkpt>
      <trkpt lat="48.69943" lon="1.9117">
        <ele>117</ele>
        <time>2018-12-17T09:43:57+01:00</time>
      </trkpt>
      <trkpt lat="48.69949" lon="1.9118">
        <ele>121</ele>
        <time>2018-12-17T09:43:57+01:00</time>
      </trkpt>
      <trkpt lat="48.69958" lon="1.91189">
        <ele>128</ele>
        <time>2018-12-17T09:43:57+01:00</time>
      </trkpt>
      <trkpt lat="48.69972" lon="1.91196">
        <ele>137</ele>
        <time>2018-12-17T09:43:57+01:00</time>
      </trkpt>
      <trkpt lat="48.69976" lon="1.912">
        <ele>146</ele>
        <time>2018-12-17T09:43:57+01:00</time>
      </trkpt>
      <trkpt lat="48.69982" lon="1.91207">
        <ele>147</ele>
        <time>2018-12-17T09:43:57+01:00</time>
      </trkpt>
      <trkpt lat="48.69981" lon="1.91213">
        <ele>143</ele>
        <time>2018-12-17T09:43:57+01:00</time>
      </trkpt>
      <trkpt lat="48.6998" lon="1.91218">
        <ele>144</ele>
        <time>2018-12-17T09:43:57+01:00</time>
      </trkpt>
      <trkpt lat="48.69983" lon="1.91225">
        <ele>142</ele>
        <time>2018-12-17T09:43:57+01:00</time>
      </trkpt>
      <trkpt lat="48.69984" lon="1.91233">
        <ele>140</ele>
        <time>2018-12-17T09:43:57+01:00</time>
      </trkpt>
      <trkpt lat="48.69985" lon="1.91235">
        <ele>140</ele>
        <time>2018-12-17T09:43:57+01:00</time>
      </trkpt>
      <trkpt lat="48.69982" lon="1.91242">
        <ele>142</ele>
        <time>2018-12-17T09:43:57+01:00</time>
      </trkpt>
      <trkpt lat="48.69976" lon="1.91245">
        <ele>141</ele>
        <time>2018-12-17T09:43:57+01:00</time>
      </trkpt>
      <trkpt lat="48.69976" lon="1.91246">
        <ele>141</ele>
        <time>2018-12-17T09:43:57+01:00</time>
      </trkpt>
      <trkpt lat="48.69972" lon="1.91252">
        <ele>141</ele>
        <time>2018-12-17T09:43:57+01:00</time>
      </trkpt>
      <trkpt lat="48.69968" lon="1.91263">
        <ele>139</ele>
        <time>2018-12-17T09:43:57+01:00</time>
      </trkpt>
      <trkpt lat="48.69963" lon="1.91273">
        <ele>137</ele>
        <time>2018-12-17T09:43:57+01:00</time>
      </trkpt>
      <trkpt lat="48.69956" lon="1.91285">
        <ele>136</ele>
        <time>2018-12-17T09:43:57+01:00</time>
      </trkpt>
      <trkpt lat="48.69955" lon="1.91287">
        <ele>135</ele>
        <time>2018-12-17T09:43:57+01:00</time>
      </trkpt>
      <trkpt lat="48.69951" lon="1.91302">
        <ele>139</ele>
        <time>2018-12-17T09:43:57+01:00</time>
      </trkpt>
      <trkpt lat="48.69952" lon="1.91308">
        <ele>141</ele>
        <time>2018-12-17T09:43:57+01:00</time>
      </trkpt>
      <trkpt lat="48.69952" lon="1.9132">
        <ele>140</ele>
        <time>2018-12-17T09:43:57+01:00</time>
      </trkpt>
      <trkpt lat="48.69955" lon="1.91334">
        <ele>137</ele>
        <time>2018-12-17T09:43:57+01:00</time>
      </trkpt>
      <trkpt lat="48.69951" lon="1.91345">
        <ele>135</ele>
        <time>2018-12-17T09:43:57+01:00</time>
      </trkpt>
      <trkpt lat="48.69948" lon="1.91351">
        <ele>133</ele>
        <time>2018-12-17T09:43:57+01:00</time>
      </trkpt>
      <trkpt lat="48.69939" lon="1.91361">
        <ele>123</ele>
        <time>2018-12-17T09:43:57+01:00</time>
      </trkpt>
      <trkpt lat="48.69933" lon="1.91369">
        <ele>125</ele>
        <time>2018-12-17T09:43:57+01:00</time>
      </trkpt>
      <trkpt lat="48.69928" lon="1.91371">
        <ele>128</ele>
        <time>2018-12-17T09:43:57+01:00</time>
      </trkpt>
      <trkpt lat="48.69922" lon="1.91367">
        <ele>131</ele>
        <time>2018-12-17T09:43:57+01:00</time>
      </trkpt>
      <trkpt lat="48.6992" lon="1.91366">
        <ele>131</ele>
        <time>2018-12-17T09:43:57+01:00</time>
      </trkpt>
      <trkpt lat="48.69918" lon="1.91364">
        <ele>130</ele>
        <time>2018-12-17T09:43:57+01:00</time>
      </trkpt>
      <trkpt lat="48.69913" lon="1.9136">
        <ele>132</ele>
        <time>2018-12-17T09:43:57+01:00</time>
      </trkpt>
      <trkpt lat="48.69909" lon="1.9136">
        <ele>134</ele>
        <time>2018-12-17T09:43:57+01:00</time>
      </trkpt>
      <trkpt lat="48.69906" lon="1.91364">
        <ele>134</ele>
        <time>2018-12-17T09:43:57+01:00</time>
      </trkpt>
      <trkpt lat="48.69906" lon="1.91377">
        <ele>134</ele>
        <time>2018-12-17T09:43:57+01:00</time>
      </trkpt>
      <trkpt lat="48.69907" lon="1.9139">
        <ele>137</ele>
        <time>2018-12-17T09:43:57+01:00</time>
      </trkpt>
      <trkpt lat="48.69909" lon="1.91402">
        <ele>142</ele>
        <time>2018-12-17T09:43:57+01:00</time>
      </trkpt>
      <trkpt lat="48.69909" lon="1.91411">
        <ele>145</ele>
        <time>2018-12-17T09:43:57+01:00</time>
      </trkpt>
      <trkpt lat="48.69913" lon="1.91423">
        <ele>146</ele>
        <time>2018-12-17T09:43:57+01:00</time>
      </trkpt>
      <trkpt lat="48.69915" lon="1.91426">
        <ele>147</ele>
        <time>2018-12-17T09:43:57+01:00</time>
      </trkpt>
      <trkpt lat="48.6992" lon="1.91431">
        <ele>147</ele>
        <time>2018-12-17T09:43:57+01:00</time>
      </trkpt>
      <trkpt lat="48.69923" lon="1.91444">
        <ele>149</ele>
        <time>2018-12-17T09:43:57+01:00</time>
      </trkpt>
      <trkpt lat="48.69928" lon="1.91451">
        <ele>149</ele>
        <time>2018-12-17T09:43:57+01:00</time>
      </trkpt>
      <trkpt lat="48.69936" lon="1.9146">
        <ele>152</ele>
        <time>2018-12-17T09:43:57+01:00</time>
      </trkpt>
      <trkpt lat="48.69938" lon="1.91463">
        <ele>152</ele>
        <time>2018-12-17T09:43:57+01:00</time>
      </trkpt>
      <trkpt lat="48.69944" lon="1.91466">
        <ele>151</ele>
        <time>2018-12-17T09:43:57+01:00</time>
      </trkpt>
      <trkpt lat="48.69956" lon="1.91471">
        <ele>152</ele>
        <time>2018-12-17T09:43:57+01:00</time>
      </trkpt>
      <trkpt lat="48.69962" lon="1.91477">
        <ele>156</ele>
        <time>2018-12-17T09:43:57+01:00</time>
      </trkpt>
      <trkpt lat="48.69968" lon="1.91478">
        <ele>160</ele>
        <time>2018-12-17T09:43:57+01:00</time>
      </trkpt>
      <trkpt lat="48.69976" lon="1.91484">
        <ele>164</ele>
        <time>2018-12-17T09:43:57+01:00</time>
      </trkpt>
      <trkpt lat="48.69978" lon="1.91485">
        <ele>164</ele>
        <time>2018-12-17T09:43:57+01:00</time>
      </trkpt>
      <trkpt lat="48.69982" lon="1.91487">
        <ele>167</ele>
        <time>2018-12-17T09:43:57+01:00</time>
      </trkpt>
      <trkpt lat="48.69984" lon="1.91492">
        <ele>167</ele>
        <time>2018-12-17T09:43:57+01:00</time>
      </trkpt>
      <trkpt lat="48.69984" lon="1.91495">
        <ele>167</ele>
        <time>2018-12-17T09:43:57+01:00</time>
      </trkpt>
      <trkpt lat="48.69983" lon="1.91509">
        <ele>165</ele>
        <time>2018-12-17T09:43:57+01:00</time>
      </trkpt>
      <trkpt lat="48.69983" lon="1.91513">
        <ele>165</ele>
        <time>2018-12-17T09:43:57+01:00</time>
      </trkpt>
      <trkpt lat="48.69984" lon="1.91533">
        <ele>164</ele>
        <time>2018-12-17T09:43:57+01:00</time>
      </trkpt>
      <trkpt lat="48.69982" lon="1.91549">
        <ele>168</ele>
        <time>2018-12-17T09:43:57+01:00</time>
      </trkpt>
      <trkpt lat="48.69979" lon="1.91564">
        <ele>166</ele>
        <time>2018-12-17T09:43:57+01:00</time>
      </trkpt>
      <trkpt lat="48.6997" lon="1.91569">
        <ele>165</ele>
        <time>2018-12-17T09:43:57+01:00</time>
      </trkpt>
      <trkpt lat="48.69963" lon="1.91576">
        <ele>170</ele>
        <time>2018-12-17T09:43:57+01:00</time>
      </trkpt>
      <trkpt lat="48.69959" lon="1.91585">
        <ele>163</ele>
        <time>2018-12-17T09:43:57+01:00</time>
      </trkpt>
      <trkpt lat="48.69952" lon="1.91593">
        <ele>152</ele>
        <time>2018-12-17T09:43:57+01:00</time>
      </trkpt>
      <trkpt lat="48.6995" lon="1.91596">
        <ele>148</ele>
        <time>2018-12-17T09:43:57+01:00</time>
      </trkpt>
      <trkpt lat="48.69947" lon="1.91599">
        <ele>145</ele>
        <time>2018-12-17T09:43:57+01:00</time>
      </trkpt>
      <trkpt lat="48.69941" lon="1.91608">
        <ele>137</ele>
        <time>2018-12-17T09:43:57+01:00</time>
      </trkpt>
      <trkpt lat="48.69938" lon="1.91613">
        <ele>135</ele>
        <time>2018-12-17T09:43:57+01:00</time>
      </trkpt>
      <trkpt lat="48.69929" lon="1.91621">
        <ele>131</ele>
        <time>2018-12-17T09:43:57+01:00</time>
      </trkpt>
      <trkpt lat="48.69924" lon="1.91635">
        <ele>133</ele>
        <time>2018-12-17T09:43:57+01:00</time>
      </trkpt>
      <trkpt lat="48.69917" lon="1.91646">
        <ele>137</ele>
        <time>2018-12-17T09:43:57+01:00</time>
      </trkpt>
      <trkpt lat="48.69916" lon="1.91652">
        <ele>140</ele>
        <time>2018-12-17T09:43:57+01:00</time>
      </trkpt>
      <trkpt lat="48.69914" lon="1.91671">
        <ele>149</ele>
        <time>2018-12-17T09:43:57+01:00</time>
      </trkpt>
      <trkpt lat="48.69913" lon="1.91679">
        <ele>153</ele>
        <time>2018-12-17T09:43:57+01:00</time>
      </trkpt>
      <trkpt lat="48.6991" lon="1.91687">
        <ele>155</ele>
        <time>2018-12-17T09:43:57+01:00</time>
      </trkpt>
      <trkpt lat="48.69911" lon="1.91703">
        <ele>158</ele>
        <time>2018-12-17T09:43:57+01:00</time>
      </trkpt>
      <trkpt lat="48.69915" lon="1.91717">
        <ele>160</ele>
        <time>2018-12-17T09:43:57+01:00</time>
      </trkpt>
      <trkpt lat="48.69918" lon="1.91737">
        <ele>162</ele>
        <time>2018-12-17T09:43:57+01:00</time>
      </trkpt>
      <trkpt lat="48.69919" lon="1.91748">
        <ele>163</ele>
        <time>2018-12-17T09:43:57+01:00</time>
      </trkpt>
      <trkpt lat="48.6991" lon="1.9176">
        <ele>163</ele>
        <time>2018-12-17T09:43:57+01:00</time>
      </trkpt>
      <trkpt lat="48.6989" lon="1.91768">
        <ele>157</ele>
        <time>2018-12-17T09:43:57+01:00</time>
      </trkpt>
      <trkpt lat="48.6988" lon="1.9177">
        <ele>153</ele>
        <time>2018-12-17T09:43:57+01:00</time>
      </trkpt>
      <trkpt lat="48.69864" lon="1.91765">
        <ele>150</ele>
        <time>2018-12-17T09:43:57+01:00</time>
      </trkpt>
      <trkpt lat="48.69863" lon="1.91753">
        <ele>152</ele>
        <time>2018-12-17T09:43:57+01:00</time>
      </trkpt>
      <trkpt lat="48.69868" lon="1.91743">
        <ele>151</ele>
        <time>2018-12-17T09:43:57+01:00</time>
      </trkpt>
      <trkpt lat="48.69876" lon="1.91729">
        <ele>150</ele>
        <time>2018-12-17T09:43:57+01:00</time>
      </trkpt>
      <trkpt lat="48.69884" lon="1.91709">
        <ele>147</ele>
        <time>2018-12-17T09:43:57+01:00</time>
      </trkpt>
      <trkpt lat="48.69888" lon="1.91689">
        <ele>144</ele>
        <time>2018-12-17T09:43:57+01:00</time>
      </trkpt>
      <trkpt lat="48.69891" lon="1.91683">
        <ele>142</ele>
        <time>2018-12-17T09:43:57+01:00</time>
      </trkpt>
      <trkpt lat="48.69894" lon="1.91669">
        <ele>139</ele>
        <time>2018-12-17T09:43:57+01:00</time>
      </trkpt>
      <trkpt lat="48.699" lon="1.91653">
        <ele>134</ele>
        <time>2018-12-17T09:43:57+01:00</time>
      </trkpt>
      <trkpt lat="48.699" lon="1.91643">
        <ele>133</ele>
        <time>2018-12-17T09:43:57+01:00</time>
      </trkpt>
      <trkpt lat="48.69896" lon="1.91615">
        <ele>128</ele>
        <time>2018-12-17T09:43:57+01:00</time>
      </trkpt>
      <trkpt lat="48.69892" lon="1.91591">
        <ele>124</ele>
        <time>2018-12-17T09:43:57+01:00</time>
      </trkpt>
      <trkpt lat="48.69882" lon="1.91569">
        <ele>124</ele>
        <time>2018-12-17T09:43:57+01:00</time>
      </trkpt>
      <trkpt lat="48.6988" lon="1.91563">
        <ele>123</ele>
        <time>2018-12-17T09:43:57+01:00</time>
      </trkpt>
      <trkpt lat="48.6987" lon="1.91553">
        <ele>122</ele>
        <time>2018-12-17T09:43:57+01:00</time>
      </trkpt>
      <trkpt lat="48.69855" lon="1.91546">
        <ele>120</ele>
        <time>2018-12-17T09:43:57+01:00</time>
      </trkpt>
      <trkpt lat="48.69841" lon="1.9154">
        <ele>115</ele>
        <time>2018-12-17T09:43:57+01:00</time>
      </trkpt>
      <trkpt lat="48.6984" lon="1.91541">
        <ele>113</ele>
        <time>2018-12-17T09:43:57+01:00</time>
      </trkpt>
      <trkpt lat="48.69837" lon="1.91544">
        <ele>112</ele>
        <time>2018-12-17T09:43:57+01:00</time>
      </trkpt>
      <trkpt lat="48.69835" lon="1.91548">
        <ele>119</ele>
        <time>2018-12-17T09:43:57+01:00</time>
      </trkpt>
      <trkpt lat="48.69831" lon="1.91552">
        <ele>121</ele>
        <time>2018-12-17T09:43:57+01:00</time>
      </trkpt>
      <trkpt lat="48.69823" lon="1.91563">
        <ele>123</ele>
        <time>2018-12-17T09:43:57+01:00</time>
      </trkpt>
      <trkpt lat="48.69814" lon="1.91563">
        <ele>129</ele>
        <time>2018-12-17T09:43:57+01:00</time>
      </trkpt>
      <trkpt lat="48.69811" lon="1.91562">
        <ele>134</ele>
        <time>2018-12-17T09:43:57+01:00</time>
      </trkpt>
      <trkpt lat="48.69812" lon="1.91563">
        <ele>135</ele>
        <time>2018-12-17T09:43:57+01:00</time>
      </trkpt>
      <trkpt lat="48.69811" lon="1.91565">
        <ele>135</ele>
        <time>2018-12-17T09:43:57+01:00</time>
      </trkpt>
      <trkpt lat="48.69119" lon="1.92403">
        <ele>161</ele>
        <time>2018-12-17T09:43:57+01:00</time>
      </trkpt>
      <trkpt lat="48.69121" lon="1.92413">
        <ele>162</ele>
        <time>2018-12-17T09:43:57+01:00</time>
      </trkpt>
      <trkpt lat="48.69128" lon="1.92429">
        <ele>162</ele>
        <time>2018-12-17T09:43:57+01:00</time>
      </trkpt>
      <trkpt lat="48.69139" lon="1.92441">
        <ele>162</ele>
        <time>2018-12-17T09:43:57+01:00</time>
      </trkpt>
      <trkpt lat="48.69146" lon="1.92448">
        <ele>163</ele>
        <time>2018-12-17T09:43:57+01:00</time>
      </trkpt>
      <trkpt lat="48.69158" lon="1.92452">
        <ele>164</ele>
        <time>2018-12-17T09:43:57+01:00</time>
      </trkpt>
      <trkpt lat="48.6917" lon="1.9245">
        <ele>164</ele>
        <time>2018-12-17T09:43:57+01:00</time>
      </trkpt>
      <trkpt lat="48.69184" lon="1.92451">
        <ele>164</ele>
        <time>2018-12-17T09:43:57+01:00</time>
      </trkpt>
      <trkpt lat="48.69199" lon="1.92448">
        <ele>167</ele>
        <time>2018-12-17T09:43:57+01:00</time>
      </trkpt>
      <trkpt lat="48.69211" lon="1.92436">
        <ele>167</ele>
        <time>2018-12-17T09:43:57+01:00</time>
      </trkpt>
      <trkpt lat="48.69214" lon="1.92429">
        <ele>167</ele>
        <time>2018-12-17T09:43:57+01:00</time>
      </trkpt>
      <trkpt lat="48.69222" lon="1.92415">
        <ele>166</ele>
        <time>2018-12-17T09:43:57+01:00</time>
      </trkpt>
      <trkpt lat="48.69231" lon="1.92412">
        <ele>165</ele>
        <time>2018-12-17T09:43:57+01:00</time>
      </trkpt>
      <trkpt lat="48.69235" lon="1.92416">
        <ele>164</ele>
        <time>2018-12-17T09:43:57+01:00</time>
      </trkpt>
      <trkpt lat="48.69242" lon="1.92432">
        <ele>161</ele>
        <time>2018-12-17T09:43:57+01:00</time>
      </trkpt>
      <trkpt lat="48.69248" lon="1.92445">
        <ele>160</ele>
        <time>2018-12-17T09:43:57+01:00</time>
      </trkpt>
      <trkpt lat="48.69249" lon="1.92469">
        <ele>161</ele>
        <time>2018-12-17T09:43:57+01:00</time>
      </trkpt>
      <trkpt lat="48.69252" lon="1.92485">
        <ele>164</ele>
        <time>2018-12-17T09:43:57+01:00</time>
      </trkpt>
      <trkpt lat="48.69257" lon="1.92498">
        <ele>166</ele>
        <time>2018-12-17T09:43:57+01:00</time>
      </trkpt>
      <trkpt lat="48.69267" lon="1.92524">
        <ele>170</ele>
        <time>2018-12-17T09:43:57+01:00</time>
      </trkpt>
      <trkpt lat="48.69277" lon="1.92542">
        <ele>170</ele>
        <time>2018-12-17T09:43:57+01:00</time>
      </trkpt>
      <trkpt lat="48.69283" lon="1.92554">
        <ele>172</ele>
        <time>2018-12-17T09:43:57+01:00</time>
      </trkpt>
      <trkpt lat="48.69288" lon="1.9258">
        <ele>171</ele>
        <time>2018-12-17T09:43:57+01:00</time>
      </trkpt>
      <trkpt lat="48.69298" lon="1.92593">
        <ele>171</ele>
        <time>2018-12-17T09:43:57+01:00</time>
      </trkpt>
      <trkpt lat="48.69309" lon="1.92601">
        <ele>170</ele>
        <time>2018-12-17T09:43:57+01:00</time>
      </trkpt>
      <trkpt lat="48.69317" lon="1.92616">
        <ele>169</ele>
        <time>2018-12-17T09:43:57+01:00</time>
      </trkpt>
      <trkpt lat="48.6932" lon="1.92632">
        <ele>168</ele>
        <time>2018-12-17T09:43:57+01:00</time>
      </trkpt>
      <trkpt lat="48.69322" lon="1.92649">
        <ele>164</ele>
        <time>2018-12-17T09:43:57+01:00</time>
      </trkpt>
      <trkpt lat="48.69322" lon="1.92652">
        <ele>163</ele>
        <time>2018-12-17T09:43:57+01:00</time>
      </trkpt>
      <trkpt lat="48.69326" lon="1.92673">
        <ele>165</ele>
        <time>2018-12-17T09:43:57+01:00</time>
      </trkpt>
      <trkpt lat="48.6933" lon="1.92683">
        <ele>165</ele>
        <time>2018-12-17T09:43:57+01:00</time>
      </trkpt>
      <trkpt lat="48.6933" lon="1.92713">
        <ele>161</ele>
        <time>2018-12-17T09:43:57+01:00</time>
      </trkpt>
      <trkpt lat="48.69331" lon="1.92722">
        <ele>160</ele>
        <time>2018-12-17T09:43:57+01:00</time>
      </trkpt>
      <trkpt lat="48.69325" lon="1.92738">
        <ele>158</ele>
        <time>2018-12-17T09:43:57+01:00</time>
      </trkpt>
      <trkpt lat="48.69322" lon="1.92747">
        <ele>156</ele>
        <time>2018-12-17T09:43:57+01:00</time>
      </trkpt>
      <trkpt lat="48.69315" lon="1.92754">
        <ele>145</ele>
        <time>2018-12-17T09:43:57+01:00</time>
      </trkpt>
      <trkpt lat="48.6931" lon="1.92767">
        <ele>140</ele>
        <time>2018-12-17T09:43:57+01:00</time>
      </trkpt>
      <trkpt lat="48.69308" lon="1.92774">
        <ele>139</ele>
        <time>2018-12-17T09:43:57+01:00</time>
      </trkpt>
      <trkpt lat="48.69297" lon="1.92794">
        <ele>131</ele>
        <time>2018-12-17T09:43:57+01:00</time>
      </trkpt>
      <trkpt lat="48.69296" lon="1.92797">
        <ele>132</ele>
        <time>2018-12-17T09:43:57+01:00</time>
      </trkpt>
      <trkpt lat="48.69289" lon="1.92804">
        <ele>130</ele>
        <time>2018-12-17T09:43:57+01:00</time>
      </trkpt>
      <trkpt lat="48.69287" lon="1.92813">
        <ele>128</ele>
        <time>2018-12-17T09:43:57+01:00</time>
      </trkpt>
      <trkpt lat="48.69284" lon="1.92819">
        <ele>137</ele>
        <time>2018-12-17T09:43:57+01:00</time>
      </trkpt>
      <trkpt lat="48.69277" lon="1.92825">
        <ele>136</ele>
        <time>2018-12-17T09:43:57+01:00</time>
      </trkpt>
      <trkpt lat="48.69264" lon="1.92838">
        <ele>129</ele>
        <time>2018-12-17T09:43:57+01:00</time>
      </trkpt>
      <trkpt lat="48.69258" lon="1.92854">
        <ele>126</ele>
        <time>2018-12-17T09:43:57+01:00</time>
      </trkpt>
      <trkpt lat="48.69252" lon="1.92872">
        <ele>126</ele>
        <time>2018-12-17T09:43:57+01:00</time>
      </trkpt>
      <trkpt lat="48.69248" lon="1.92879">
        <ele>127</ele>
        <time>2018-12-17T09:43:57+01:00</time>
      </trkpt>
      <trkpt lat="48.69241" lon="1.92894">
        <ele>130</ele>
        <time>2018-12-17T09:43:57+01:00</time>
      </trkpt>
      <trkpt lat="48.69234" lon="1.92907">
        <ele>131</ele>
        <time>2018-12-17T09:43:57+01:00</time>
      </trkpt>
      <trkpt lat="48.69228" lon="1.92919">
        <ele>131</ele>
        <time>2018-12-17T09:43:57+01:00</time>
      </trkpt>
      <trkpt lat="48.69225" lon="1.92942">
        <ele>134</ele>
        <time>2018-12-17T09:43:57+01:00</time>
      </trkpt>
      <trkpt lat="48.69212" lon="1.92964">
        <ele>135</ele>
        <time>2018-12-17T09:43:57+01:00</time>
      </trkpt>
      <trkpt lat="48.69204" lon="1.92974">
        <ele>136</ele>
        <time>2018-12-17T09:43:57+01:00</time>
      </trkpt>
      <trkpt lat="48.69201" lon="1.92976">
        <ele>136</ele>
        <time>2018-12-17T09:43:57+01:00</time>
      </trkpt>
      <trkpt lat="48.69186" lon="1.9298">
        <ele>134</ele>
        <time>2018-12-17T09:43:57+01:00</time>
      </trkpt>
      <trkpt lat="48.6917" lon="1.92985">
        <ele>135</ele>
        <time>2018-12-17T09:43:57+01:00</time>
      </trkpt>
      <trkpt lat="48.69158" lon="1.92991">
        <ele>135</ele>
        <time>2018-12-17T09:43:57+01:00</time>
      </trkpt>
      <trkpt lat="48.69149" lon="1.92998">
        <ele>132</ele>
        <time>2018-12-17T09:43:57+01:00</time>
      </trkpt>
      <trkpt lat="48.69133" lon="1.93003">
        <ele>128</ele>
        <time>2018-12-17T09:43:57+01:00</time>
      </trkpt>
      <trkpt lat="48.69122" lon="1.93005">
        <ele>123</ele>
        <time>2018-12-17T09:43:57+01:00</time>
      </trkpt>
      <trkpt lat="48.69116" lon="1.93005">
        <ele>120</ele>
        <time>2018-12-17T09:43:57+01:00</time>
      </trkpt>
      <trkpt lat="48.69104" lon="1.93005">
        <ele>106</ele>
        <time>2018-12-17T09:43:57+01:00</time>
      </trkpt>
      <trkpt lat="48.6909" lon="1.93">
        <ele>98</ele>
        <time>2018-12-17T09:43:57+01:00</time>
      </trkpt>
      <trkpt lat="48.69078" lon="1.92994">
        <ele>89</ele>
        <time>2018-12-17T09:43:57+01:00</time>
      </trkpt>
      <trkpt lat="48.69073" lon="1.92991">
        <ele>87</ele>
        <time>2018-12-17T09:43:57+01:00</time>
      </trkpt>
      <trkpt lat="48.69063" lon="1.92993">
        <ele>93</ele>
        <time>2018-12-17T09:43:57+01:00</time>
      </trkpt>
      <trkpt lat="48.69052" lon="1.92983">
        <ele>96</ele>
        <time>2018-12-17T09:43:57+01:00</time>
      </trkpt>
      <trkpt lat="48.69049" lon="1.92981">
        <ele>109</ele>
        <time>2018-12-17T09:43:57+01:00</time>
      </trkpt>
      <trkpt lat="48.69046" lon="1.92983">
        <ele>117</ele>
        <time>2018-12-17T09:43:57+01:00</time>
      </trkpt>
      <trkpt lat="48.69035" lon="1.92983">
        <ele>125</ele>
        <time>2018-12-17T09:43:57+01:00</time>
      </trkpt>
      <trkpt lat="48.6902" lon="1.92979">
        <ele>129</ele>
        <time>2018-12-17T09:43:57+01:00</time>
      </trkpt>
      <trkpt lat="48.69017" lon="1.92979">
        <ele>132</ele>
        <time>2018-12-17T09:43:57+01:00</time>
      </trkpt>
      <trkpt lat="48.69007" lon="1.92974">
        <ele>138</ele>
        <time>2018-12-17T09:43:57+01:00</time>
      </trkpt>
      <trkpt lat="48.69001" lon="1.9297">
        <ele>139</ele>
        <time>2018-12-17T09:43:57+01:00</time>
      </trkpt>
      <trkpt lat="48.68987" lon="1.92964">
        <ele>139</ele>
        <time>2018-12-17T09:43:57+01:00</time>
      </trkpt>
      <trkpt lat="48.68976" lon="1.92958">
        <ele>145</ele>
        <time>2018-12-17T09:43:57+01:00</time>
      </trkpt>
      <trkpt lat="48.68972" lon="1.92943">
        <ele>144</ele>
        <time>2018-12-17T09:43:57+01:00</time>
      </trkpt>
      <trkpt lat="48.68978" lon="1.9293">
        <ele>144</ele>
        <time>2018-12-17T09:43:57+01:00</time>
      </trkpt>
      <trkpt lat="48.68974" lon="1.92913">
        <ele>149</ele>
        <time>2018-12-17T09:43:57+01:00</time>
      </trkpt>
      <trkpt lat="48.6897" lon="1.92904">
        <ele>148</ele>
        <time>2018-12-17T09:43:57+01:00</time>
      </trkpt>
      <trkpt lat="48.68966" lon="1.92891">
        <ele>147</ele>
        <time>2018-12-17T09:43:57+01:00</time>
      </trkpt>
      <trkpt lat="48.68953" lon="1.92867">
        <ele>149</ele>
        <time>2018-12-17T09:43:57+01:00</time>
      </trkpt>
      <trkpt lat="48.68942" lon="1.92852">
        <ele>148</ele>
        <time>2018-12-17T09:43:57+01:00</time>
      </trkpt>
      <trkpt lat="48.68924" lon="1.92842">
        <ele>147</ele>
        <time>2018-12-17T09:43:57+01:00</time>
      </trkpt>
      <trkpt lat="48.68914" lon="1.92852">
        <ele>146</ele>
        <time>2018-12-17T09:43:57+01:00</time>
      </trkpt>
      <trkpt lat="48.68911" lon="1.92862">
        <ele>145</ele>
        <time>2018-12-17T09:43:57+01:00</time>
      </trkpt>
      <trkpt lat="48.68908" lon="1.92879">
        <ele>143</ele>
        <time>2018-12-17T09:43:57+01:00</time>
      </trkpt>
      <trkpt lat="48.68908" lon="1.92882">
        <ele>142</ele>
        <time>2018-12-17T09:43:57+01:00</time>
      </trkpt>
      <trkpt lat="48.68907" lon="1.92886">
        <ele>142</ele>
        <time>2018-12-17T09:43:57+01:00</time>
      </trkpt>
      <trkpt lat="48.68905" lon="1.92897">
        <ele>141</ele>
        <time>2018-12-17T09:43:57+01:00</time>
      </trkpt>
      <trkpt lat="48.68902" lon="1.92912">
        <ele>141</ele>
        <time>2018-12-17T09:43:57+01:00</time>
      </trkpt>
      <trkpt lat="48.68903" lon="1.92923">
        <ele>140</ele>
        <time>2018-12-17T09:43:57+01:00</time>
      </trkpt>
      <trkpt lat="48.68902" lon="1.92937">
        <ele>140</ele>
        <time>2018-12-17T09:43:57+01:00</time>
      </trkpt>
      <trkpt lat="48.68901" lon="1.92944">
        <ele>140</ele>
        <time>2018-12-17T09:43:57+01:00</time>
      </trkpt>
      <trkpt lat="48.689" lon="1.92957">
        <ele>141</ele>
        <time>2018-12-17T09:43:57+01:00</time>
      </trkpt>
      <trkpt lat="48.689" lon="1.92965">
        <ele>139</ele>
        <time>2018-12-17T09:43:57+01:00</time>
      </trkpt>
      <trkpt lat="48.68902" lon="1.92975">
        <ele>143</ele>
        <time>2018-12-17T09:43:57+01:00</time>
      </trkpt>
      <trkpt lat="48.68902" lon="1.92983">
        <ele>146</ele>
        <time>2018-12-17T09:43:57+01:00</time>
      </trkpt>
      <trkpt lat="48.68904" lon="1.9299">
        <ele>147</ele>
        <time>2018-12-17T09:43:57+01:00</time>
      </trkpt>
      <trkpt lat="48.68905" lon="1.92994">
        <ele>148</ele>
        <time>2018-12-17T09:43:57+01:00</time>
      </trkpt>
      <trkpt lat="48.68907" lon="1.93004">
        <ele>153</ele>
        <time>2018-12-17T09:43:57+01:00</time>
      </trkpt>
      <trkpt lat="48.68905" lon="1.93012">
        <ele>153</ele>
        <time>2018-12-17T09:43:57+01:00</time>
      </trkpt>
      <trkpt lat="48.68905" lon="1.93022">
        <ele>156</ele>
        <time>2018-12-17T09:43:57+01:00</time>
      </trkpt>
      <trkpt lat="48.68903" lon="1.93032">
        <ele>156</ele>
        <time>2018-12-17T09:43:57+01:00</time>
      </trkpt>
      <trkpt lat="48.68902" lon="1.93038">
        <ele>156</ele>
        <time>2018-12-17T09:43:57+01:00</time>
      </trkpt>
      <trkpt lat="48.68902" lon="1.93044">
        <ele>157</ele>
        <time>2018-12-17T09:43:57+01:00</time>
      </trkpt>
      <trkpt lat="48.68894" lon="1.93054">
        <ele>155</ele>
        <time>2018-12-17T09:43:57+01:00</time>
      </trkpt>
      <trkpt lat="48.68893" lon="1.93055">
        <ele>154</ele>
        <time>2018-12-17T09:43:57+01:00</time>
      </trkpt>
      <trkpt lat="48.68883" lon="1.93063">
        <ele>151</ele>
        <time>2018-12-17T09:43:57+01:00</time>
      </trkpt>
      <trkpt lat="48.68882" lon="1.93064">
        <ele>152</ele>
        <time>2018-12-17T09:43:57+01:00</time>
      </trkpt>
      <trkpt lat="48.68866" lon="1.93073">
        <ele>148</ele>
        <time>2018-12-17T09:43:57+01:00</time>
      </trkpt>
      <trkpt lat="48.68855" lon="1.93082">
        <ele>146</ele>
        <time>2018-12-17T09:43:57+01:00</time>
      </trkpt>
      <trkpt lat="48.68848" lon="1.93092">
        <ele>147</ele>
        <time>2018-12-17T09:43:57+01:00</time>
      </trkpt>
      <trkpt lat="48.68839" lon="1.931">
        <ele>147</ele>
        <time>2018-12-17T09:43:57+01:00</time>
      </trkpt>
      <trkpt lat="48.68827" lon="1.93115">
        <ele>143</ele>
        <time>2018-12-17T09:43:57+01:00</time>
      </trkpt>
      <trkpt lat="48.68817" lon="1.93141">
        <ele>147</ele>
        <time>2018-12-17T09:43:57+01:00</time>
      </trkpt>
      <trkpt lat="48.6881" lon="1.93163">
        <ele>149</ele>
        <time>2018-12-17T09:43:57+01:00</time>
      </trkpt>
      <trkpt lat="48.68805" lon="1.93181">
        <ele>147</ele>
        <time>2018-12-17T09:43:57+01:00</time>
      </trkpt>
      <trkpt lat="48.68801" lon="1.93203">
        <ele>148</ele>
        <time>2018-12-17T09:43:57+01:00</time>
      </trkpt>
      <trkpt lat="48.688" lon="1.93222">
        <ele>149</ele>
        <time>2018-12-17T09:43:57+01:00</time>
      </trkpt>
      <trkpt lat="48.68802" lon="1.93242">
        <ele>151</ele>
        <time>2018-12-17T09:43:57+01:00</time>
      </trkpt>
      <trkpt lat="48.688" lon="1.93269">
        <ele>154</ele>
        <time>2018-12-17T09:43:57+01:00</time>
      </trkpt>
      <trkpt lat="48.68799" lon="1.93288">
        <ele>155</ele>
        <time>2018-12-17T09:43:57+01:00</time>
      </trkpt>
      <trkpt lat="48.68799" lon="1.93291">
        <ele>155</ele>
        <time>2018-12-17T09:43:57+01:00</time>
      </trkpt>
      <trkpt lat="48.688" lon="1.93306">
        <ele>153</ele>
        <time>2018-12-17T09:43:57+01:00</time>
      </trkpt>
      <trkpt lat="48.68798" lon="1.93312">
        <ele>150</ele>
        <time>2018-12-17T09:43:57+01:00</time>
      </trkpt>
      <trkpt lat="48.6879" lon="1.93324">
        <ele>142</ele>
        <time>2018-12-17T09:43:57+01:00</time>
      </trkpt>
      <trkpt lat="48.68783" lon="1.9333">
        <ele>142</ele>
        <time>2018-12-17T09:43:57+01:00</time>
      </trkpt>
      <trkpt lat="48.68784" lon="1.93333">
        <ele>140</ele>
        <time>2018-12-17T09:43:57+01:00</time>
      </trkpt>
      <trkpt lat="48.68778" lon="1.93341">
        <ele>135</ele>
        <time>2018-12-17T09:43:57+01:00</time>
      </trkpt>
      <trkpt lat="48.68767" lon="1.93347">
        <ele>128</ele>
        <time>2018-12-17T09:43:57+01:00</time>
      </trkpt>
      <trkpt lat="48.68762" lon="1.93352">
        <ele>129</ele>
        <time>2018-12-17T09:43:57+01:00</time>
      </trkpt>
      <trkpt lat="48.68755" lon="1.93361">
        <ele>128</ele>
        <time>2018-12-17T09:43:57+01:00</time>
      </trkpt>
      <trkpt lat="48.68754" lon="1.93366">
        <ele>129</ele>
        <time>2018-12-17T09:43:57+01:00</time>
      </trkpt>
      <trkpt lat="48.6875" lon="1.93374">
        <ele>131</ele>
        <time>2018-12-17T09:43:57+01:00</time>
      </trkpt>
      <trkpt lat="48.68749" lon="1.93377">
        <ele>131</ele>
        <time>2018-12-17T09:43:57+01:00</time>
      </trkpt>
      <trkpt lat="48.68749" lon="1.9339">
        <ele>135</ele>
        <time>2018-12-17T09:43:57+01:00</time>
      </trkpt>
      <trkpt lat="48.6875" lon="1.93401">
        <ele>142</ele>
        <time>2018-12-17T09:43:57+01:00</time>
      </trkpt>
      <trkpt lat="48.68751" lon="1.93406">
        <ele>145</ele>
        <time>2018-12-17T09:43:57+01:00</time>
      </trkpt>
      <trkpt lat="48.6875" lon="1.93418">
        <ele>150</ele>
        <time>2018-12-17T09:43:57+01:00</time>
      </trkpt>
      <trkpt lat="48.68745" lon="1.93424">
        <ele>149</ele>
        <time>2018-12-17T09:43:57+01:00</time>
      </trkpt>
      <trkpt lat="48.68741" lon="1.93432">
        <ele>146</ele>
        <time>2018-12-17T09:43:57+01:00</time>
      </trkpt>
      <trkpt lat="48.68734" lon="1.93438">
        <ele>145</ele>
        <time>2018-12-17T09:43:57+01:00</time>
      </trkpt>
      <trkpt lat="48.68723" lon="1.93446">
        <ele>144</ele>
        <time>2018-12-17T09:43:57+01:00</time>
      </trkpt>
      <trkpt lat="48.68715" lon="1.93458">
        <ele>141</ele>
        <time>2018-12-17T09:43:57+01:00</time>
      </trkpt>
      <trkpt lat="48.68712" lon="1.9346">
        <ele>140</ele>
        <time>2018-12-17T09:43:57+01:00</time>
      </trkpt>
      <trkpt lat="48.68701" lon="1.93463">
        <ele>138</ele>
        <time>2018-12-17T09:43:57+01:00</time>
      </trkpt>
      <trkpt lat="48.68696" lon="1.93463">
        <ele>141</ele>
        <time>2018-12-17T09:43:57+01:00</time>
      </trkpt>
      <trkpt lat="48.68687" lon="1.93473">
        <ele>136</ele>
        <time>2018-12-17T09:43:57+01:00</time>
      </trkpt>
      <trkpt lat="48.68686" lon="1.93489">
        <ele>131</ele>
        <time>2018-12-17T09:43:57+01:00</time>
      </trkpt>
      <trkpt lat="48.68687" lon="1.93492">
        <ele>131</ele>
        <time>2018-12-17T09:43:57+01:00</time>
      </trkpt>
      <trkpt lat="48.68694" lon="1.93508">
        <ele>134</ele>
        <time>2018-12-17T09:43:57+01:00</time>
      </trkpt>
      <trkpt lat="48.68699" lon="1.93513">
        <ele>138</ele>
        <time>2018-12-17T09:43:57+01:00</time>
      </trkpt>
      <trkpt lat="48.68701" lon="1.93524">
        <ele>140</ele>
        <time>2018-12-17T09:43:57+01:00</time>
      </trkpt>
      <trkpt lat="48.68698" lon="1.93546">
        <ele>140</ele>
        <time>2018-12-17T09:43:57+01:00</time>
      </trkpt>
      <trkpt lat="48.68697" lon="1.93562">
        <ele>142</ele>
        <time>2018-12-17T09:43:57+01:00</time>
      </trkpt>
      <trkpt lat="48.68697" lon="1.93565">
        <ele>143</ele>
        <time>2018-12-17T09:43:57+01:00</time>
      </trkpt>
      <trkpt lat="48.68699" lon="1.93582">
        <ele>147</ele>
        <time>2018-12-17T09:43:57+01:00</time>
      </trkpt>
      <trkpt lat="48.68698" lon="1.9359">
        <ele>145</ele>
        <time>2018-12-17T09:43:57+01:00</time>
      </trkpt>
      <trkpt lat="48.68702" lon="1.93605">
        <ele>144</ele>
        <time>2018-12-17T09:43:57+01:00</time>
      </trkpt>
      <trkpt lat="48.68702" lon="1.93612">
        <ele>142</ele>
        <time>2018-12-17T09:43:57+01:00</time>
      </trkpt>
      <trkpt lat="48.68705" lon="1.93619">
        <ele>143</ele>
        <time>2018-12-17T09:43:57+01:00</time>
      </trkpt>
      <trkpt lat="48.68707" lon="1.9363">
        <ele>143</ele>
        <time>2018-12-17T09:43:57+01:00</time>
      </trkpt>
      <trkpt lat="48.68706" lon="1.93634">
        <ele>145</ele>
        <time>2018-12-17T09:43:57+01:00</time>
      </trkpt>
      <trkpt lat="48.6871" lon="1.93646">
        <ele>140</ele>
        <time>2018-12-17T09:43:57+01:00</time>
      </trkpt>
      <trkpt lat="48.68716" lon="1.93662">
        <ele>136</ele>
        <time>2018-12-17T09:43:57+01:00</time>
      </trkpt>
      <trkpt lat="48.68719" lon="1.93671">
        <ele>135</ele>
        <time>2018-12-17T09:43:57+01:00</time>
      </trkpt>
      <trkpt lat="48.68715" lon="1.93677">
        <ele>132</ele>
        <time>2018-12-17T09:43:57+01:00</time>
      </trkpt>
      <trkpt lat="48.68708" lon="1.93683">
        <ele>133</ele>
        <time>2018-12-17T09:43:57+01:00</time>
      </trkpt>
      <trkpt lat="48.68706" lon="1.93684">
        <ele>131</ele>
        <time>2018-12-17T09:43:57+01:00</time>
      </trkpt>
      <trkpt lat="48.68702" lon="1.93694">
        <ele>131</ele>
        <time>2018-12-17T09:43:57+01:00</time>
      </trkpt>
      <trkpt lat="48.68701" lon="1.937">
        <ele>134</ele>
        <time>2018-12-17T09:43:57+01:00</time>
      </trkpt>
      <trkpt lat="48.68697" lon="1.9371">
        <ele>133</ele>
        <time>2018-12-17T09:43:57+01:00</time>
      </trkpt>
      <trkpt lat="48.68691" lon="1.93722">
        <ele>133</ele>
        <time>2018-12-17T09:43:57+01:00</time>
      </trkpt>
      <trkpt lat="48.68689" lon="1.93733">
        <ele>136</ele>
        <time>2018-12-17T09:43:57+01:00</time>
      </trkpt>
      <trkpt lat="48.68685" lon="1.93754">
        <ele>140</ele>
        <time>2018-12-17T09:43:57+01:00</time>
      </trkpt>
      <trkpt lat="48.68684" lon="1.93758">
        <ele>141</ele>
        <time>2018-12-17T09:43:57+01:00</time>
      </trkpt>
      <trkpt lat="48.68681" lon="1.93786">
        <ele>145</ele>
        <time>2018-12-17T09:43:57+01:00</time>
      </trkpt>
      <trkpt lat="48.68681" lon="1.9379">
        <ele>145</ele>
        <time>2018-12-17T09:43:57+01:00</time>
      </trkpt>
      <trkpt lat="48.68675" lon="1.93799">
        <ele>146</ele>
        <time>2018-12-17T09:43:57+01:00</time>
      </trkpt>
      <trkpt lat="48.68672" lon="1.93806">
        <ele>147</ele>
        <time>2018-12-17T09:43:57+01:00</time>
      </trkpt>
      <trkpt lat="48.6867" lon="1.93817">
        <ele>147</ele>
        <time>2018-12-17T09:43:57+01:00</time>
      </trkpt>
      <trkpt lat="48.6866" lon="1.93824">
        <ele>143</ele>
        <time>2018-12-17T09:43:57+01:00</time>
      </trkpt>
      <trkpt lat="48.6865" lon="1.93826">
        <ele>140</ele>
        <time>2018-12-17T09:43:57+01:00</time>
      </trkpt>
      <trkpt lat="48.68642" lon="1.93828">
        <ele>137</ele>
        <time>2018-12-17T09:43:57+01:00</time>
      </trkpt>
      <trkpt lat="48.68634" lon="1.93831">
        <ele>142</ele>
        <time>2018-12-17T09:43:57+01:00</time>
      </trkpt>
      <trkpt lat="48.68625" lon="1.93835">
        <ele>140</ele>
        <time>2018-12-17T09:43:57+01:00</time>
      </trkpt>
      <trkpt lat="48.6862" lon="1.93838">
        <ele>140</ele>
        <time>2018-12-17T09:43:57+01:00</time>
      </trkpt>
      <trkpt lat="48.68618" lon="1.93852">
        <ele>144</ele>
        <time>2018-12-17T09:43:57+01:00</time>
      </trkpt>
      <trkpt lat="48.68618" lon="1.93855">
        <ele>145</ele>
        <time>2018-12-17T09:43:57+01:00</time>
      </trkpt>
      <trkpt lat="48.68619" lon="1.93862">
        <ele>148</ele>
        <time>2018-12-17T09:43:57+01:00</time>
      </trkpt>
      <trkpt lat="48.68621" lon="1.93866">
        <ele>148</ele>
        <time>2018-12-17T09:43:57+01:00</time>
      </trkpt>
      <trkpt lat="48.68622" lon="1.9387">
        <ele>150</ele>
        <time>2018-12-17T09:43:57+01:00</time>
      </trkpt>
      <trkpt lat="48.68623" lon="1.9388">
        <ele>153</ele>
        <time>2018-12-17T09:43:57+01:00</time>
      </trkpt>
      <trkpt lat="48.68621" lon="1.93888">
        <ele>151</ele>
        <time>2018-12-17T09:43:57+01:00</time>
      </trkpt>
      <trkpt lat="48.6862" lon="1.9391">
        <ele>150</ele>
        <time>2018-12-17T09:43:57+01:00</time>
      </trkpt>
      <trkpt lat="48.68623" lon="1.93926">
        <ele>149</ele>
        <time>2018-12-17T09:43:57+01:00</time>
      </trkpt>
      <trkpt lat="48.68623" lon="1.9393">
        <ele>148</ele>
        <time>2018-12-17T09:43:57+01:00</time>
      </trkpt>
      <trkpt lat="48.68623" lon="1.93947">
        <ele>145</ele>
        <time>2018-12-17T09:43:57+01:00</time>
      </trkpt>
      <trkpt lat="48.68622" lon="1.93956">
        <ele>142</ele>
        <time>2018-12-17T09:43:57+01:00</time>
      </trkpt>
      <trkpt lat="48.68616" lon="1.93964">
        <ele>138</ele>
        <time>2018-12-17T09:43:57+01:00</time>
      </trkpt>
      <trkpt lat="48.68613" lon="1.93983">
        <ele>135</ele>
        <time>2018-12-17T09:43:57+01:00</time>
      </trkpt>
      <trkpt lat="48.6861" lon="1.94">
        <ele>133</ele>
        <time>2018-12-17T09:43:57+01:00</time>
      </trkpt>
      <trkpt lat="48.68603" lon="1.94009">
        <ele>131</ele>
        <time>2018-12-17T09:43:57+01:00</time>
      </trkpt>
      <trkpt lat="48.68595" lon="1.94023">
        <ele>125</ele>
        <time>2018-12-17T09:43:57+01:00</time>
      </trkpt>
      <trkpt lat="48.68591" lon="1.9403">
        <ele>122</ele>
        <time>2018-12-17T09:43:57+01:00</time>
      </trkpt>
      <trkpt lat="48.68581" lon="1.94038">
        <ele>118</ele>
        <time>2018-12-17T09:43:57+01:00</time>
      </trkpt>
      <trkpt lat="48.68573" lon="1.94042">
        <ele>121</ele>
        <time>2018-12-17T09:43:57+01:00</time>
      </trkpt>
      <trkpt lat="48.68556" lon="1.94056">
        <ele>118</ele>
        <time>2018-12-17T09:43:57+01:00</time>
      </trkpt>
      <trkpt lat="48.68547" lon="1.9407">
        <ele>116</ele>
        <time>2018-12-17T09:43:57+01:00</time>
      </trkpt>
      <trkpt lat="48.68539" lon="1.94077">
        <ele>119</ele>
        <time>2018-12-17T09:43:57+01:00</time>
      </trkpt>
      <trkpt lat="48.6853" lon="1.94092">
        <ele>118</ele>
        <time>2018-12-17T09:43:57+01:00</time>
      </trkpt>
      <trkpt lat="48.68525" lon="1.94103">
        <ele>118</ele>
        <time>2018-12-17T09:43:57+01:00</time>
      </trkpt>
      <trkpt lat="48.68517" lon="1.94115">
        <ele>114</ele>
        <time>2018-12-17T09:43:57+01:00</time>
      </trkpt>
      <trkpt lat="48.68515" lon="1.94133">
        <ele>113</ele>
        <time>2018-12-17T09:43:57+01:00</time>
      </trkpt>
      <trkpt lat="48.6851" lon="1.94145">
        <ele>111</ele>
        <time>2018-12-17T09:43:57+01:00</time>
      </trkpt>
      <trkpt lat="48.68509" lon="1.94147">
        <ele>110</ele>
        <time>2018-12-17T09:43:57+01:00</time>
      </trkpt>
      <trkpt lat="48.68505" lon="1.94157">
        <ele>110</ele>
        <time>2018-12-17T09:43:57+01:00</time>
      </trkpt>
      <trkpt lat="48.68499" lon="1.94161">
        <ele>109</ele>
        <time>2018-12-17T09:43:57+01:00</time>
      </trkpt>
      <trkpt lat="48.68491" lon="1.94174">
        <ele>107</ele>
        <time>2018-12-17T09:43:57+01:00</time>
      </trkpt>
      <trkpt lat="48.68491" lon="1.94186">
        <ele>104</ele>
        <time>2018-12-17T09:43:57+01:00</time>
      </trkpt>
      <trkpt lat="48.68479" lon="1.94195">
        <ele>105</ele>
        <time>2018-12-17T09:43:57+01:00</time>
      </trkpt>
      <trkpt lat="48.68476" lon="1.94198">
        <ele>105</ele>
        <time>2018-12-17T09:43:57+01:00</time>
      </trkpt>
      <trkpt lat="48.68464" lon="1.94212">
        <ele>108</ele>
        <time>2018-12-17T09:43:57+01:00</time>
      </trkpt>
      <trkpt lat="48.68461" lon="1.94215">
        <ele>108</ele>
        <time>2018-12-17T09:43:57+01:00</time>
      </trkpt>
      <trkpt lat="48.68453" lon="1.94234">
        <ele>111</ele>
        <time>2018-12-17T09:43:57+01:00</time>
      </trkpt>
      <trkpt lat="48.68448" lon="1.94252">
        <ele>116</ele>
        <time>2018-12-17T09:43:57+01:00</time>
      </trkpt>
      <trkpt lat="48.68449" lon="1.94262">
        <ele>117</ele>
        <time>2018-12-17T09:43:57+01:00</time>
      </trkpt>
      <trkpt lat="48.68446" lon="1.94272">
        <ele>118</ele>
        <time>2018-12-17T09:43:57+01:00</time>
      </trkpt>
      <trkpt lat="48.68443" lon="1.94283">
        <ele>117</ele>
        <time>2018-12-17T09:43:57+01:00</time>
      </trkpt>
      <trkpt lat="48.68441" lon="1.94303">
        <ele>120</ele>
        <time>2018-12-17T09:43:57+01:00</time>
      </trkpt>
      <trkpt lat="48.68438" lon="1.94317">
        <ele>122</ele>
        <time>2018-12-17T09:43:57+01:00</time>
      </trkpt>
      <trkpt lat="48.68433" lon="1.94327">
        <ele>120</ele>
        <time>2018-12-17T09:43:57+01:00</time>
      </trkpt>
      <trkpt lat="48.68432" lon="1.9433">
        <ele>120</ele>
        <time>2018-12-17T09:43:57+01:00</time>
      </trkpt>
      <trkpt lat="48.68429" lon="1.94335">
        <ele>119</ele>
        <time>2018-12-17T09:43:57+01:00</time>
      </trkpt>
      <trkpt lat="48.68419" lon="1.94345">
        <ele>122</ele>
        <time>2018-12-17T09:43:57+01:00</time>
      </trkpt>
      <trkpt lat="48.68413" lon="1.94346">
        <ele>122</ele>
        <time>2018-12-17T09:43:57+01:00</time>
      </trkpt>
      <trkpt lat="48.684" lon="1.94351">
        <ele>115</ele>
        <time>2018-12-17T09:43:57+01:00</time>
      </trkpt>
      <trkpt lat="48.68391" lon="1.94358">
        <ele>112</ele>
        <time>2018-12-17T09:43:57+01:00</time>
      </trkpt>
      <trkpt lat="48.68385" lon="1.94377">
        <ele>111</ele>
        <time>2018-12-17T09:43:57+01:00</time>
      </trkpt>
      <trkpt lat="48.68384" lon="1.94385">
        <ele>111</ele>
        <time>2018-12-17T09:43:57+01:00</time>
      </trkpt>
      <trkpt lat="48.68383" lon="1.94395">
        <ele>115</ele>
        <time>2018-12-17T09:43:57+01:00</time>
      </trkpt>
      <trkpt lat="48.68377" lon="1.94406">
        <ele>124</ele>
        <time>2018-12-17T09:43:57+01:00</time>
      </trkpt>
      <trkpt lat="48.68374" lon="1.94409">
        <ele>122</ele>
        <time>2018-12-17T09:43:57+01:00</time>
      </trkpt>
      <trkpt lat="48.68366" lon="1.94422">
        <ele>123</ele>
        <time>2018-12-17T09:43:57+01:00</time>
      </trkpt>
      <trkpt lat="48.68365" lon="1.94431">
        <ele>127</ele>
        <time>2018-12-17T09:43:57+01:00</time>
      </trkpt>
      <trkpt lat="48.68364" lon="1.94436">
        <ele>127</ele>
        <time>2018-12-17T09:43:57+01:00</time>
      </trkpt>
      <trkpt lat="48.68361" lon="1.94448">
        <ele>126</ele>
        <time>2018-12-17T09:43:57+01:00</time>
      </trkpt>
      <trkpt lat="48.68358" lon="1.94456">
        <ele>124</ele>
        <time>2018-12-17T09:43:57+01:00</time>
      </trkpt>
      <trkpt lat="48.68355" lon="1.94469">
        <ele>124</ele>
        <time>2018-12-17T09:43:57+01:00</time>
      </trkpt>
      <trkpt lat="48.68351" lon="1.94476">
        <ele>123</ele>
        <time>2018-12-17T09:43:57+01:00</time>
      </trkpt>
      <trkpt lat="48.68349" lon="1.94478">
        <ele>125</ele>
        <time>2018-12-17T09:43:57+01:00</time>
      </trkpt>
      <trkpt lat="48.68346" lon="1.94482">
        <ele>125</ele>
        <time>2018-12-17T09:43:57+01:00</time>
      </trkpt>
      <trkpt lat="48.6834" lon="1.94485">
        <ele>125</ele>
        <time>2018-12-17T09:43:57+01:00</time>
      </trkpt>
      <trkpt lat="48.68335" lon="1.94489">
        <ele>129</ele>
        <time>2018-12-17T09:43:57+01:00</time>
      </trkpt>
      <trkpt lat="48.68332" lon="1.94489">
        <ele>132</ele>
        <time>2018-12-17T09:43:57+01:00</time>
      </trkpt>
      <trkpt lat="48.68329" lon="1.9449">
        <ele>136</ele>
        <time>2018-12-17T09:43:57+01:00</time>
      </trkpt>
      <trkpt lat="48.68325" lon="1.94495">
        <ele>141</ele>
        <time>2018-12-17T09:43:57+01:00</time>
      </trkpt>
      <trkpt lat="48.68323" lon="1.94497">
        <ele>144</ele>
        <time>2018-12-17T09:43:57+01:00</time>
      </trkpt>
      <trkpt lat="48.6832" lon="1.945">
        <ele>148</ele>
        <time>2018-12-17T09:43:57+01:00</time>
      </trkpt>
      <trkpt lat="48.68316" lon="1.94505">
        <ele>151</ele>
        <time>2018-12-17T09:43:57+01:00</time>
      </trkpt>
      <trkpt lat="48.68316" lon="1.94511">
        <ele>152</ele>
        <time>2018-12-17T09:43:57+01:00</time>
      </trkpt>
      <trkpt lat="48.68309" lon="1.94527">
        <ele>151</ele>
        <time>2018-12-17T09:43:57+01:00</time>
      </trkpt>
      <trkpt lat="48.68306" lon="1.94545">
        <ele>151</ele>
        <time>2018-12-17T09:43:57+01:00</time>
      </trkpt>
      <trkpt lat="48.68306" lon="1.94561">
        <ele>149</ele>
        <time>2018-12-17T09:43:57+01:00</time>
      </trkpt>
      <trkpt lat="48.68312" lon="1.94568">
        <ele>153</ele>
        <time>2018-12-17T09:43:57+01:00</time>
      </trkpt>
      <trkpt lat="48.68314" lon="1.94575">
        <ele>152</ele>
        <time>2018-12-17T09:43:57+01:00</time>
      </trkpt>
      <trkpt lat="48.68316" lon="1.94579">
        <ele>151</ele>
        <time>2018-12-17T09:43:57+01:00</time>
      </trkpt>
      <trkpt lat="48.68321" lon="1.94582">
        <ele>149</ele>
        <time>2018-12-17T09:43:57+01:00</time>
      </trkpt>
      <trkpt lat="48.68327" lon="1.94587">
        <ele>147</ele>
        <time>2018-12-17T09:43:57+01:00</time>
      </trkpt>
      <trkpt lat="48.68335" lon="1.94594">
        <ele>144</ele>
        <time>2018-12-17T09:43:57+01:00</time>
      </trkpt>
      <trkpt lat="48.68335" lon="1.94598">
        <ele>144</ele>
        <time>2018-12-17T09:43:57+01:00</time>
      </trkpt>
      <trkpt lat="48.68339" lon="1.94608">
        <ele>141</ele>
        <time>2018-12-17T09:43:57+01:00</time>
      </trkpt>
      <trkpt lat="48.68342" lon="1.94619">
        <ele>142</ele>
        <time>2018-12-17T09:43:57+01:00</time>
      </trkpt>
      <trkpt lat="48.68341" lon="1.94622">
        <ele>142</ele>
        <time>2018-12-17T09:43:57+01:00</time>
      </trkpt>
      <trkpt lat="48.68344" lon="1.94629">
        <ele>142</ele>
        <time>2018-12-17T09:43:57+01:00</time>
      </trkpt>
      <trkpt lat="48.68345" lon="1.94631">
        <ele>142</ele>
        <time>2018-12-17T09:43:57+01:00</time>
      </trkpt>
      <trkpt lat="48.68346" lon="1.94634">
        <ele>142</ele>
        <time>2018-12-17T09:43:57+01:00</time>
      </trkpt>
      <trkpt lat="48.6835" lon="1.94644">
        <ele>141</ele>
        <time>2018-12-17T09:43:57+01:00</time>
      </trkpt>
      <trkpt lat="48.6835" lon="1.94647">
        <ele>141</ele>
        <time>2018-12-17T09:43:57+01:00</time>
      </trkpt>
      <trkpt lat="48.68351" lon="1.94654">
        <ele>142</ele>
        <time>2018-12-17T09:43:57+01:00</time>
      </trkpt>
      <trkpt lat="48.6835" lon="1.94665">
        <ele>141</ele>
        <time>2018-12-17T09:43:57+01:00</time>
      </trkpt>
      <trkpt lat="48.68348" lon="1.94668">
        <ele>140</ele>
        <time>2018-12-17T09:43:57+01:00</time>
      </trkpt>
      <trkpt lat="48.6835" lon="1.94683">
        <ele>140</ele>
        <time>2018-12-17T09:43:57+01:00</time>
      </trkpt>
      <trkpt lat="48.68354" lon="1.94688">
        <ele>143</ele>
        <time>2018-12-17T09:43:57+01:00</time>
      </trkpt>
      <trkpt lat="48.68356" lon="1.94689">
        <ele>145</ele>
        <time>2018-12-17T09:43:57+01:00</time>
      </trkpt>
      <trkpt lat="48.68356" lon="1.94695">
        <ele>145</ele>
        <time>2018-12-17T09:43:57+01:00</time>
      </trkpt>
      <trkpt lat="48.68358" lon="1.94702">
        <ele>149</ele>
        <time>2018-12-17T09:43:57+01:00</time>
      </trkpt>
      <trkpt lat="48.68361" lon="1.9471">
        <ele>151</ele>
        <time>2018-12-17T09:43:57+01:00</time>
      </trkpt>
      <trkpt lat="48.68361" lon="1.94711">
        <ele>151</ele>
        <time>2018-12-17T09:43:57+01:00</time>
      </trkpt>
      <trkpt lat="48.68358" lon="1.94736">
        <ele>152</ele>
        <time>2018-12-17T09:43:57+01:00</time>
      </trkpt>
      <trkpt lat="48.68358" lon="1.9474">
        <ele>153</ele>
        <time>2018-12-17T09:43:57+01:00</time>
      </trkpt>
      <trkpt lat="48.68349" lon="1.94764">
        <ele>155</ele>
        <time>2018-12-17T09:43:57+01:00</time>
      </trkpt>
      <trkpt lat="48.68347" lon="1.94769">
        <ele>157</ele>
        <time>2018-12-17T09:43:57+01:00</time>
      </trkpt>
      <trkpt lat="48.68339" lon="1.94792">
        <ele>158</ele>
        <time>2018-12-17T09:43:57+01:00</time>
      </trkpt>
      <trkpt lat="48.68332" lon="1.94812">
        <ele>160</ele>
        <time>2018-12-17T09:43:57+01:00</time>
      </trkpt>
      <trkpt lat="48.6833" lon="1.94826">
        <ele>161</ele>
        <time>2018-12-17T09:43:57+01:00</time>
      </trkpt>
      <trkpt lat="48.68336" lon="1.94831">
        <ele>160</ele>
        <time>2018-12-17T09:43:57+01:00</time>
      </trkpt>
      <trkpt lat="48.6835" lon="1.94843">
        <ele>161</ele>
        <time>2018-12-17T09:43:57+01:00</time>
      </trkpt>
      <trkpt lat="48.68356" lon="1.94849">
        <ele>161</ele>
        <time>2018-12-17T09:43:57+01:00</time>
      </trkpt>
      <trkpt lat="48.68366" lon="1.94859">
        <ele>162</ele>
        <time>2018-12-17T09:43:57+01:00</time>
      </trkpt>
      <trkpt lat="48.68374" lon="1.94864">
        <ele>163</ele>
        <time>2018-12-17T09:43:57+01:00</time>
      </trkpt>
      <trkpt lat="48.68383" lon="1.94862">
        <ele>165</ele>
        <time>2018-12-17T09:43:57+01:00</time>
      </trkpt>
      <trkpt lat="48.68395" lon="1.94863">
        <ele>165</ele>
        <time>2018-12-17T09:43:57+01:00</time>
      </trkpt>
      <trkpt lat="48.68408" lon="1.94855">
        <ele>167</ele>
        <time>2018-12-17T09:43:57+01:00</time>
      </trkpt>
      <trkpt lat="48.6842" lon="1.94851">
        <ele>167</ele>
        <time>2018-12-17T09:43:57+01:00</time>
      </trkpt>
      <trkpt lat="48.68432" lon="1.94847">
        <ele>166</ele>
        <time>2018-12-17T09:43:57+01:00</time>
      </trkpt>
      <trkpt lat="48.68436" lon="1.94847">
        <ele>166</ele>
        <time>2018-12-17T09:43:57+01:00</time>
      </trkpt>
      <trkpt lat="48.68447" lon="1.94858">
        <ele>164</ele>
        <time>2018-12-17T09:43:57+01:00</time>
      </trkpt>
      <trkpt lat="48.68448" lon="1.9487">
        <ele>157</ele>
        <time>2018-12-17T09:43:57+01:00</time>
      </trkpt>
      <trkpt lat="48.68448" lon="1.94874">
        <ele>156</ele>
        <time>2018-12-17T09:43:57+01:00</time>
      </trkpt>
      <trkpt lat="48.68449" lon="1.94876">
        <ele>155</ele>
        <time>2018-12-17T09:43:57+01:00</time>
      </trkpt>
      <trkpt lat="48.68449" lon="1.94882">
        <ele>153</ele>
        <time>2018-12-17T09:43:57+01:00</time>
      </trkpt>
      <trkpt lat="48.68451" lon="1.94893">
        <ele>150</ele>
        <time>2018-12-17T09:43:57+01:00</time>
      </trkpt>
      <trkpt lat="48.68457" lon="1.94917">
        <ele>145</ele>
        <time>2018-12-17T09:43:57+01:00</time>
      </trkpt>
      <trkpt lat="48.68456" lon="1.9493">
        <ele>144</ele>
        <time>2018-12-17T09:43:57+01:00</time>
      </trkpt>
      <trkpt lat="48.68452" lon="1.94945">
        <ele>145</ele>
        <time>2018-12-17T09:43:57+01:00</time>
      </trkpt>
      <trkpt lat="48.68446" lon="1.94957">
        <ele>146</ele>
        <time>2018-12-17T09:43:57+01:00</time>
      </trkpt>
      <trkpt lat="48.68442" lon="1.94963">
        <ele>146</ele>
        <time>2018-12-17T09:43:57+01:00</time>
      </trkpt>
      <trkpt lat="48.6844" lon="1.9497">
        <ele>146</ele>
        <time>2018-12-17T09:43:57+01:00</time>
      </trkpt>
      <trkpt lat="48.68433" lon="1.94983">
        <ele>150</ele>
        <time>2018-12-17T09:43:57+01:00</time>
      </trkpt>
      <trkpt lat="48.68432" lon="1.94988">
        <ele>149</ele>
        <time>2018-12-17T09:43:57+01:00</time>
      </trkpt>
      <trkpt lat="48.68424" lon="1.95002">
        <ele>153</ele>
        <time>2018-12-17T09:43:57+01:00</time>
      </trkpt>
      <trkpt lat="48.68423" lon="1.95006">
        <ele>155</ele>
        <time>2018-12-17T09:43:57+01:00</time>
      </trkpt>
      <trkpt lat="48.68422" lon="1.95024">
        <ele>156</ele>
        <time>2018-12-17T09:43:57+01:00</time>
      </trkpt>
      <trkpt lat="48.68422" lon="1.95027">
        <ele>156</ele>
        <time>2018-12-17T09:43:57+01:00</time>
      </trkpt>
      <trkpt lat="48.68422" lon="1.95036">
        <ele>156</ele>
        <time>2018-12-17T09:43:57+01:00</time>
      </trkpt>
      <trkpt lat="48.68417" lon="1.95054">
        <ele>158</ele>
        <time>2018-12-17T09:43:57+01:00</time>
      </trkpt>
      <trkpt lat="48.68414" lon="1.95064">
        <ele>159</ele>
        <time>2018-12-17T09:43:57+01:00</time>
      </trkpt>
      <trkpt lat="48.68409" lon="1.95083">
        <ele>161</ele>
        <time>2018-12-17T09:43:57+01:00</time>
      </trkpt>
      <trkpt lat="48.68408" lon="1.95096">
        <ele>160</ele>
        <time>2018-12-17T09:43:57+01:00</time>
      </trkpt>
      <trkpt lat="48.68408" lon="1.9511">
        <ele>158</ele>
        <time>2018-12-17T09:43:57+01:00</time>
      </trkpt>
      <trkpt lat="48.68414" lon="1.95128">
        <ele>157</ele>
        <time>2018-12-17T09:43:57+01:00</time>
      </trkpt>
      <trkpt lat="48.68417" lon="1.95143">
        <ele>159</ele>
        <time>2018-12-17T09:43:57+01:00</time>
      </trkpt>
      <trkpt lat="48.68425" lon="1.95162">
        <ele>161</ele>
        <time>2018-12-17T09:43:57+01:00</time>
      </trkpt>
      <trkpt lat="48.68428" lon="1.95176">
        <ele>159</ele>
        <time>2018-12-17T09:43:57+01:00</time>
      </trkpt>
      <trkpt lat="48.68435" lon="1.95192">
        <ele>156</ele>
        <time>2018-12-17T09:43:57+01:00</time>
      </trkpt>
      <trkpt lat="48.68438" lon="1.95212">
        <ele>151</ele>
        <time>2018-12-17T09:43:57+01:00</time>
      </trkpt>
      <trkpt lat="48.6844" lon="1.95232">
        <ele>146</ele>
        <time>2018-12-17T09:43:57+01:00</time>
      </trkpt>
      <trkpt lat="48.6844" lon="1.95255">
        <ele>146</ele>
        <time>2018-12-17T09:43:57+01:00</time>
      </trkpt>
      <trkpt lat="48.68436" lon="1.9527">
        <ele>148</ele>
        <time>2018-12-17T09:43:57+01:00</time>
      </trkpt>
      <trkpt lat="48.68425" lon="1.95284">
        <ele>149</ele>
        <time>2018-12-17T09:43:57+01:00</time>
      </trkpt>
      <trkpt lat="48.68419" lon="1.95299">
        <ele>148</ele>
        <time>2018-12-17T09:43:57+01:00</time>
      </trkpt>
      <trkpt lat="48.68411" lon="1.9532">
        <ele>145</ele>
        <time>2018-12-17T09:43:57+01:00</time>
      </trkpt>
      <trkpt lat="48.68405" lon="1.95337">
        <ele>146</ele>
        <time>2018-12-17T09:43:57+01:00</time>
      </trkpt>
      <trkpt lat="48.68398" lon="1.95366">
        <ele>144</ele>
        <time>2018-12-17T09:43:57+01:00</time>
      </trkpt>
      <trkpt lat="48.68393" lon="1.95385">
        <ele>146</ele>
        <time>2018-12-17T09:43:57+01:00</time>
      </trkpt>
      <trkpt lat="48.68392" lon="1.95406">
        <ele>149</ele>
        <time>2018-12-17T09:43:57+01:00</time>
      </trkpt>
      <trkpt lat="48.68388" lon="1.95424">
        <ele>148</ele>
        <time>2018-12-17T09:43:57+01:00</time>
      </trkpt>
      <trkpt lat="48.68387" lon="1.95438">
        <ele>148</ele>
        <time>2018-12-17T09:43:57+01:00</time>
      </trkpt>
      <trkpt lat="48.68387" lon="1.95441">
        <ele>148</ele>
        <time>2018-12-17T09:43:57+01:00</time>
      </trkpt>
      <trkpt lat="48.68382" lon="1.9546">
        <ele>148</ele>
        <time>2018-12-17T09:43:57+01:00</time>
      </trkpt>
      <trkpt lat="48.68381" lon="1.95463">
        <ele>147</ele>
        <time>2018-12-17T09:43:57+01:00</time>
      </trkpt>
      <trkpt lat="48.68381" lon="1.95469">
        <ele>150</ele>
        <time>2018-12-17T09:43:57+01:00</time>
      </trkpt>
      <trkpt lat="48.68381" lon="1.95471">
        <ele>151</ele>
        <time>2018-12-17T09:43:57+01:00</time>
      </trkpt>
      <trkpt lat="48.68377" lon="1.95479">
        <ele>152</ele>
        <time>2018-12-17T09:43:57+01:00</time>
      </trkpt>
      <trkpt lat="48.68375" lon="1.95484">
        <ele>153</ele>
        <time>2018-12-17T09:43:57+01:00</time>
      </trkpt>
      <trkpt lat="48.6837" lon="1.9549">
        <ele>153</ele>
        <time>2018-12-17T09:43:57+01:00</time>
      </trkpt>
      <trkpt lat="48.68367" lon="1.95495">
        <ele>153</ele>
        <time>2018-12-17T09:43:57+01:00</time>
      </trkpt>
      <trkpt lat="48.68366" lon="1.95514">
        <ele>153</ele>
        <time>2018-12-17T09:43:57+01:00</time>
      </trkpt>
      <trkpt lat="48.68369" lon="1.9553">
        <ele>155</ele>
        <time>2018-12-17T09:43:57+01:00</time>
      </trkpt>
      <trkpt lat="48.68369" lon="1.95538">
        <ele>156</ele>
        <time>2018-12-17T09:43:57+01:00</time>
      </trkpt>
      <trkpt lat="48.68365" lon="1.95554">
        <ele>158</ele>
        <time>2018-12-17T09:43:57+01:00</time>
      </trkpt>
      <trkpt lat="48.68359" lon="1.95562">
        <ele>160</ele>
        <time>2018-12-17T09:43:57+01:00</time>
      </trkpt>
      <trkpt lat="48.68356" lon="1.95581">
        <ele>164</ele>
        <time>2018-12-17T09:43:57+01:00</time>
      </trkpt>
      <trkpt lat="48.68353" lon="1.956">
        <ele>166</ele>
        <time>2018-12-17T09:43:57+01:00</time>
      </trkpt>
      <trkpt lat="48.68341" lon="1.95629">
        <ele>171</ele>
        <time>2018-12-17T09:43:57+01:00</time>
      </trkpt>
      <trkpt lat="48.68335" lon="1.9565">
        <ele>176</ele>
        <time>2018-12-17T09:43:57+01:00</time>
      </trkpt>
      <trkpt lat="48.68326" lon="1.95671">
        <ele>177</ele>
        <time>2018-12-17T09:43:57+01:00</time>
      </trkpt>
      <trkpt lat="48.68318" lon="1.95694">
        <ele>175</ele>
        <time>2018-12-17T09:43:57+01:00</time>
      </trkpt>
      <trkpt lat="48.6831" lon="1.95705">
        <ele>172</ele>
        <time>2018-12-17T09:43:57+01:00</time>
      </trkpt>
      <trkpt lat="48.68298" lon="1.9573">
        <ele>173</ele>
        <time>2018-12-17T09:43:57+01:00</time>
      </trkpt>
      <trkpt lat="48.68291" lon="1.95744">
        <ele>173</ele>
        <time>2018-12-17T09:43:57+01:00</time>
      </trkpt>
      <trkpt lat="48.68283" lon="1.9576">
        <ele>170</ele>
        <time>2018-12-17T09:43:57+01:00</time>
      </trkpt>
      <trkpt lat="48.68272" lon="1.95781">
        <ele>165</ele>
        <time>2018-12-17T09:43:57+01:00</time>
      </trkpt>
      <trkpt lat="48.68269" lon="1.95797">
        <ele>163</ele>
        <time>2018-12-17T09:43:57+01:00</time>
      </trkpt>
      <trkpt lat="48.68267" lon="1.95806">
        <ele>163</ele>
        <time>2018-12-17T09:43:57+01:00</time>
      </trkpt>
      <trkpt lat="48.68259" lon="1.9581">
        <ele>164</ele>
        <time>2018-12-17T09:43:57+01:00</time>
      </trkpt>
      <trkpt lat="48.68241" lon="1.95806">
        <ele>159</ele>
        <time>2018-12-17T09:43:57+01:00</time>
      </trkpt>
      <trkpt lat="48.68223" lon="1.95804">
        <ele>156</ele>
        <time>2018-12-17T09:43:57+01:00</time>
      </trkpt>
      <trkpt lat="48.68206" lon="1.95799">
        <ele>153</ele>
        <time>2018-12-17T09:43:57+01:00</time>
      </trkpt>
      <trkpt lat="48.68195" lon="1.95788">
        <ele>155</ele>
        <time>2018-12-17T09:43:57+01:00</time>
      </trkpt>
      <trkpt lat="48.68185" lon="1.95779">
        <ele>155</ele>
        <time>2018-12-17T09:43:57+01:00</time>
      </trkpt>
      <trkpt lat="48.68171" lon="1.95776">
        <ele>155</ele>
        <time>2018-12-17T09:43:57+01:00</time>
      </trkpt>
      <trkpt lat="48.68156" lon="1.95772">
        <ele>156</ele>
        <time>2018-12-17T09:43:57+01:00</time>
      </trkpt>
      <trkpt lat="48.6814" lon="1.95761">
        <ele>158</ele>
        <time>2018-12-17T09:43:57+01:00</time>
      </trkpt>
      <trkpt lat="48.68128" lon="1.95758">
        <ele>158</ele>
        <time>2018-12-17T09:43:57+01:00</time>
      </trkpt>
      <trkpt lat="48.68116" lon="1.95755">
        <ele>160</ele>
        <time>2018-12-17T09:43:57+01:00</time>
      </trkpt>
      <trkpt lat="48.6811" lon="1.95753">
        <ele>161</ele>
        <time>2018-12-17T09:43:57+01:00</time>
      </trkpt>
      <trkpt lat="48.68106" lon="1.95753">
        <ele>160</ele>
        <time>2018-12-17T09:43:57+01:00</time>
      </trkpt>
      <trkpt lat="48.68095" lon="1.95752">
        <ele>163</ele>
        <time>2018-12-17T09:43:57+01:00</time>
      </trkpt>
      <trkpt lat="48.68088" lon="1.95749">
        <ele>165</ele>
        <time>2018-12-17T09:43:57+01:00</time>
      </trkpt>
      <trkpt lat="48.68084" lon="1.95751">
        <ele>166</ele>
        <time>2018-12-17T09:43:57+01:00</time>
      </trkpt>
      <trkpt lat="48.68077" lon="1.95748">
        <ele>169</ele>
        <time>2018-12-17T09:43:57+01:00</time>
      </trkpt>
      <trkpt lat="48.6807" lon="1.95743">
        <ele>171</ele>
        <time>2018-12-17T09:43:57+01:00</time>
      </trkpt>
      <trkpt lat="48.68065" lon="1.95729">
        <ele>173</ele>
        <time>2018-12-17T09:43:57+01:00</time>
      </trkpt>
      <trkpt lat="48.6806" lon="1.95709">
        <ele>175</ele>
        <time>2018-12-17T09:43:57+01:00</time>
      </trkpt>
      <trkpt lat="48.68059" lon="1.95694">
        <ele>177</ele>
        <time>2018-12-17T09:43:57+01:00</time>
      </trkpt>
      <trkpt lat="48.68058" lon="1.95669">
        <ele>181</ele>
        <time>2018-12-17T09:43:57+01:00</time>
      </trkpt>
      <trkpt lat="48.68057" lon="1.95641">
        <ele>182</ele>
        <time>2018-12-17T09:43:57+01:00</time>
      </trkpt>
      <trkpt lat="48.68056" lon="1.95622">
        <ele>188</ele>
        <time>2018-12-17T09:43:57+01:00</time>
      </trkpt>
      <trkpt lat="48.68051" lon="1.95617">
        <ele>185</ele>
        <time>2018-12-17T09:43:57+01:00</time>
      </trkpt>
      <trkpt lat="48.6805" lon="1.95618">
        <ele>183</ele>
        <time>2018-12-17T09:43:57+01:00</time>
      </trkpt>
      <trkpt lat="48.68037" lon="1.95628">
        <ele>171</ele>
        <time>2018-12-17T09:43:57+01:00</time>
      </trkpt>
      <trkpt lat="48.68028" lon="1.95633">
        <ele>163</ele>
        <time>2018-12-17T09:43:57+01:00</time>
      </trkpt>
      <trkpt lat="48.68026" lon="1.95636">
        <ele>163</ele>
        <time>2018-12-17T09:43:57+01:00</time>
      </trkpt>
      <trkpt lat="48.68018" lon="1.95657">
        <ele>158</ele>
        <time>2018-12-17T09:43:57+01:00</time>
      </trkpt>
      <trkpt lat="48.68013" lon="1.95662">
        <ele>156</ele>
        <time>2018-12-17T09:43:57+01:00</time>
      </trkpt>
      <trkpt lat="48.68001" lon="1.95654">
        <ele>154</ele>
        <time>2018-12-17T09:43:57+01:00</time>
      </trkpt>
      <trkpt lat="48.67988" lon="1.95643">
        <ele>153</ele>
        <time>2018-12-17T09:43:57+01:00</time>
      </trkpt>
      <trkpt lat="48.67991" lon="1.95627">
        <ele>154</ele>
        <time>2018-12-17T09:43:57+01:00</time>
      </trkpt>
      <trkpt lat="48.67997" lon="1.95611">
        <ele>155</ele>
        <time>2018-12-17T09:43:57+01:00</time>
      </trkpt>
      <trkpt lat="48.67997" lon="1.95607">
        <ele>156</ele>
        <time>2018-12-17T09:43:57+01:00</time>
      </trkpt>
      <trkpt lat="48.67998" lon="1.95581">
        <ele>164</ele>
        <time>2018-12-17T09:43:57+01:00</time>
      </trkpt>
      <trkpt lat="48.68" lon="1.95567">
        <ele>167</ele>
        <time>2018-12-17T09:43:57+01:00</time>
      </trkpt>
      <trkpt lat="48.67997" lon="1.95557">
        <ele>165</ele>
        <time>2018-12-17T09:43:57+01:00</time>
      </trkpt>
      <trkpt lat="48.67994" lon="1.95559">
        <ele>164</ele>
        <time>2018-12-17T09:43:57+01:00</time>
      </trkpt>
      <trkpt lat="48.67983" lon="1.95576">
        <ele>158</ele>
        <time>2018-12-17T09:43:57+01:00</time>
      </trkpt>
      <trkpt lat="48.67973" lon="1.95589">
        <ele>155</ele>
        <time>2018-12-17T09:43:57+01:00</time>
      </trkpt>
      <trkpt lat="48.67962" lon="1.95605">
        <ele>153</ele>
        <time>2018-12-17T09:43:57+01:00</time>
      </trkpt>
      <trkpt lat="48.67952" lon="1.95623">
        <ele>149</ele>
        <time>2018-12-17T09:43:57+01:00</time>
      </trkpt>
      <trkpt lat="48.6794" lon="1.95636">
        <ele>147</ele>
        <time>2018-12-17T09:43:57+01:00</time>
      </trkpt>
      <trkpt lat="48.67926" lon="1.95653">
        <ele>142</ele>
        <time>2018-12-17T09:43:57+01:00</time>
      </trkpt>
      <trkpt lat="48.67917" lon="1.95673">
        <ele>138</ele>
        <time>2018-12-17T09:43:57+01:00</time>
      </trkpt>
      <trkpt lat="48.67909" lon="1.95682">
        <ele>135</ele>
        <time>2018-12-17T09:43:57+01:00</time>
      </trkpt>
      <trkpt lat="48.67903" lon="1.9569">
        <ele>132</ele>
        <time>2018-12-17T09:43:57+01:00</time>
      </trkpt>
      <trkpt lat="48.67896" lon="1.9569">
        <ele>130</ele>
        <time>2018-12-17T09:43:57+01:00</time>
      </trkpt>
      <trkpt lat="48.67879" lon="1.95676">
        <ele>129</ele>
        <time>2018-12-17T09:43:57+01:00</time>
      </trkpt>
      <trkpt lat="48.6787" lon="1.95667">
        <ele>126</ele>
        <time>2018-12-17T09:43:57+01:00</time>
      </trkpt>
      <trkpt lat="48.67859" lon="1.95654">
        <ele>124</ele>
        <time>2018-12-17T09:43:57+01:00</time>
      </trkpt>
      <trkpt lat="48.6785" lon="1.9565">
        <ele>123</ele>
        <time>2018-12-17T09:43:57+01:00</time>
      </trkpt>
      <trkpt lat="48.67847" lon="1.95634">
        <ele>119</ele>
        <time>2018-12-17T09:43:57+01:00</time>
      </trkpt>
      <trkpt lat="48.67841" lon="1.95626">
        <ele>120</ele>
        <time>2018-12-17T09:43:57+01:00</time>
      </trkpt>
      <trkpt lat="48.67844" lon="1.95609">
        <ele>121</ele>
        <time>2018-12-17T09:43:57+01:00</time>
      </trkpt>
      <trkpt lat="48.67844" lon="1.95605">
        <ele>122</ele>
        <time>2018-12-17T09:43:57+01:00</time>
      </trkpt>
      <trkpt lat="48.67846" lon="1.95582">
        <ele>123</ele>
        <time>2018-12-17T09:43:57+01:00</time>
      </trkpt>
      <trkpt lat="48.67848" lon="1.9556">
        <ele>124</ele>
        <time>2018-12-17T09:43:57+01:00</time>
      </trkpt>
      <trkpt lat="48.67851" lon="1.95534">
        <ele>126</ele>
        <time>2018-12-17T09:43:57+01:00</time>
      </trkpt>
      <trkpt lat="48.67852" lon="1.95523">
        <ele>125</ele>
        <time>2018-12-17T09:43:57+01:00</time>
      </trkpt>
      <trkpt lat="48.67858" lon="1.95495">
        <ele>119</ele>
        <time>2018-12-17T09:43:57+01:00</time>
      </trkpt>
      <trkpt lat="48.67857" lon="1.95469">
        <ele>120</ele>
        <time>2018-12-17T09:43:57+01:00</time>
      </trkpt>
      <trkpt lat="48.67854" lon="1.95446">
        <ele>125</ele>
        <time>2018-12-17T09:43:57+01:00</time>
      </trkpt>
      <trkpt lat="48.67856" lon="1.95426">
        <ele>127</ele>
        <time>2018-12-17T09:43:57+01:00</time>
      </trkpt>
      <trkpt lat="48.67864" lon="1.95399">
        <ele>128</ele>
        <time>2018-12-17T09:43:57+01:00</time>
      </trkpt>
      <trkpt lat="48.67865" lon="1.95395">
        <ele>128</ele>
        <time>2018-12-17T09:43:57+01:00</time>
      </trkpt>
      <trkpt lat="48.67868" lon="1.95371">
        <ele>133</ele>
        <time>2018-12-17T09:43:57+01:00</time>
      </trkpt>
      <trkpt lat="48.67875" lon="1.95356">
        <ele>130</ele>
        <time>2018-12-17T09:43:57+01:00</time>
      </trkpt>
      <trkpt lat="48.67886" lon="1.95334">
        <ele>126</ele>
        <time>2018-12-17T09:43:57+01:00</time>
      </trkpt>
      <trkpt lat="48.67886" lon="1.9533">
        <ele>126</ele>
        <time>2018-12-17T09:43:57+01:00</time>
      </trkpt>
      <trkpt lat="48.67889" lon="1.95325">
        <ele>127</ele>
        <time>2018-12-17T09:43:57+01:00</time>
      </trkpt>
      <trkpt lat="48.67896" lon="1.95313">
        <ele>127</ele>
        <time>2018-12-17T09:43:57+01:00</time>
      </trkpt>
      <trkpt lat="48.67913" lon="1.95298">
        <ele>118</ele>
        <time>2018-12-17T09:43:57+01:00</time>
      </trkpt>
      <trkpt lat="48.67921" lon="1.95283">
        <ele>116</ele>
        <time>2018-12-17T09:43:57+01:00</time>
      </trkpt>
      <trkpt lat="48.67927" lon="1.95274">
        <ele>117</ele>
        <time>2018-12-17T09:43:57+01:00</time>
      </trkpt>
      <trkpt lat="48.67933" lon="1.95252">
        <ele>119</ele>
        <time>2018-12-17T09:43:57+01:00</time>
      </trkpt>
      <trkpt lat="48.67931" lon="1.95227">
        <ele>123</ele>
        <time>2018-12-17T09:43:57+01:00</time>
      </trkpt>
      <trkpt lat="48.67932" lon="1.9521">
        <ele>126</ele>
        <time>2018-12-17T09:43:57+01:00</time>
      </trkpt>
      <trkpt lat="48.67937" lon="1.95192">
        <ele>129</ele>
        <time>2018-12-17T09:43:57+01:00</time>
      </trkpt>
      <trkpt lat="48.67939" lon="1.95176">
        <ele>130</ele>
        <time>2018-12-17T09:43:57+01:00</time>
      </trkpt>
      <trkpt lat="48.67947" lon="1.9515">
        <ele>118</ele>
        <time>2018-12-17T09:43:57+01:00</time>
      </trkpt>
      <trkpt lat="48.67952" lon="1.95136">
        <ele>110</ele>
        <time>2018-12-17T09:43:57+01:00</time>
      </trkpt>
      <trkpt lat="48.67952" lon="1.95131">
        <ele>110</ele>
        <time>2018-12-17T09:43:57+01:00</time>
      </trkpt>
      <trkpt lat="48.6796" lon="1.95107">
        <ele>111</ele>
        <time>2018-12-17T09:43:57+01:00</time>
      </trkpt>
      <trkpt lat="48.67967" lon="1.95087">
        <ele>118</ele>
        <time>2018-12-17T09:43:57+01:00</time>
      </trkpt>
      <trkpt lat="48.6797" lon="1.95079">
        <ele>121</ele>
        <time>2018-12-17T09:43:57+01:00</time>
      </trkpt>
      <trkpt lat="48.67973" lon="1.95056">
        <ele>123</ele>
        <time>2018-12-17T09:43:57+01:00</time>
      </trkpt>
      <trkpt lat="48.67974" lon="1.95041">
        <ele>123</ele>
        <time>2018-12-17T09:43:57+01:00</time>
      </trkpt>
      <trkpt lat="48.67983" lon="1.95021">
        <ele>126</ele>
        <time>2018-12-17T09:43:57+01:00</time>
      </trkpt>
      <trkpt lat="48.67991" lon="1.95007">
        <ele>128</ele>
        <time>2018-12-17T09:43:57+01:00</time>
      </trkpt>
      <trkpt lat="48.68004" lon="1.94995">
        <ele>129</ele>
        <time>2018-12-17T09:43:57+01:00</time>
      </trkpt>
      <trkpt lat="48.68018" lon="1.94982">
        <ele>129</ele>
        <time>2018-12-17T09:43:57+01:00</time>
      </trkpt>
      <trkpt lat="48.68031" lon="1.94973">
        <ele>132</ele>
        <time>2018-12-17T09:43:57+01:00</time>
      </trkpt>
      <trkpt lat="48.68049" lon="1.94969">
        <ele>132</ele>
        <time>2018-12-17T09:43:57+01:00</time>
      </trkpt>
      <trkpt lat="48.68063" lon="1.94959">
        <ele>134</ele>
        <time>2018-12-17T09:43:57+01:00</time>
      </trkpt>
      <trkpt lat="48.68071" lon="1.94942">
        <ele>134</ele>
        <time>2018-12-17T09:43:57+01:00</time>
      </trkpt>
      <trkpt lat="48.6808" lon="1.94933">
        <ele>135</ele>
        <time>2018-12-17T09:43:57+01:00</time>
      </trkpt>
      <trkpt lat="48.68085" lon="1.94929">
        <ele>132</ele>
        <time>2018-12-17T09:43:57+01:00</time>
      </trkpt>
      <trkpt lat="48.68086" lon="1.94925">
        <ele>131</ele>
        <time>2018-12-17T09:43:57+01:00</time>
      </trkpt>
      <trkpt lat="48.68085" lon="1.94912">
        <ele>127</ele>
        <time>2018-12-17T09:43:57+01:00</time>
      </trkpt>
      <trkpt lat="48.68079" lon="1.94891">
        <ele>128</ele>
        <time>2018-12-17T09:43:57+01:00</time>
      </trkpt>
      <trkpt lat="48.68077" lon="1.94881">
        <ele>129</ele>
        <time>2018-12-17T09:43:57+01:00</time>
      </trkpt>
      <trkpt lat="48.68082" lon="1.94852">
        <ele>136</ele>
        <time>2018-12-17T09:43:57+01:00</time>
      </trkpt>
      <trkpt lat="48.68091" lon="1.94836">
        <ele>135</ele>
        <time>2018-12-17T09:43:57+01:00</time>
      </trkpt>
      <trkpt lat="48.68096" lon="1.94824">
        <ele>136</ele>
        <time>2018-12-17T09:43:57+01:00</time>
      </trkpt>
      <trkpt lat="48.68099" lon="1.94818">
        <ele>137</ele>
        <time>2018-12-17T09:43:57+01:00</time>
      </trkpt>
      <trkpt lat="48.6811" lon="1.94817">
        <ele>135</ele>
        <time>2018-12-17T09:43:57+01:00</time>
      </trkpt>
      <trkpt lat="48.68117" lon="1.9482">
        <ele>135</ele>
        <time>2018-12-17T09:43:57+01:00</time>
      </trkpt>
      <trkpt lat="48.68125" lon="1.9482">
        <ele>135</ele>
        <time>2018-12-17T09:43:57+01:00</time>
      </trkpt>
      <trkpt lat="48.68127" lon="1.94822">
        <ele>136</ele>
        <time>2018-12-17T09:43:57+01:00</time>
      </trkpt>
      <trkpt lat="48.68129" lon="1.94826">
        <ele>133</ele>
        <time>2018-12-17T09:43:57+01:00</time>
      </trkpt>
      <trkpt lat="48.68134" lon="1.94827">
        <ele>134</ele>
        <time>2018-12-17T09:43:57+01:00</time>
      </trkpt>
      <trkpt lat="48.68138" lon="1.94825">
        <ele>132</ele>
        <time>2018-12-17T09:43:57+01:00</time>
      </trkpt>
      <trkpt lat="48.6814" lon="1.9482">
        <ele>131</ele>
        <time>2018-12-17T09:43:57+01:00</time>
      </trkpt>
      <trkpt lat="48.68148" lon="1.94822">
        <ele>130</ele>
        <time>2018-12-17T09:43:57+01:00</time>
      </trkpt>
      <trkpt lat="48.68153" lon="1.94821">
        <ele>129</ele>
        <time>2018-12-17T09:43:57+01:00</time>
      </trkpt>
      <trkpt lat="48.68156" lon="1.94814">
        <ele>131</ele>
        <time>2018-12-17T09:43:57+01:00</time>
      </trkpt>
      <trkpt lat="48.68156" lon="1.94814">
        <ele>131</ele>
        <time>2018-12-17T09:43:57+01:00</time>
      </trkpt>
      <trkpt lat="48.68164" lon="1.94814">
        <ele>132</ele>
        <time>2018-12-17T09:43:57+01:00</time>
      </trkpt>
      <trkpt lat="48.6817" lon="1.94812">
        <ele>133</ele>
        <time>2018-12-17T09:43:57+01:00</time>
      </trkpt>
      <trkpt lat="48.68169" lon="1.94808">
        <ele>139</ele>
        <time>2018-12-17T09:43:57+01:00</time>
      </trkpt>
      <trkpt lat="48.68171" lon="1.94806">
        <ele>139</ele>
        <time>2018-12-17T09:43:57+01:00</time>
      </trkpt>
      <trkpt lat="48.68179" lon="1.94803">
        <ele>143</ele>
        <time>2018-12-17T09:43:57+01:00</time>
      </trkpt>
      <trkpt lat="48.6818" lon="1.94798">
        <ele>145</ele>
        <time>2018-12-17T09:43:57+01:00</time>
      </trkpt>
      <trkpt lat="48.68179" lon="1.9479">
        <ele>149</ele>
        <time>2018-12-17T09:43:57+01:00</time>
      </trkpt>
      <trkpt lat="48.68182" lon="1.94786">
        <ele>149</ele>
        <time>2018-12-17T09:43:57+01:00</time>
      </trkpt>
      <trkpt lat="48.68187" lon="1.94784">
        <ele>148</ele>
        <time>2018-12-17T09:43:57+01:00</time>
      </trkpt>
      <trkpt lat="48.6819" lon="1.94781">
        <ele>151</ele>
        <time>2018-12-17T09:43:57+01:00</time>
      </trkpt>
      <trkpt lat="48.68191" lon="1.94781">
        <ele>151</ele>
        <time>2018-12-17T09:43:57+01:00</time>
      </trkpt>
      <trkpt lat="48.68192" lon="1.94775">
        <ele>151</ele>
        <time>2018-12-17T09:43:57+01:00</time>
      </trkpt>
      <trkpt lat="48.68195" lon="1.94772">
        <ele>152</ele>
        <time>2018-12-17T09:43:57+01:00</time>
      </trkpt>
      <trkpt lat="48.68201" lon="1.94769">
        <ele>154</ele>
        <time>2018-12-17T09:43:57+01:00</time>
      </trkpt>
      <trkpt lat="48.68204" lon="1.94767">
        <ele>157</ele>
        <time>2018-12-17T09:43:57+01:00</time>
      </trkpt>
      <trkpt lat="48.68208" lon="1.94769">
        <ele>156</ele>
        <time>2018-12-17T09:43:57+01:00</time>
      </trkpt>
      <trkpt lat="48.68211" lon="1.94773">
        <ele>153</ele>
        <time>2018-12-17T09:43:57+01:00</time>
      </trkpt>
      <trkpt lat="48.68216" lon="1.94773">
        <ele>153</ele>
        <time>2018-12-17T09:43:57+01:00</time>
      </trkpt>
      <trkpt lat="48.68227" lon="1.94769">
        <ele>158</ele>
        <time>2018-12-17T09:43:57+01:00</time>
      </trkpt>
      <trkpt lat="48.68229" lon="1.94768">
        <ele>158</ele>
        <time>2018-12-17T09:43:57+01:00</time>
      </trkpt>
      <trkpt lat="48.68236" lon="1.94756">
        <ele>158</ele>
        <time>2018-12-17T09:43:57+01:00</time>
      </trkpt>
      <trkpt lat="48.68246" lon="1.94741">
        <ele>164</ele>
        <time>2018-12-17T09:43:57+01:00</time>
      </trkpt>
      <trkpt lat="48.68254" lon="1.94739">
        <ele>167</ele>
        <time>2018-12-17T09:43:57+01:00</time>
      </trkpt>
      <trkpt lat="48.6826" lon="1.94729">
        <ele>170</ele>
        <time>2018-12-17T09:43:57+01:00</time>
      </trkpt>
      <trkpt lat="48.68264" lon="1.94724">
        <ele>170</ele>
        <time>2018-12-17T09:43:57+01:00</time>
      </trkpt>
      <trkpt lat="48.68257" lon="1.94716">
        <ele>168</ele>
        <time>2018-12-17T09:43:57+01:00</time>
      </trkpt>
      <trkpt lat="48.68245" lon="1.94707">
        <ele>168</ele>
        <time>2018-12-17T09:43:57+01:00</time>
      </trkpt>
      <trkpt lat="48.68243" lon="1.94707">
        <ele>167</ele>
        <time>2018-12-17T09:43:57+01:00</time>
      </trkpt>
      <trkpt lat="48.68237" lon="1.947">
        <ele>166</ele>
        <time>2018-12-17T09:43:57+01:00</time>
      </trkpt>
      <trkpt lat="48.68235" lon="1.94689">
        <ele>165</ele>
        <time>2018-12-17T09:43:57+01:00</time>
      </trkpt>
      <trkpt lat="48.68237" lon="1.94677">
        <ele>161</ele>
        <time>2018-12-17T09:43:57+01:00</time>
      </trkpt>
      <trkpt lat="48.68241" lon="1.94666">
        <ele>163</ele>
        <time>2018-12-17T09:43:57+01:00</time>
      </trkpt>
      <trkpt lat="48.68245" lon="1.94653">
        <ele>160</ele>
        <time>2018-12-17T09:43:57+01:00</time>
      </trkpt>
      <trkpt lat="48.68247" lon="1.94636">
        <ele>157</ele>
        <time>2018-12-17T09:43:57+01:00</time>
      </trkpt>
      <trkpt lat="48.68256" lon="1.94621">
        <ele>156</ele>
        <time>2018-12-17T09:43:57+01:00</time>
      </trkpt>
      <trkpt lat="48.6827" lon="1.94603">
        <ele>154</ele>
        <time>2018-12-17T09:43:57+01:00</time>
      </trkpt>
      <trkpt lat="48.68272" lon="1.946">
        <ele>153</ele>
        <time>2018-12-17T09:43:57+01:00</time>
      </trkpt>
      <trkpt lat="48.68279" lon="1.94585">
        <ele>153</ele>
        <time>2018-12-17T09:43:57+01:00</time>
      </trkpt>
      <trkpt lat="48.68286" lon="1.94568">
        <ele>153</ele>
        <time>2018-12-17T09:43:57+01:00</time>
      </trkpt>
      <trkpt lat="48.68285" lon="1.94548">
        <ele>152</ele>
        <time>2018-12-17T09:43:57+01:00</time>
      </trkpt>
      <trkpt lat="48.68285" lon="1.94544">
        <ele>151</ele>
        <time>2018-12-17T09:43:57+01:00</time>
      </trkpt>
      <trkpt lat="48.68289" lon="1.94535">
        <ele>146</ele>
        <time>2018-12-17T09:43:57+01:00</time>
      </trkpt>
      <trkpt lat="48.68288" lon="1.94525">
        <ele>143</ele>
        <time>2018-12-17T09:43:57+01:00</time>
      </trkpt>
      <trkpt lat="48.68278" lon="1.94509">
        <ele>141</ele>
        <time>2018-12-17T09:43:57+01:00</time>
      </trkpt>
      <trkpt lat="48.68277" lon="1.94501">
        <ele>140</ele>
        <time>2018-12-17T09:43:57+01:00</time>
      </trkpt>
      <trkpt lat="48.68282" lon="1.94484">
        <ele>135</ele>
        <time>2018-12-17T09:43:57+01:00</time>
      </trkpt>
      <trkpt lat="48.68284" lon="1.94469">
        <ele>132</ele>
        <time>2018-12-17T09:43:57+01:00</time>
      </trkpt>
      <trkpt lat="48.68289" lon="1.94457">
        <ele>131</ele>
        <time>2018-12-17T09:43:57+01:00</time>
      </trkpt>
      <trkpt lat="48.68294" lon="1.94448">
        <ele>128</ele>
        <time>2018-12-17T09:43:57+01:00</time>
      </trkpt>
      <trkpt lat="48.68291" lon="1.94431">
        <ele>129</ele>
        <time>2018-12-17T09:43:57+01:00</time>
      </trkpt>
      <trkpt lat="48.68286" lon="1.94421">
        <ele>128</ele>
        <time>2018-12-17T09:43:57+01:00</time>
      </trkpt>
      <trkpt lat="48.68286" lon="1.94418">
        <ele>128</ele>
        <time>2018-12-17T09:43:57+01:00</time>
      </trkpt>
      <trkpt lat="48.68289" lon="1.94403">
        <ele>124</ele>
        <time>2018-12-17T09:43:57+01:00</time>
      </trkpt>
      <trkpt lat="48.683" lon="1.94391">
        <ele>122</ele>
        <time>2018-12-17T09:43:57+01:00</time>
      </trkpt>
      <trkpt lat="48.68303" lon="1.94387">
        <ele>121</ele>
        <time>2018-12-17T09:43:57+01:00</time>
      </trkpt>
      <trkpt lat="48.6831" lon="1.94377">
        <ele>119</ele>
        <time>2018-12-17T09:43:57+01:00</time>
      </trkpt>
      <trkpt lat="48.68315" lon="1.94373">
        <ele>121</ele>
        <time>2018-12-17T09:43:57+01:00</time>
      </trkpt>
      <trkpt lat="48.6832" lon="1.9437">
        <ele>122</ele>
        <time>2018-12-17T09:43:57+01:00</time>
      </trkpt>
      <trkpt lat="48.68325" lon="1.9436">
        <ele>123</ele>
        <time>2018-12-17T09:43:57+01:00</time>
      </trkpt>
      <trkpt lat="48.68331" lon="1.94354">
        <ele>128</ele>
        <time>2018-12-17T09:43:57+01:00</time>
      </trkpt>
      <trkpt lat="48.68335" lon="1.94348">
        <ele>128</ele>
        <time>2018-12-17T09:43:57+01:00</time>
      </trkpt>
      <trkpt lat="48.68339" lon="1.94339">
        <ele>130</ele>
        <time>2018-12-17T09:43:57+01:00</time>
      </trkpt>
      <trkpt lat="48.68345" lon="1.94329">
        <ele>130</ele>
        <time>2018-12-17T09:43:57+01:00</time>
      </trkpt>
      <trkpt lat="48.6835" lon="1.94318">
        <ele>128</ele>
        <time>2018-12-17T09:43:57+01:00</time>
      </trkpt>
      <trkpt lat="48.68352" lon="1.9431">
        <ele>126</ele>
        <time>2018-12-17T09:43:57+01:00</time>
      </trkpt>
      <trkpt lat="48.68355" lon="1.94295">
        <ele>122</ele>
        <time>2018-12-17T09:43:57+01:00</time>
      </trkpt>
      <trkpt lat="48.68356" lon="1.94282">
        <ele>128</ele>
        <time>2018-12-17T09:43:57+01:00</time>
      </trkpt>
      <trkpt lat="48.68368" lon="1.94272">
        <ele>126</ele>
        <time>2018-12-17T09:43:57+01:00</time>
      </trkpt>
      <trkpt lat="48.68376" lon="1.94263">
        <ele>126</ele>
        <time>2018-12-17T09:43:57+01:00</time>
      </trkpt>
      <trkpt lat="48.68379" lon="1.94257">
        <ele>127</ele>
        <time>2018-12-17T09:43:57+01:00</time>
      </trkpt>
      <trkpt lat="48.68379" lon="1.94244">
        <ele>127</ele>
        <time>2018-12-17T09:43:57+01:00</time>
      </trkpt>
      <trkpt lat="48.68382" lon="1.94237">
        <ele>126</ele>
        <time>2018-12-17T09:43:57+01:00</time>
      </trkpt>
      <trkpt lat="48.68385" lon="1.94217">
        <ele>128</ele>
        <time>2018-12-17T09:43:57+01:00</time>
      </trkpt>
      <trkpt lat="48.6839" lon="1.94202">
        <ele>129</ele>
        <time>2018-12-17T09:43:57+01:00</time>
      </trkpt>
      <trkpt lat="48.68391" lon="1.94195">
        <ele>132</ele>
        <time>2018-12-17T09:43:57+01:00</time>
      </trkpt>
      <trkpt lat="48.68387" lon="1.9418">
        <ele>130</ele>
        <time>2018-12-17T09:43:57+01:00</time>
      </trkpt>
      <trkpt lat="48.68385" lon="1.94177">
        <ele>130</ele>
        <time>2018-12-17T09:43:57+01:00</time>
      </trkpt>
      <trkpt lat="48.68386" lon="1.94161">
        <ele>131</ele>
        <time>2018-12-17T09:43:57+01:00</time>
      </trkpt>
      <trkpt lat="48.68388" lon="1.9416">
        <ele>132</ele>
        <time>2018-12-17T09:43:57+01:00</time>
      </trkpt>
      <trkpt lat="48.68393" lon="1.94155">
        <ele>132</ele>
        <time>2018-12-17T09:43:57+01:00</time>
      </trkpt>
      <trkpt lat="48.68398" lon="1.94145">
        <ele>137</ele>
        <time>2018-12-17T09:43:57+01:00</time>
      </trkpt>
      <trkpt lat="48.68401" lon="1.94142">
        <ele>137</ele>
        <time>2018-12-17T09:43:57+01:00</time>
      </trkpt>
      <trkpt lat="48.68404" lon="1.9414">
        <ele>139</ele>
        <time>2018-12-17T09:43:57+01:00</time>
      </trkpt>
      <trkpt lat="48.68409" lon="1.94137">
        <ele>139</ele>
        <time>2018-12-17T09:43:57+01:00</time>
      </trkpt>
      <trkpt lat="48.68416" lon="1.94131">
        <ele>140</ele>
        <time>2018-12-17T09:43:57+01:00</time>
      </trkpt>
      <trkpt lat="48.68421" lon="1.94126">
        <ele>140</ele>
        <time>2018-12-17T09:43:57+01:00</time>
      </trkpt>
      <trkpt lat="48.68427" lon="1.94125">
        <ele>140</ele>
        <time>2018-12-17T09:43:57+01:00</time>
      </trkpt>
      <trkpt lat="48.68435" lon="1.94124">
        <ele>140</ele>
        <time>2018-12-17T09:43:57+01:00</time>
      </trkpt>
      <trkpt lat="48.68441" lon="1.94126">
        <ele>139</ele>
        <time>2018-12-17T09:43:57+01:00</time>
      </trkpt>
      <trkpt lat="48.68448" lon="1.94125">
        <ele>140</ele>
        <time>2018-12-17T09:43:57+01:00</time>
      </trkpt>
      <trkpt lat="48.68453" lon="1.94124">
        <ele>142</ele>
        <time>2018-12-17T09:43:57+01:00</time>
      </trkpt>
      <trkpt lat="48.68456" lon="1.94118">
        <ele>145</ele>
        <time>2018-12-17T09:43:57+01:00</time>
      </trkpt>
      <trkpt lat="48.68457" lon="1.94116">
        <ele>148</ele>
        <time>2018-12-17T09:43:57+01:00</time>
      </trkpt>
      <trkpt lat="48.68458" lon="1.94107">
        <ele>152</ele>
        <time>2018-12-17T09:43:57+01:00</time>
      </trkpt>
      <trkpt lat="48.68459" lon="1.94103">
        <ele>154</ele>
        <time>2018-12-17T09:43:57+01:00</time>
      </trkpt>
      <trkpt lat="48.68459" lon="1.94096">
        <ele>157</ele>
        <time>2018-12-17T09:43:57+01:00</time>
      </trkpt>
      <trkpt lat="48.68461" lon="1.94091">
        <ele>159</ele>
        <time>2018-12-17T09:43:57+01:00</time>
      </trkpt>
      <trkpt lat="48.68464" lon="1.94083">
        <ele>159</ele>
        <time>2018-12-17T09:43:57+01:00</time>
      </trkpt>
      <trkpt lat="48.68465" lon="1.94079">
        <ele>159</ele>
        <time>2018-12-17T09:43:57+01:00</time>
      </trkpt>
      <trkpt lat="48.68469" lon="1.94063">
        <ele>157</ele>
        <time>2018-12-17T09:43:57+01:00</time>
      </trkpt>
      <trkpt lat="48.68474" lon="1.94052">
        <ele>156</ele>
        <time>2018-12-17T09:43:57+01:00</time>
      </trkpt>
      <trkpt lat="48.68479" lon="1.94038">
        <ele>155</ele>
        <time>2018-12-17T09:43:57+01:00</time>
      </trkpt>
      <trkpt lat="48.68482" lon="1.94016">
        <ele>152</ele>
        <time>2018-12-17T09:43:57+01:00</time>
      </trkpt>
      <trkpt lat="48.68484" lon="1.9401">
        <ele>150</ele>
        <time>2018-12-17T09:43:57+01:00</time>
      </trkpt>
      <trkpt lat="48.68478" lon="1.94">
        <ele>149</ele>
        <time>2018-12-17T09:43:57+01:00</time>
      </trkpt>
      <trkpt lat="48.68472" lon="1.94001">
        <ele>147</ele>
        <time>2018-12-17T09:43:57+01:00</time>
      </trkpt>
      <trkpt lat="48.68469" lon="1.94003">
        <ele>146</ele>
        <time>2018-12-17T09:43:57+01:00</time>
      </trkpt>
      <trkpt lat="48.68466" lon="1.93997">
        <ele>143</ele>
        <time>2018-12-17T09:43:57+01:00</time>
      </trkpt>
      <trkpt lat="48.68461" lon="1.93993">
        <ele>140</ele>
        <time>2018-12-17T09:43:57+01:00</time>
      </trkpt>
      <trkpt lat="48.68455" lon="1.93988">
        <ele>137</ele>
        <time>2018-12-17T09:43:57+01:00</time>
      </trkpt>
      <trkpt lat="48.68459" lon="1.93979">
        <ele>132</ele>
        <time>2018-12-17T09:43:57+01:00</time>
      </trkpt>
      <trkpt lat="48.68461" lon="1.93971">
        <ele>126</ele>
        <time>2018-12-17T09:43:57+01:00</time>
      </trkpt>
      <trkpt lat="48.68462" lon="1.9397">
        <ele>125</ele>
        <time>2018-12-17T09:43:57+01:00</time>
      </trkpt>
      <trkpt lat="48.68469" lon="1.93957">
        <ele>115</ele>
        <time>2018-12-17T09:43:57+01:00</time>
      </trkpt>
      <trkpt lat="48.68477" lon="1.93947">
        <ele>111</ele>
        <time>2018-12-17T09:43:57+01:00</time>
      </trkpt>
      <trkpt lat="48.68478" lon="1.93945">
        <ele>110</ele>
        <time>2018-12-17T09:43:57+01:00</time>
      </trkpt>
      <trkpt lat="48.68487" lon="1.93937">
        <ele>110</ele>
        <time>2018-12-17T09:43:57+01:00</time>
      </trkpt>
      <trkpt lat="48.68496" lon="1.93921">
        <ele>110</ele>
        <time>2018-12-17T09:43:57+01:00</time>
      </trkpt>
      <trkpt lat="48.68501" lon="1.93917">
        <ele>110</ele>
        <time>2018-12-17T09:43:57+01:00</time>
      </trkpt>
      <trkpt lat="48.68511" lon="1.93913">
        <ele>112</ele>
        <time>2018-12-17T09:43:57+01:00</time>
      </trkpt>
      <trkpt lat="48.6852" lon="1.93915">
        <ele>113</ele>
        <time>2018-12-17T09:43:57+01:00</time>
      </trkpt>
      <trkpt lat="48.6853" lon="1.9391">
        <ele>113</ele>
        <time>2018-12-17T09:43:57+01:00</time>
      </trkpt>
      <trkpt lat="48.6853" lon="1.93906">
        <ele>115</ele>
        <time>2018-12-17T09:43:57+01:00</time>
      </trkpt>
      <trkpt lat="48.68535" lon="1.9389">
        <ele>127</ele>
        <time>2018-12-17T09:43:57+01:00</time>
      </trkpt>
      <trkpt lat="48.68543" lon="1.93875">
        <ele>128</ele>
        <time>2018-12-17T09:43:57+01:00</time>
      </trkpt>
      <trkpt lat="48.68547" lon="1.93867">
        <ele>129</ele>
        <time>2018-12-17T09:43:57+01:00</time>
      </trkpt>
      <trkpt lat="48.68547" lon="1.93858">
        <ele>133</ele>
        <time>2018-12-17T09:43:57+01:00</time>
      </trkpt>
      <trkpt lat="48.68548" lon="1.93834">
        <ele>138</ele>
        <time>2018-12-17T09:43:57+01:00</time>
      </trkpt>
      <trkpt lat="48.68552" lon="1.93825">
        <ele>142</ele>
        <time>2018-12-17T09:43:57+01:00</time>
      </trkpt>
      <trkpt lat="48.68554" lon="1.93819">
        <ele>146</ele>
        <time>2018-12-17T09:43:57+01:00</time>
      </trkpt>
      <trkpt lat="48.68564" lon="1.93808">
        <ele>147</ele>
        <time>2018-12-17T09:43:57+01:00</time>
      </trkpt>
      <trkpt lat="48.68571" lon="1.938">
        <ele>146</ele>
        <time>2018-12-17T09:43:57+01:00</time>
      </trkpt>
      <trkpt lat="48.68583" lon="1.93793">
        <ele>144</ele>
        <time>2018-12-17T09:43:57+01:00</time>
      </trkpt>
      <trkpt lat="48.68598" lon="1.93782">
        <ele>142</ele>
        <time>2018-12-17T09:43:57+01:00</time>
      </trkpt>
      <trkpt lat="48.68607" lon="1.93776">
        <ele>145</ele>
        <time>2018-12-17T09:43:57+01:00</time>
      </trkpt>
      <trkpt lat="48.68608" lon="1.93775">
        <ele>146</ele>
        <time>2018-12-17T09:43:57+01:00</time>
      </trkpt>
      <trkpt lat="48.68613" lon="1.93773">
        <ele>147</ele>
        <time>2018-12-17T09:43:57+01:00</time>
      </trkpt>
      <trkpt lat="48.6862" lon="1.9377">
        <ele>150</ele>
        <time>2018-12-17T09:43:57+01:00</time>
      </trkpt>
      <trkpt lat="48.68624" lon="1.93769">
        <ele>152</ele>
        <time>2018-12-17T09:43:57+01:00</time>
      </trkpt>
      <trkpt lat="48.6863" lon="1.93768">
        <ele>152</ele>
        <time>2018-12-17T09:43:57+01:00</time>
      </trkpt>
      <trkpt lat="48.68633" lon="1.93768">
        <ele>154</ele>
        <time>2018-12-17T09:43:57+01:00</time>
      </trkpt>
      <trkpt lat="48.68635" lon="1.93763">
        <ele>158</ele>
        <time>2018-12-17T09:43:57+01:00</time>
      </trkpt>
      <trkpt lat="48.68641" lon="1.93761">
        <ele>158</ele>
        <time>2018-12-17T09:43:57+01:00</time>
      </trkpt>
      <trkpt lat="48.68643" lon="1.93755">
        <ele>160</ele>
        <time>2018-12-17T09:43:57+01:00</time>
      </trkpt>
      <trkpt lat="48.68645" lon="1.93747">
        <ele>159</ele>
        <time>2018-12-17T09:43:57+01:00</time>
      </trkpt>
      <trkpt lat="48.68644" lon="1.93745">
        <ele>159</ele>
        <time>2018-12-17T09:43:57+01:00</time>
      </trkpt>
      <trkpt lat="48.68642" lon="1.93735">
        <ele>160</ele>
        <time>2018-12-17T09:43:57+01:00</time>
      </trkpt>
      <trkpt lat="48.68634" lon="1.93727">
        <ele>156</ele>
        <time>2018-12-17T09:43:57+01:00</time>
      </trkpt>
      <trkpt lat="48.6863" lon="1.93722">
        <ele>152</ele>
        <time>2018-12-17T09:43:57+01:00</time>
      </trkpt>
      <trkpt lat="48.68631" lon="1.93706">
        <ele>146</ele>
        <time>2018-12-17T09:43:57+01:00</time>
      </trkpt>
      <trkpt lat="48.6863" lon="1.93703">
        <ele>145</ele>
        <time>2018-12-17T09:43:57+01:00</time>
      </trkpt>
      <trkpt lat="48.6862" lon="1.93697">
        <ele>141</ele>
        <time>2018-12-17T09:43:57+01:00</time>
      </trkpt>
      <trkpt lat="48.68619" lon="1.93696">
        <ele>140</ele>
        <time>2018-12-17T09:43:57+01:00</time>
      </trkpt>
      <trkpt lat="48.68611" lon="1.93685">
        <ele>138</ele>
        <time>2018-12-17T09:43:57+01:00</time>
      </trkpt>
      <trkpt lat="48.68602" lon="1.93675">
        <ele>135</ele>
        <time>2018-12-17T09:43:57+01:00</time>
      </trkpt>
      <trkpt lat="48.68589" lon="1.93663">
        <ele>131</ele>
        <time>2018-12-17T09:43:57+01:00</time>
      </trkpt>
      <trkpt lat="48.68579" lon="1.93655">
        <ele>130</ele>
        <time>2018-12-17T09:43:57+01:00</time>
      </trkpt>
      <trkpt lat="48.68573" lon="1.9365">
        <ele>128</ele>
        <time>2018-12-17T09:43:57+01:00</time>
      </trkpt>
      <trkpt lat="48.68566" lon="1.93642">
        <ele>125</ele>
        <time>2018-12-17T09:43:57+01:00</time>
      </trkpt>
      <trkpt lat="48.68566" lon="1.93636">
        <ele>124</ele>
        <time>2018-12-17T09:43:57+01:00</time>
      </trkpt>
      <trkpt lat="48.68574" lon="1.93624">
        <ele>120</ele>
        <time>2018-12-17T09:43:57+01:00</time>
      </trkpt>
      <trkpt lat="48.68586" lon="1.93608">
        <ele>120</ele>
        <time>2018-12-17T09:43:57+01:00</time>
      </trkpt>
      <trkpt lat="48.68592" lon="1.93602">
        <ele>122</ele>
        <time>2018-12-17T09:43:57+01:00</time>
      </trkpt>
      <trkpt lat="48.68594" lon="1.93592">
        <ele>127</ele>
        <time>2018-12-17T09:43:57+01:00</time>
      </trkpt>
      <trkpt lat="48.68596" lon="1.93589">
        <ele>128</ele>
        <time>2018-12-17T09:43:57+01:00</time>
      </trkpt>
      <trkpt lat="48.68601" lon="1.93578">
        <ele>132</ele>
        <time>2018-12-17T09:43:57+01:00</time>
      </trkpt>
      <trkpt lat="48.68607" lon="1.9357">
        <ele>136</ele>
        <time>2018-12-17T09:43:57+01:00</time>
      </trkpt>
      <trkpt lat="48.68621" lon="1.93566">
        <ele>142</ele>
        <time>2018-12-17T09:43:57+01:00</time>
      </trkpt>
      <trkpt lat="48.68622" lon="1.93564">
        <ele>144</ele>
        <time>2018-12-17T09:43:57+01:00</time>
      </trkpt>
      <trkpt lat="48.68627" lon="1.93561">
        <ele>146</ele>
        <time>2018-12-17T09:43:57+01:00</time>
      </trkpt>
      <trkpt lat="48.68634" lon="1.93562">
        <ele>142</ele>
        <time>2018-12-17T09:43:57+01:00</time>
      </trkpt>
      <trkpt lat="48.68636" lon="1.93559">
        <ele>143</ele>
        <time>2018-12-17T09:43:57+01:00</time>
      </trkpt>
      <trkpt lat="48.68641" lon="1.93561">
        <ele>139</ele>
        <time>2018-12-17T09:43:57+01:00</time>
      </trkpt>
      <trkpt lat="48.68646" lon="1.9356">
        <ele>135</ele>
        <time>2018-12-17T09:43:57+01:00</time>
      </trkpt>
      <trkpt lat="48.68644" lon="1.93556">
        <ele>136</ele>
        <time>2018-12-17T09:43:57+01:00</time>
      </trkpt>
      <trkpt lat="48.68637" lon="1.93542">
        <ele>138</ele>
        <time>2018-12-17T09:43:57+01:00</time>
      </trkpt>
      <trkpt lat="48.6863" lon="1.93524">
        <ele>138</ele>
        <time>2018-12-17T09:43:57+01:00</time>
      </trkpt>
      <trkpt lat="48.6863" lon="1.93511">
        <ele>138</ele>
        <time>2018-12-17T09:43:57+01:00</time>
      </trkpt>
      <trkpt lat="48.68633" lon="1.93497">
        <ele>137</ele>
        <time>2018-12-17T09:43:57+01:00</time>
      </trkpt>
      <trkpt lat="48.68634" lon="1.93495">
        <ele>139</ele>
        <time>2018-12-17T09:43:57+01:00</time>
      </trkpt>
      <trkpt lat="48.68639" lon="1.93487">
        <ele>143</ele>
        <time>2018-12-17T09:43:57+01:00</time>
      </trkpt>
      <trkpt lat="48.68642" lon="1.93472">
        <ele>141</ele>
        <time>2018-12-17T09:43:57+01:00</time>
      </trkpt>
      <trkpt lat="48.68648" lon="1.93463">
        <ele>136</ele>
        <time>2018-12-17T09:43:57+01:00</time>
      </trkpt>
      <trkpt lat="48.6865" lon="1.93462">
        <ele>135</ele>
        <time>2018-12-17T09:43:57+01:00</time>
      </trkpt>
      <trkpt lat="48.68659" lon="1.93455">
        <ele>131</ele>
        <time>2018-12-17T09:43:57+01:00</time>
      </trkpt>
      <trkpt lat="48.68663" lon="1.93443">
        <ele>133</ele>
        <time>2018-12-17T09:43:57+01:00</time>
      </trkpt>
      <trkpt lat="48.68671" lon="1.93441">
        <ele>132</ele>
        <time>2018-12-17T09:43:57+01:00</time>
      </trkpt>
      <trkpt lat="48.68673" lon="1.93441">
        <ele>132</ele>
        <time>2018-12-17T09:43:57+01:00</time>
      </trkpt>
      <trkpt lat="48.68678" lon="1.93436">
        <ele>137</ele>
        <time>2018-12-17T09:43:57+01:00</time>
      </trkpt>
      <trkpt lat="48.6868" lon="1.93433">
        <ele>138</ele>
        <time>2018-12-17T09:43:57+01:00</time>
      </trkpt>
      <trkpt lat="48.68686" lon="1.93422">
        <ele>136</ele>
        <time>2018-12-17T09:43:57+01:00</time>
      </trkpt>
      <trkpt lat="48.68687" lon="1.93421">
        <ele>136</ele>
        <time>2018-12-17T09:43:57+01:00</time>
      </trkpt>
      <trkpt lat="48.68692" lon="1.9341">
        <ele>133</ele>
        <time>2018-12-17T09:43:57+01:00</time>
      </trkpt>
      <trkpt lat="48.68694" lon="1.93401">
        <ele>136</ele>
        <time>2018-12-17T09:43:57+01:00</time>
      </trkpt>
      <trkpt lat="48.68702" lon="1.93393">
        <ele>143</ele>
        <time>2018-12-17T09:43:57+01:00</time>
      </trkpt>
      <trkpt lat="48.68704" lon="1.93378">
        <ele>146</ele>
        <time>2018-12-17T09:43:57+01:00</time>
      </trkpt>
      <trkpt lat="48.68707" lon="1.93368">
        <ele>147</ele>
        <time>2018-12-17T09:43:57+01:00</time>
      </trkpt>
      <trkpt lat="48.68705" lon="1.93353">
        <ele>150</ele>
        <time>2018-12-17T09:43:57+01:00</time>
      </trkpt>
      <trkpt lat="48.6871" lon="1.93349">
        <ele>146</ele>
        <time>2018-12-17T09:43:57+01:00</time>
      </trkpt>
      <trkpt lat="48.68714" lon="1.93343">
        <ele>143</ele>
        <time>2018-12-17T09:43:57+01:00</time>
      </trkpt>
      <trkpt lat="48.68721" lon="1.93337">
        <ele>145</ele>
        <time>2018-12-17T09:43:57+01:00</time>
      </trkpt>
      <trkpt lat="48.68723" lon="1.93338">
        <ele>146</ele>
        <time>2018-12-17T09:43:57+01:00</time>
      </trkpt>
      <trkpt lat="48.68728" lon="1.93334">
        <ele>146</ele>
        <time>2018-12-17T09:43:57+01:00</time>
      </trkpt>
      <trkpt lat="48.68734" lon="1.93333">
        <ele>149</ele>
        <time>2018-12-17T09:43:57+01:00</time>
      </trkpt>
      <trkpt lat="48.68735" lon="1.93333">
        <ele>148</ele>
        <time>2018-12-17T09:43:57+01:00</time>
      </trkpt>
      <trkpt lat="48.6874" lon="1.93325">
        <ele>143</ele>
        <time>2018-12-17T09:43:57+01:00</time>
      </trkpt>
      <trkpt lat="48.6874" lon="1.93312">
        <ele>143</ele>
        <time>2018-12-17T09:43:57+01:00</time>
      </trkpt>
      <trkpt lat="48.68741" lon="1.93307">
        <ele>140</ele>
        <time>2018-12-17T09:43:57+01:00</time>
      </trkpt>
      <trkpt lat="48.68736" lon="1.93303">
        <ele>143</ele>
        <time>2018-12-17T09:43:57+01:00</time>
      </trkpt>
      <trkpt lat="48.68734" lon="1.93292">
        <ele>147</ele>
        <time>2018-12-17T09:43:57+01:00</time>
      </trkpt>
      <trkpt lat="48.68735" lon="1.93285">
        <ele>151</ele>
        <time>2018-12-17T09:43:57+01:00</time>
      </trkpt>
      <trkpt lat="48.68735" lon="1.93282">
        <ele>152</ele>
        <time>2018-12-17T09:43:57+01:00</time>
      </trkpt>
      <trkpt lat="48.68735" lon="1.93269">
        <ele>153</ele>
        <time>2018-12-17T09:43:57+01:00</time>
      </trkpt>
      <trkpt lat="48.68736" lon="1.93266">
        <ele>153</ele>
        <time>2018-12-17T09:43:57+01:00</time>
      </trkpt>
      <trkpt lat="48.68738" lon="1.93259">
        <ele>152</ele>
        <time>2018-12-17T09:43:57+01:00</time>
      </trkpt>
      <trkpt lat="48.68737" lon="1.93251">
        <ele>151</ele>
        <time>2018-12-17T09:43:57+01:00</time>
      </trkpt>
      <trkpt lat="48.68737" lon="1.93249">
        <ele>151</ele>
        <time>2018-12-17T09:43:57+01:00</time>
      </trkpt>
      <trkpt lat="48.68744" lon="1.93234">
        <ele>150</ele>
        <time>2018-12-17T09:43:57+01:00</time>
      </trkpt>
      <trkpt lat="48.68752" lon="1.9322">
        <ele>143</ele>
        <time>2018-12-17T09:43:57+01:00</time>
      </trkpt>
      <trkpt lat="48.68752" lon="1.93214">
        <ele>143</ele>
        <time>2018-12-17T09:43:57+01:00</time>
      </trkpt>
      <trkpt lat="48.68752" lon="1.9319">
        <ele>144</ele>
        <time>2018-12-17T09:43:57+01:00</time>
      </trkpt>
      <trkpt lat="48.68749" lon="1.93183">
        <ele>144</ele>
        <time>2018-12-17T09:43:57+01:00</time>
      </trkpt>
      <trkpt lat="48.68752" lon="1.93155">
        <ele>134</ele>
        <time>2018-12-17T09:43:57+01:00</time>
      </trkpt>
      <trkpt lat="48.68757" lon="1.93129">
        <ele>129</ele>
        <time>2018-12-17T09:43:57+01:00</time>
      </trkpt>
      <trkpt lat="48.68761" lon="1.9311">
        <ele>127</ele>
        <time>2018-12-17T09:43:57+01:00</time>
      </trkpt>
      <trkpt lat="48.68766" lon="1.93096">
        <ele>126</ele>
        <time>2018-12-17T09:43:57+01:00</time>
      </trkpt>
      <trkpt lat="48.68767" lon="1.93093">
        <ele>127</ele>
        <time>2018-12-17T09:43:57+01:00</time>
      </trkpt>
      <trkpt lat="48.68768" lon="1.93085">
        <ele>139</ele>
        <time>2018-12-17T09:43:57+01:00</time>
      </trkpt>
      <trkpt lat="48.68774" lon="1.93078">
        <ele>144</ele>
        <time>2018-12-17T09:43:57+01:00</time>
      </trkpt>
      <trkpt lat="48.68776" lon="1.93076">
        <ele>145</ele>
        <time>2018-12-17T09:43:57+01:00</time>
      </trkpt>
      <trkpt lat="48.6878" lon="1.9307">
        <ele>151</ele>
        <time>2018-12-17T09:43:57+01:00</time>
      </trkpt>
      <trkpt lat="48.68786" lon="1.93067">
        <ele>154</ele>
        <time>2018-12-17T09:43:57+01:00</time>
      </trkpt>
      <trkpt lat="48.6879" lon="1.93059">
        <ele>158</ele>
        <time>2018-12-17T09:43:57+01:00</time>
      </trkpt>
      <trkpt lat="48.68802" lon="1.93049">
        <ele>156</ele>
        <time>2018-12-17T09:43:57+01:00</time>
      </trkpt>
      <trkpt lat="48.68807" lon="1.93032">
        <ele>151</ele>
        <time>2018-12-17T09:43:57+01:00</time>
      </trkpt>
      <trkpt lat="48.68803" lon="1.93017">
        <ele>152</ele>
        <time>2018-12-17T09:43:57+01:00</time>
      </trkpt>
      <trkpt lat="48.6881" lon="1.92986">
        <ele>144</ele>
        <time>2018-12-17T09:43:57+01:00</time>
      </trkpt>
      <trkpt lat="48.68818" lon="1.92973">
        <ele>140</ele>
        <time>2018-12-17T09:43:57+01:00</time>
      </trkpt>
      <trkpt lat="48.6882" lon="1.9296">
        <ele>147</ele>
        <time>2018-12-17T09:43:57+01:00</time>
      </trkpt>
      <trkpt lat="48.68819" lon="1.92946">
        <ele>146</ele>
        <time>2018-12-17T09:43:57+01:00</time>
      </trkpt>
      <trkpt lat="48.68821" lon="1.9294">
        <ele>143</ele>
        <time>2018-12-17T09:43:57+01:00</time>
      </trkpt>
      <trkpt lat="48.68821" lon="1.92929">
        <ele>141</ele>
        <time>2018-12-17T09:43:57+01:00</time>
      </trkpt>
      <trkpt lat="48.68807" lon="1.92911">
        <ele>137</ele>
        <time>2018-12-17T09:43:57+01:00</time>
      </trkpt>
      <trkpt lat="48.68805" lon="1.92891">
        <ele>139</ele>
        <time>2018-12-17T09:43:57+01:00</time>
      </trkpt>
      <trkpt lat="48.68811" lon="1.92879">
        <ele>140</ele>
        <time>2018-12-17T09:43:57+01:00</time>
      </trkpt>
      <trkpt lat="48.6882" lon="1.92869">
        <ele>142</ele>
        <time>2018-12-17T09:43:57+01:00</time>
      </trkpt>
      <trkpt lat="48.68829" lon="1.92847">
        <ele>151</ele>
        <time>2018-12-17T09:43:57+01:00</time>
      </trkpt>
      <trkpt lat="48.68833" lon="1.92837">
        <ele>153</ele>
        <time>2018-12-17T09:43:57+01:00</time>
      </trkpt>
      <trkpt lat="48.68833" lon="1.9283">
        <ele>152</ele>
        <time>2018-12-17T09:43:57+01:00</time>
      </trkpt>
      <trkpt lat="48.68834" lon="1.92825">
        <ele>151</ele>
        <time>2018-12-17T09:43:57+01:00</time>
      </trkpt>
      <trkpt lat="48.68834" lon="1.92816">
        <ele>145</ele>
        <time>2018-12-17T09:43:57+01:00</time>
      </trkpt>
      <trkpt lat="48.68834" lon="1.92809">
        <ele>143</ele>
        <time>2018-12-17T09:43:57+01:00</time>
      </trkpt>
      <trkpt lat="48.68834" lon="1.92801">
        <ele>141</ele>
        <time>2018-12-17T09:43:57+01:00</time>
      </trkpt>
      <trkpt lat="48.68836" lon="1.92794">
        <ele>136</ele>
        <time>2018-12-17T09:43:57+01:00</time>
      </trkpt>
      <trkpt lat="48.68848" lon="1.92783">
        <ele>134</ele>
        <time>2018-12-17T09:43:57+01:00</time>
      </trkpt>
      <trkpt lat="48.68852" lon="1.92772">
        <ele>139</ele>
        <time>2018-12-17T09:43:57+01:00</time>
      </trkpt>
      <trkpt lat="48.68854" lon="1.92768">
        <ele>141</ele>
        <time>2018-12-17T09:43:57+01:00</time>
      </trkpt>
      <trkpt lat="48.68858" lon="1.92751">
        <ele>143</ele>
        <time>2018-12-17T09:43:57+01:00</time>
      </trkpt>
      <trkpt lat="48.6886" lon="1.92741">
        <ele>147</ele>
        <time>2018-12-17T09:43:57+01:00</time>
      </trkpt>
      <trkpt lat="48.68865" lon="1.92732">
        <ele>148</ele>
        <time>2018-12-17T09:43:57+01:00</time>
      </trkpt>
      <trkpt lat="48.68868" lon="1.92724">
        <ele>152</ele>
        <time>2018-12-17T09:43:57+01:00</time>
      </trkpt>
      <trkpt lat="48.68875" lon="1.92714">
        <ele>149</ele>
        <time>2018-12-17T09:43:57+01:00</time>
      </trkpt>
      <trkpt lat="48.68882" lon="1.92706">
        <ele>145</ele>
        <time>2018-12-17T09:43:57+01:00</time>
      </trkpt>
      <trkpt lat="48.68887" lon="1.927">
        <ele>141</ele>
        <time>2018-12-17T09:43:57+01:00</time>
      </trkpt>
      <trkpt lat="48.68886" lon="1.92687">
        <ele>142</ele>
        <time>2018-12-17T09:43:57+01:00</time>
      </trkpt>
      <trkpt lat="48.68882" lon="1.92671">
        <ele>144</ele>
        <time>2018-12-17T09:43:57+01:00</time>
      </trkpt>
      <trkpt lat="48.68883" lon="1.92646">
        <ele>152</ele>
        <time>2018-12-17T09:43:57+01:00</time>
      </trkpt>
      <trkpt lat="48.68888" lon="1.92643">
        <ele>151</ele>
        <time>2018-12-17T09:43:57+01:00</time>
      </trkpt>
      <trkpt lat="48.6889" lon="1.92638">
        <ele>153</ele>
        <time>2018-12-17T09:43:57+01:00</time>
      </trkpt>
      <trkpt lat="48.68898" lon="1.92639">
        <ele>149</ele>
        <time>2018-12-17T09:43:57+01:00</time>
      </trkpt>
      <trkpt lat="48.68902" lon="1.92638">
        <ele>147</ele>
        <time>2018-12-17T09:43:57+01:00</time>
      </trkpt>
      <trkpt lat="48.68905" lon="1.92635">
        <ele>149</ele>
        <time>2018-12-17T09:43:57+01:00</time>
      </trkpt>
      <trkpt lat="48.68913" lon="1.92636">
        <ele>153</ele>
        <time>2018-12-17T09:43:57+01:00</time>
      </trkpt>
      <trkpt lat="48.68915" lon="1.92635">
        <ele>153</ele>
        <time>2018-12-17T09:43:57+01:00</time>
      </trkpt>
      <trkpt lat="48.68921" lon="1.92635">
        <ele>153</ele>
        <time>2018-12-17T09:43:57+01:00</time>
      </trkpt>
      <trkpt lat="48.68926" lon="1.92638">
        <ele>152</ele>
        <time>2018-12-17T09:43:57+01:00</time>
      </trkpt>
      <trkpt lat="48.6893" lon="1.92635">
        <ele>150</ele>
        <time>2018-12-17T09:43:57+01:00</time>
      </trkpt>
      <trkpt lat="48.68932" lon="1.92634">
        <ele>150</ele>
        <time>2018-12-17T09:43:57+01:00</time>
      </trkpt>
      <trkpt lat="48.68937" lon="1.92628">
        <ele>150</ele>
        <time>2018-12-17T09:43:57+01:00</time>
      </trkpt>
      <trkpt lat="48.68942" lon="1.92624">
        <ele>153</ele>
        <time>2018-12-17T09:43:57+01:00</time>
      </trkpt>
      <trkpt lat="48.68943" lon="1.92618">
        <ele>160</ele>
        <time>2018-12-17T09:43:57+01:00</time>
      </trkpt>
      <trkpt lat="48.68947" lon="1.92609">
        <ele>162</ele>
        <time>2018-12-17T09:43:57+01:00</time>
      </trkpt>
      <trkpt lat="48.68949" lon="1.9261">
        <ele>162</ele>
        <time>2018-12-17T09:43:57+01:00</time>
      </trkpt>
      <trkpt lat="48.68952" lon="1.92611">
        <ele>161</ele>
        <time>2018-12-17T09:43:57+01:00</time>
      </trkpt>
      <trkpt lat="48.68956" lon="1.92609">
        <ele>161</ele>
        <time>2018-12-17T09:43:57+01:00</time>
      </trkpt>
      <trkpt lat="48.68956" lon="1.92599">
        <ele>161</ele>
        <time>2018-12-17T09:43:57+01:00</time>
      </trkpt>
      <trkpt lat="48.68956" lon="1.92588">
        <ele>162</ele>
        <time>2018-12-17T09:43:57+01:00</time>
      </trkpt>
      <trkpt lat="48.68958" lon="1.92575">
        <ele>159</ele>
        <time>2018-12-17T09:43:57+01:00</time>
      </trkpt>
      <trkpt lat="48.68953" lon="1.92557">
        <ele>154</ele>
        <time>2018-12-17T09:43:57+01:00</time>
      </trkpt>
      <trkpt lat="48.68948" lon="1.92536">
        <ele>151</ele>
        <time>2018-12-17T09:43:57+01:00</time>
      </trkpt>
      <trkpt lat="48.68949" lon="1.92518">
        <ele>152</ele>
        <time>2018-12-17T09:43:57+01:00</time>
      </trkpt>
      <trkpt lat="48.68951" lon="1.92508">
        <ele>150</ele>
        <time>2018-12-17T09:43:57+01:00</time>
      </trkpt>
      <trkpt lat="48.68957" lon="1.92494">
        <ele>152</ele>
        <time>2018-12-17T09:43:57+01:00</time>
      </trkpt>
      <trkpt lat="48.68967" lon="1.92481">
        <ele>153</ele>
        <time>2018-12-17T09:43:57+01:00</time>
      </trkpt>
      <trkpt lat="48.68978" lon="1.92473">
        <ele>152</ele>
        <time>2018-12-17T09:43:57+01:00</time>
      </trkpt>
      <trkpt lat="48.68986" lon="1.92464">
        <ele>151</ele>
        <time>2018-12-17T09:43:57+01:00</time>
      </trkpt>
      <trkpt lat="48.68995" lon="1.92452">
        <ele>152</ele>
        <time>2018-12-17T09:43:57+01:00</time>
      </trkpt>
      <trkpt lat="48.68999" lon="1.92442">
        <ele>149</ele>
        <time>2018-12-17T09:43:57+01:00</time>
      </trkpt>
      <trkpt lat="48.69" lon="1.9244">
        <ele>147</ele>
        <time>2018-12-17T09:43:57+01:00</time>
      </trkpt>
      <trkpt lat="48.69003" lon="1.92427">
        <ele>141</ele>
        <time>2018-12-17T09:43:57+01:00</time>
      </trkpt>
      <trkpt lat="48.69008" lon="1.92413">
        <ele>136</ele>
        <time>2018-12-17T09:43:57+01:00</time>
      </trkpt>
      <trkpt lat="48.69013" lon="1.92395">
        <ele>137</ele>
        <time>2018-12-17T09:43:57+01:00</time>
      </trkpt>
      <trkpt lat="48.69013" lon="1.92391">
        <ele>138</ele>
        <time>2018-12-17T09:43:57+01:00</time>
      </trkpt>
      <trkpt lat="48.69012" lon="1.92371">
        <ele>143</ele>
        <time>2018-12-17T09:43:57+01:00</time>
      </trkpt>
      <trkpt lat="48.69016" lon="1.92352">
        <ele>150</ele>
        <time>2018-12-17T09:43:57+01:00</time>
      </trkpt>
      <trkpt lat="48.69024" lon="1.92349">
        <ele>151</ele>
        <time>2018-12-17T09:43:57+01:00</time>
      </trkpt>
      <trkpt lat="48.69028" lon="1.92338">
        <ele>149</ele>
        <time>2018-12-17T09:43:57+01:00</time>
      </trkpt>
      <trkpt lat="48.69029" lon="1.92324">
        <ele>146</ele>
        <time>2018-12-17T09:43:57+01:00</time>
      </trkpt>
      <trkpt lat="48.69029" lon="1.92312">
        <ele>144</ele>
        <time>2018-12-17T09:43:57+01:00</time>
      </trkpt>
      <trkpt lat="48.69029" lon="1.92309">
        <ele>143</ele>
        <time>2018-12-17T09:43:57+01:00</time>
      </trkpt>
      <trkpt lat="48.6903" lon="1.92285">
        <ele>142</ele>
        <time>2018-12-17T09:43:57+01:00</time>
      </trkpt>
      <trkpt lat="48.69033" lon="1.92268">
        <ele>145</ele>
        <time>2018-12-17T09:43:57+01:00</time>
      </trkpt>
      <trkpt lat="48.69042" lon="1.92256">
        <ele>139</ele>
        <time>2018-12-17T09:43:57+01:00</time>
      </trkpt>
      <trkpt lat="48.69043" lon="1.92254">
        <ele>139</ele>
        <time>2018-12-17T09:43:57+01:00</time>
      </trkpt>
      <trkpt lat="48.6905" lon="1.92249">
        <ele>139</ele>
        <time>2018-12-17T09:43:57+01:00</time>
      </trkpt>
      <trkpt lat="48.69056" lon="1.92245">
        <ele>139</ele>
        <time>2018-12-17T09:43:57+01:00</time>
      </trkpt>
      <trkpt lat="48.69061" lon="1.9224">
        <ele>140</ele>
        <time>2018-12-17T09:43:57+01:00</time>
      </trkpt>
      <trkpt lat="48.69062" lon="1.92239">
        <ele>140</ele>
        <time>2018-12-17T09:43:57+01:00</time>
      </trkpt>
      <trkpt lat="48.69066" lon="1.92235">
        <ele>143</ele>
        <time>2018-12-17T09:43:57+01:00</time>
      </trkpt>
      <trkpt lat="48.69069" lon="1.9223">
        <ele>142</ele>
        <time>2018-12-17T09:43:57+01:00</time>
      </trkpt>
      <trkpt lat="48.69071" lon="1.92228">
        <ele>143</ele>
        <time>2018-12-17T09:43:57+01:00</time>
      </trkpt>
      <trkpt lat="48.69077" lon="1.92214">
        <ele>150</ele>
        <time>2018-12-17T09:43:57+01:00</time>
      </trkpt>
      <trkpt lat="48.69078" lon="1.9221">
        <ele>150</ele>
        <time>2018-12-17T09:43:57+01:00</time>
      </trkpt>
      <trkpt lat="48.69079" lon="1.92202">
        <ele>152</ele>
        <time>2018-12-17T09:43:57+01:00</time>
      </trkpt>
      <trkpt lat="48.69082" lon="1.92193">
        <ele>153</ele>
        <time>2018-12-17T09:43:57+01:00</time>
      </trkpt>
      <trkpt lat="48.69083" lon="1.92176">
        <ele>156</ele>
        <time>2018-12-17T09:43:57+01:00</time>
      </trkpt>
      <trkpt lat="48.69083" lon="1.92171">
        <ele>155</ele>
        <time>2018-12-17T09:43:57+01:00</time>
      </trkpt>
      <trkpt lat="48.69085" lon="1.92162">
        <ele>159</ele>
        <time>2018-12-17T09:43:57+01:00</time>
      </trkpt>
      <trkpt lat="48.69088" lon="1.92151">
        <ele>163</ele>
        <time>2018-12-17T09:43:57+01:00</time>
      </trkpt>
      <trkpt lat="48.69089" lon="1.92143">
        <ele>162</ele>
        <time>2018-12-17T09:43:57+01:00</time>
      </trkpt>
      <trkpt lat="48.69092" lon="1.92138">
        <ele>160</ele>
        <time>2018-12-17T09:43:57+01:00</time>
      </trkpt>
      <trkpt lat="48.6909" lon="1.92126">
        <ele>160</ele>
        <time>2018-12-17T09:43:57+01:00</time>
      </trkpt>
      <trkpt lat="48.69093" lon="1.92117">
        <ele>158</ele>
        <time>2018-12-17T09:43:57+01:00</time>
      </trkpt>
      <trkpt lat="48.69095" lon="1.92112">
        <ele>157</ele>
        <time>2018-12-17T09:43:57+01:00</time>
      </trkpt>
      <trkpt lat="48.69092" lon="1.921">
        <ele>150</ele>
        <time>2018-12-17T09:43:57+01:00</time>
      </trkpt>
      <trkpt lat="48.69092" lon="1.92094">
        <ele>148</ele>
        <time>2018-12-17T09:43:57+01:00</time>
      </trkpt>
      <trkpt lat="48.69091" lon="1.92088">
        <ele>146</ele>
        <time>2018-12-17T09:43:57+01:00</time>
      </trkpt>
      <trkpt lat="48.6909" lon="1.92069">
        <ele>143</ele>
        <time>2018-12-17T09:43:57+01:00</time>
      </trkpt>
      <trkpt lat="48.69093" lon="1.92056">
        <ele>140</ele>
        <time>2018-12-17T09:43:57+01:00</time>
      </trkpt>
      <trkpt lat="48.69096" lon="1.92052">
        <ele>140</ele>
        <time>2018-12-17T09:43:57+01:00</time>
      </trkpt>
      <trkpt lat="48.69103" lon="1.92039">
        <ele>142</ele>
        <time>2018-12-17T09:43:57+01:00</time>
      </trkpt>
      <trkpt lat="48.69107" lon="1.92029">
        <ele>140</ele>
        <time>2018-12-17T09:43:57+01:00</time>
      </trkpt>
      <trkpt lat="48.69109" lon="1.92014">
        <ele>143</ele>
        <time>2018-12-17T09:43:57+01:00</time>
      </trkpt>
      <trkpt lat="48.69111" lon="1.92004">
        <ele>142</ele>
        <time>2018-12-17T09:43:57+01:00</time>
      </trkpt>
      <trkpt lat="48.691" lon="1.91993">
        <ele>140</ele>
        <time>2018-12-17T09:43:57+01:00</time>
      </trkpt>
      <trkpt lat="48.69098" lon="1.91987">
        <ele>140</ele>
        <time>2018-12-17T09:43:57+01:00</time>
      </trkpt>
      <trkpt lat="48.69098" lon="1.91981">
        <ele>141</ele>
        <time>2018-12-17T09:43:57+01:00</time>
      </trkpt>
      <trkpt lat="48.691" lon="1.91971">
        <ele>147</ele>
        <time>2018-12-17T09:43:57+01:00</time>
      </trkpt>
      <trkpt lat="48.69102" lon="1.91967">
        <ele>147</ele>
        <time>2018-12-17T09:43:57+01:00</time>
      </trkpt>
      <trkpt lat="48.69107" lon="1.91956">
        <ele>145</ele>
        <time>2018-12-17T09:43:57+01:00</time>
      </trkpt>
      <trkpt lat="48.69114" lon="1.91947">
        <ele>146</ele>
        <time>2018-12-17T09:43:57+01:00</time>
      </trkpt>
      <trkpt lat="48.6912" lon="1.9194">
        <ele>146</ele>
        <time>2018-12-17T09:43:57+01:00</time>
      </trkpt>
      <trkpt lat="48.69129" lon="1.91938">
        <ele>146</ele>
        <time>2018-12-17T09:43:57+01:00</time>
      </trkpt>
      <trkpt lat="48.6914" lon="1.9194">
        <ele>146</ele>
        <time>2018-12-17T09:43:57+01:00</time>
      </trkpt>
      <trkpt lat="48.69142" lon="1.91941">
        <ele>145</ele>
        <time>2018-12-17T09:43:57+01:00</time>
      </trkpt>
      <trkpt lat="48.69155" lon="1.91936">
        <ele>148</ele>
        <time>2018-12-17T09:43:57+01:00</time>
      </trkpt>
      <trkpt lat="48.69166" lon="1.91941">
        <ele>147</ele>
        <time>2018-12-17T09:43:57+01:00</time>
      </trkpt>
      <trkpt lat="48.6917" lon="1.91943">
        <ele>147</ele>
        <time>2018-12-17T09:43:57+01:00</time>
      </trkpt>
      <trkpt lat="48.69173" lon="1.91938">
        <ele>148</ele>
        <time>2018-12-17T09:43:57+01:00</time>
      </trkpt>
      <trkpt lat="48.69174" lon="1.91931">
        <ele>149</ele>
        <time>2018-12-17T09:43:57+01:00</time>
      </trkpt>
      <trkpt lat="48.69171" lon="1.91912">
        <ele>155</ele>
        <time>2018-12-17T09:43:57+01:00</time>
      </trkpt>
      <trkpt lat="48.6917" lon="1.91891">
        <ele>158</ele>
        <time>2018-12-17T09:43:57+01:00</time>
      </trkpt>
      <trkpt lat="48.6918" lon="1.91866">
        <ele>160</ele>
        <time>2018-12-17T09:43:57+01:00</time>
      </trkpt>
      <trkpt lat="48.69187" lon="1.9185">
        <ele>162</ele>
        <time>2018-12-17T09:43:57+01:00</time>
      </trkpt>
      <trkpt lat="48.69198" lon="1.91835">
        <ele>156</ele>
        <time>2018-12-17T09:43:57+01:00</time>
      </trkpt>
      <trkpt lat="48.69209" lon="1.91826">
        <ele>152</ele>
        <time>2018-12-17T09:43:57+01:00</time>
      </trkpt>
      <trkpt lat="48.69214" lon="1.91821">
        <ele>151</ele>
        <time>2018-12-17T09:43:57+01:00</time>
      </trkpt>
      <trkpt lat="48.69218" lon="1.91814">
        <ele>149</ele>
        <time>2018-12-17T09:43:57+01:00</time>
      </trkpt>
      <trkpt lat="48.69227" lon="1.91808">
        <ele>151</ele>
        <time>2018-12-17T09:43:57+01:00</time>
      </trkpt>
      <trkpt lat="48.69235" lon="1.91808">
        <ele>149</ele>
        <time>2018-12-17T09:43:57+01:00</time>
      </trkpt>
      <trkpt lat="48.69241" lon="1.91802">
        <ele>149</ele>
        <time>2018-12-17T09:43:57+01:00</time>
      </trkpt>
      <trkpt lat="48.69247" lon="1.91797">
        <ele>151</ele>
        <time>2018-12-17T09:43:57+01:00</time>
      </trkpt>
      <trkpt lat="48.69249" lon="1.9179">
        <ele>153</ele>
        <time>2018-12-17T09:43:57+01:00</time>
      </trkpt>
      <trkpt lat="48.69254" lon="1.91781">
        <ele>152</ele>
        <time>2018-12-17T09:43:57+01:00</time>
      </trkpt>
      <trkpt lat="48.69254" lon="1.91762">
        <ele>147</ele>
        <time>2018-12-17T09:43:57+01:00</time>
      </trkpt>
      <trkpt lat="48.69257" lon="1.91748">
        <ele>142</ele>
        <time>2018-12-17T09:43:57+01:00</time>
      </trkpt>
      <trkpt lat="48.69262" lon="1.91733">
        <ele>139</ele>
        <time>2018-12-17T09:43:57+01:00</time>
      </trkpt>
      <trkpt lat="48.69265" lon="1.91712">
        <ele>135</ele>
        <time>2018-12-17T09:43:57+01:00</time>
      </trkpt>
      <trkpt lat="48.69268" lon="1.91702">
        <ele>134</ele>
        <time>2018-12-17T09:43:57+01:00</time>
      </trkpt>
      <trkpt lat="48.69279" lon="1.91697">
        <ele>133</ele>
        <time>2018-12-17T09:43:57+01:00</time>
      </trkpt>
      <trkpt lat="48.6928" lon="1.91691">
        <ele>138</ele>
        <time>2018-12-17T09:43:57+01:00</time>
      </trkpt>
      <trkpt lat="48.69287" lon="1.91689">
        <ele>141</ele>
        <time>2018-12-17T09:43:57+01:00</time>
      </trkpt>
      <trkpt lat="48.69294" lon="1.9168">
        <ele>144</ele>
        <time>2018-12-17T09:43:57+01:00</time>
      </trkpt>
      <trkpt lat="48.693" lon="1.9167">
        <ele>142</ele>
        <time>2018-12-17T09:43:57+01:00</time>
      </trkpt>
      <trkpt lat="48.69304" lon="1.91664">
        <ele>142</ele>
        <time>2018-12-17T09:43:57+01:00</time>
      </trkpt>
      <trkpt lat="48.6931" lon="1.91654">
        <ele>145</ele>
        <time>2018-12-17T09:43:57+01:00</time>
      </trkpt>
      <trkpt lat="48.69318" lon="1.9165">
        <ele>147</ele>
        <time>2018-12-17T09:43:57+01:00</time>
      </trkpt>
      <trkpt lat="48.69324" lon="1.91645">
        <ele>149</ele>
        <time>2018-12-17T09:43:57+01:00</time>
      </trkpt>
      <trkpt lat="48.69328" lon="1.91644">
        <ele>149</ele>
        <time>2018-12-17T09:43:57+01:00</time>
      </trkpt>
      <trkpt lat="48.69329" lon="1.91642">
        <ele>150</ele>
        <time>2018-12-17T09:43:57+01:00</time>
      </trkpt>
      <trkpt lat="48.69334" lon="1.91619">
        <ele>149</ele>
        <time>2018-12-17T09:43:57+01:00</time>
      </trkpt>
      <trkpt lat="48.69336" lon="1.91612">
        <ele>147</ele>
        <time>2018-12-17T09:43:57+01:00</time>
      </trkpt>
      <trkpt lat="48.69338" lon="1.91602">
        <ele>143</ele>
        <time>2018-12-17T09:43:57+01:00</time>
      </trkpt>
      <trkpt lat="48.69344" lon="1.91583">
        <ele>139</ele>
        <time>2018-12-17T09:43:57+01:00</time>
      </trkpt>
      <trkpt lat="48.69344" lon="1.91579">
        <ele>140</ele>
        <time>2018-12-17T09:43:57+01:00</time>
      </trkpt>
      <trkpt lat="48.69346" lon="1.91568">
        <ele>140</ele>
        <time>2018-12-17T09:43:57+01:00</time>
      </trkpt>
      <trkpt lat="48.69346" lon="1.91551">
        <ele>133</ele>
        <time>2018-12-17T09:43:57+01:00</time>
      </trkpt>
      <trkpt lat="48.69345" lon="1.91542">
        <ele>135</ele>
        <time>2018-12-17T09:43:57+01:00</time>
      </trkpt>
      <trkpt lat="48.69346" lon="1.91527">
        <ele>137</ele>
        <time>2018-12-17T09:43:57+01:00</time>
      </trkpt>
      <trkpt lat="48.69351" lon="1.91524">
        <ele>134</ele>
        <time>2018-12-17T09:43:57+01:00</time>
      </trkpt>
      <trkpt lat="48.69354" lon="1.91515">
        <ele>135</ele>
        <time>2018-12-17T09:43:57+01:00</time>
      </trkpt>
      <trkpt lat="48.69361" lon="1.91504">
        <ele>134</ele>
        <time>2018-12-17T09:43:57+01:00</time>
      </trkpt>
      <trkpt lat="48.69361" lon="1.91499">
        <ele>129</ele>
        <time>2018-12-17T09:43:57+01:00</time>
      </trkpt>
      <trkpt lat="48.69352" lon="1.91482">
        <ele>130</ele>
        <time>2018-12-17T09:43:57+01:00</time>
      </trkpt>
      <trkpt lat="48.69345" lon="1.91469">
        <ele>129</ele>
        <time>2018-12-17T09:43:57+01:00</time>
      </trkpt>
      <trkpt lat="48.69339" lon="1.91452">
        <ele>130</ele>
        <time>2018-12-17T09:43:57+01:00</time>
      </trkpt>
      <trkpt lat="48.69331" lon="1.9143">
        <ele>132</ele>
        <time>2018-12-17T09:43:57+01:00</time>
      </trkpt>
      <trkpt lat="48.69326" lon="1.91412">
        <ele>131</ele>
        <time>2018-12-17T09:43:57+01:00</time>
      </trkpt>
      <trkpt lat="48.69321" lon="1.91392">
        <ele>128</ele>
        <time>2018-12-17T09:43:57+01:00</time>
      </trkpt>
      <trkpt lat="48.69318" lon="1.91367">
        <ele>128</ele>
        <time>2018-12-17T09:43:57+01:00</time>
      </trkpt>
      <trkpt lat="48.69319" lon="1.91352">
        <ele>130</ele>
        <time>2018-12-17T09:43:57+01:00</time>
      </trkpt>
      <trkpt lat="48.69322" lon="1.9135">
        <ele>130</ele>
        <time>2018-12-17T09:43:57+01:00</time>
      </trkpt>
      <trkpt lat="48.69331" lon="1.91339">
        <ele>131</ele>
        <time>2018-12-17T09:43:57+01:00</time>
      </trkpt>
      <trkpt lat="48.69333" lon="1.91338">
        <ele>131</ele>
        <time>2018-12-17T09:43:57+01:00</time>
      </trkpt>
      <trkpt lat="48.69339" lon="1.91325">
        <ele>132</ele>
        <time>2018-12-17T09:43:57+01:00</time>
      </trkpt>
      <trkpt lat="48.69345" lon="1.91316">
        <ele>130</ele>
        <time>2018-12-17T09:43:57+01:00</time>
      </trkpt>
      <trkpt lat="48.6935" lon="1.91299">
        <ele>134</ele>
        <time>2018-12-17T09:43:57+01:00</time>
      </trkpt>
      <trkpt lat="48.69356" lon="1.91289">
        <ele>138</ele>
        <time>2018-12-17T09:43:57+01:00</time>
      </trkpt>
      <trkpt lat="48.69366" lon="1.91276">
        <ele>141</ele>
        <time>2018-12-17T09:43:57+01:00</time>
      </trkpt>
      <trkpt lat="48.69372" lon="1.91272">
        <ele>142</ele>
        <time>2018-12-17T09:43:57+01:00</time>
      </trkpt>
      <trkpt lat="48.69382" lon="1.9125">
        <ele>144</ele>
        <time>2018-12-17T09:43:57+01:00</time>
      </trkpt>
      <trkpt lat="48.69387" lon="1.9124">
        <ele>143</ele>
        <time>2018-12-17T09:43:57+01:00</time>
      </trkpt>
      <trkpt lat="48.69389" lon="1.91213">
        <ele>147</ele>
        <time>2018-12-17T09:43:57+01:00</time>
      </trkpt>
      <trkpt lat="48.69391" lon="1.91197">
        <ele>150</ele>
        <time>2018-12-17T09:43:57+01:00</time>
      </trkpt>
      <trkpt lat="48.69397" lon="1.91173">
        <ele>152</ele>
        <time>2018-12-17T09:43:57+01:00</time>
      </trkpt>
      <trkpt lat="48.69399" lon="1.91164">
        <ele>153</ele>
        <time>2018-12-17T09:43:57+01:00</time>
      </trkpt>
      <trkpt lat="48.69405" lon="1.91138">
        <ele>155</ele>
        <time>2018-12-17T09:43:57+01:00</time>
      </trkpt>
      <trkpt lat="48.69408" lon="1.91127">
        <ele>154</ele>
        <time>2018-12-17T09:43:57+01:00</time>
      </trkpt>
      <trkpt lat="48.69417" lon="1.91113">
        <ele>153</ele>
        <time>2018-12-17T09:43:57+01:00</time>
      </trkpt>
      <trkpt lat="48.69426" lon="1.91091">
        <ele>149</ele>
        <time>2018-12-17T09:43:57+01:00</time>
      </trkpt>
      <trkpt lat="48.69432" lon="1.91075">
        <ele>145</ele>
        <time>2018-12-17T09:43:57+01:00</time>
      </trkpt>
      <trkpt lat="48.69441" lon="1.91056">
        <ele>139</ele>
        <time>2018-12-17T09:43:57+01:00</time>
      </trkpt>
      <trkpt lat="48.69447" lon="1.91039">
        <ele>137</ele>
        <time>2018-12-17T09:43:57+01:00</time>
      </trkpt>
      <trkpt lat="48.6945" lon="1.91032">
        <ele>136</ele>
        <time>2018-12-17T09:43:57+01:00</time>
      </trkpt>
      <trkpt lat="48.69456" lon="1.9101">
        <ele>134</ele>
        <time>2018-12-17T09:43:57+01:00</time>
      </trkpt>
      <trkpt lat="48.69458" lon="1.91001">
        <ele>133</ele>
        <time>2018-12-17T09:43:57+01:00</time>
      </trkpt>
      <trkpt lat="48.69461" lon="1.90979">
        <ele>135</ele>
        <time>2018-12-17T09:43:57+01:00</time>
      </trkpt>
      <trkpt lat="48.69466" lon="1.90953">
        <ele>137</ele>
        <time>2018-12-17T09:43:57+01:00</time>
      </trkpt>
      <trkpt lat="48.69467" lon="1.90936">
        <ele>139</ele>
        <time>2018-12-17T09:43:57+01:00</time>
      </trkpt>
      <trkpt lat="48.69465" lon="1.90918">
        <ele>146</ele>
        <time>2018-12-17T09:43:57+01:00</time>
      </trkpt>
      <trkpt lat="48.69462" lon="1.90892">
        <ele>151</ele>
        <time>2018-12-17T09:43:57+01:00</time>
      </trkpt>
      <trkpt lat="48.69466" lon="1.90875">
        <ele>156</ele>
        <time>2018-12-17T09:43:57+01:00</time>
      </trkpt>
      <trkpt lat="48.69468" lon="1.90872">
        <ele>156</ele>
        <time>2018-12-17T09:43:57+01:00</time>
      </trkpt>
      <trkpt lat="48.69482" lon="1.90858">
        <ele>152</ele>
        <time>2018-12-17T09:43:57+01:00</time>
      </trkpt>
      <trkpt lat="48.69497" lon="1.90849">
        <ele>147</ele>
        <time>2018-12-17T09:43:57+01:00</time>
      </trkpt>
      <trkpt lat="48.69508" lon="1.9084">
        <ele>145</ele>
        <time>2018-12-17T09:43:57+01:00</time>
      </trkpt>
      <trkpt lat="48.69527" lon="1.90835">
        <ele>141</ele>
        <time>2018-12-17T09:43:57+01:00</time>
      </trkpt>
      <trkpt lat="48.69542" lon="1.90835">
        <ele>138</ele>
        <time>2018-12-17T09:43:57+01:00</time>
      </trkpt>
      <trkpt lat="48.6955" lon="1.90831">
        <ele>137</ele>
        <time>2018-12-17T09:43:57+01:00</time>
      </trkpt>
      <trkpt lat="48.69562" lon="1.90821">
        <ele>136</ele>
        <time>2018-12-17T09:43:57+01:00</time>
      </trkpt>
      <trkpt lat="48.6957" lon="1.90819">
        <ele>134</ele>
        <time>2018-12-17T09:43:57+01:00</time>
      </trkpt>
      <trkpt lat="48.69586" lon="1.90808">
        <ele>138</ele>
        <time>2018-12-17T09:43:57+01:00</time>
      </trkpt>
      <trkpt lat="48.69597" lon="1.90806">
        <ele>138</ele>
        <time>2018-12-17T09:43:57+01:00</time>
      </trkpt>
      <trkpt lat="48.69605" lon="1.90806">
        <ele>136</ele>
        <time>2018-12-17T09:43:57+01:00</time>
      </trkpt>
      <trkpt lat="48.69606" lon="1.90789">
        <ele>139</ele>
        <time>2018-12-17T09:43:57+01:00</time>
      </trkpt>
      <trkpt lat="48.69604" lon="1.90776">
        <ele>142</ele>
        <time>2018-12-17T09:43:57+01:00</time>
      </trkpt>
      <trkpt lat="48.69604" lon="1.90753">
        <ele>150</ele>
        <time>2018-12-17T09:43:57+01:00</time>
      </trkpt>
      <trkpt lat="48.69604" lon="1.90745">
        <ele>152</ele>
        <time>2018-12-17T09:43:57+01:00</time>
      </trkpt>
      <trkpt lat="48.69608" lon="1.90717">
        <ele>155</ele>
        <time>2018-12-17T09:43:57+01:00</time>
      </trkpt>
      <trkpt lat="48.69609" lon="1.90706">
        <ele>152</ele>
        <time>2018-12-17T09:43:57+01:00</time>
      </trkpt>
      <trkpt lat="48.69608" lon="1.90703">
        <ele>152</ele>
        <time>2018-12-17T09:43:57+01:00</time>
      </trkpt>
      <trkpt lat="48.69608" lon="1.9069">
        <ele>150</ele>
        <time>2018-12-17T09:43:57+01:00</time>
      </trkpt>
      <trkpt lat="48.6961" lon="1.90666">
        <ele>152</ele>
        <time>2018-12-17T09:43:57+01:00</time>
      </trkpt>
      <trkpt lat="48.69613" lon="1.90651">
        <ele>153</ele>
        <time>2018-12-17T09:43:57+01:00</time>
      </trkpt>
      <trkpt lat="48.69617" lon="1.90639">
        <ele>153</ele>
        <time>2018-12-17T09:43:57+01:00</time>
      </trkpt>
      <trkpt lat="48.6962" lon="1.90628">
        <ele>153</ele>
        <time>2018-12-17T09:43:57+01:00</time>
      </trkpt>
      <trkpt lat="48.69621" lon="1.90616">
        <ele>156</ele>
        <time>2018-12-17T09:43:57+01:00</time>
      </trkpt>
      <trkpt lat="48.69629" lon="1.90602">
        <ele>153</ele>
        <time>2018-12-17T09:43:57+01:00</time>
      </trkpt>
      <trkpt lat="48.69635" lon="1.90585">
        <ele>151</ele>
        <time>2018-12-17T09:43:57+01:00</time>
      </trkpt>
      <trkpt lat="48.69646" lon="1.90571">
        <ele>149</ele>
        <time>2018-12-17T09:43:57+01:00</time>
      </trkpt>
      <trkpt lat="48.6965" lon="1.90566">
        <ele>151</ele>
        <time>2018-12-17T09:43:57+01:00</time>
      </trkpt>
      <trkpt lat="48.69659" lon="1.90555">
        <ele>153</ele>
        <time>2018-12-17T09:43:57+01:00</time>
      </trkpt>
      <trkpt lat="48.69666" lon="1.90548">
        <ele>153</ele>
        <time>2018-12-17T09:43:57+01:00</time>
      </trkpt>
      <trkpt lat="48.69679" lon="1.90536">
        <ele>151</ele>
        <time>2018-12-17T09:43:57+01:00</time>
      </trkpt>
      <trkpt lat="48.6969" lon="1.90527">
        <ele>150</ele>
        <time>2018-12-17T09:43:57+01:00</time>
      </trkpt>
      <trkpt lat="48.69698" lon="1.90516">
        <ele>148</ele>
        <time>2018-12-17T09:43:57+01:00</time>
      </trkpt>
      <trkpt lat="48.69709" lon="1.90504">
        <ele>147</ele>
        <time>2018-12-17T09:43:57+01:00</time>
      </trkpt>
      <trkpt lat="48.69717" lon="1.90487">
        <ele>150</ele>
        <time>2018-12-17T09:43:57+01:00</time>
      </trkpt>
      <trkpt lat="48.69719" lon="1.90484">
        <ele>150</ele>
        <time>2018-12-17T09:43:57+01:00</time>
      </trkpt>
      <trkpt lat="48.69724" lon="1.90482">
        <ele>148</ele>
        <time>2018-12-17T09:43:57+01:00</time>
      </trkpt>
      <trkpt lat="48.69735" lon="1.90475">
        <ele>147</ele>
        <time>2018-12-17T09:43:57+01:00</time>
      </trkpt>
      <trkpt lat="48.6975" lon="1.90468">
        <ele>144</ele>
        <time>2018-12-17T09:43:57+01:00</time>
      </trkpt>
      <trkpt lat="48.69753" lon="1.90468">
        <ele>145</ele>
        <time>2018-12-17T09:43:57+01:00</time>
      </trkpt>
      <trkpt lat="48.69761" lon="1.90463">
        <ele>147</ele>
        <time>2018-12-17T09:43:57+01:00</time>
      </trkpt>
      <trkpt lat="48.69779" lon="1.9046">
        <ele>145</ele>
        <time>2018-12-17T09:43:57+01:00</time>
      </trkpt>
      <trkpt lat="48.69785" lon="1.9046">
        <ele>145</ele>
        <time>2018-12-17T09:43:57+01:00</time>
      </trkpt>
      <trkpt lat="48.69808" lon="1.90459">
        <ele>142</ele>
        <time>2018-12-17T09:43:57+01:00</time>
      </trkpt>
      <trkpt lat="48.69821" lon="1.90462">
        <ele>140</ele>
        <time>2018-12-17T09:43:57+01:00</time>
      </trkpt>
      <trkpt lat="48.69835" lon="1.9047">
        <ele>144</ele>
        <time>2018-12-17T09:43:57+01:00</time>
      </trkpt>
      <trkpt lat="48.6985" lon="1.90474">
        <ele>145</ele>
        <time>2018-12-17T09:43:57+01:00</time>
      </trkpt>
      <trkpt lat="48.69865" lon="1.90479">
        <ele>145</ele>
        <time>2018-12-17T09:43:57+01:00</time>
      </trkpt>
      <trkpt lat="48.69881" lon="1.90486">
        <ele>146</ele>
        <time>2018-12-17T09:43:57+01:00</time>
      </trkpt>
      <trkpt lat="48.69885" lon="1.90487">
        <ele>147</ele>
        <time>2018-12-17T09:43:57+01:00</time>
      </trkpt>
      <trkpt lat="48.699" lon="1.9049">
        <ele>139</ele>
        <time>2018-12-17T09:43:57+01:00</time>
      </trkpt>
      <trkpt lat="48.69904" lon="1.90498">
        <ele>144</ele>
        <time>2018-12-17T09:43:57+01:00</time>
      </trkpt>
      <trkpt lat="48.69912" lon="1.90503">
        <ele>148</ele>
        <time>2018-12-17T09:43:57+01:00</time>
      </trkpt>
      <trkpt lat="48.69915" lon="1.90506">
        <ele>147</ele>
        <time>2018-12-17T09:43:57+01:00</time>
      </trkpt>
      <trkpt lat="48.69928" lon="1.90513">
        <ele>144</ele>
        <time>2018-12-17T09:43:57+01:00</time>
      </trkpt>
      <trkpt lat="48.69941" lon="1.90516">
        <ele>143</ele>
        <time>2018-12-17T09:43:57+01:00</time>
      </trkpt>
      <trkpt lat="48.69947" lon="1.9052">
        <ele>145</ele>
        <time>2018-12-17T09:43:57+01:00</time>
      </trkpt>
      <trkpt lat="48.69971" lon="1.9053">
        <ele>151</ele>
        <time>2018-12-17T09:43:57+01:00</time>
      </trkpt>
      <trkpt lat="48.69981" lon="1.90542">
        <ele>153</ele>
        <time>2018-12-17T09:43:57+01:00</time>
      </trkpt>
      <trkpt lat="48.6999" lon="1.90554">
        <ele>151</ele>
        <time>2018-12-17T09:43:57+01:00</time>
      </trkpt>
      <trkpt lat="48.69996" lon="1.90558">
        <ele>146</ele>
        <time>2018-12-17T09:43:57+01:00</time>
      </trkpt>
      <trkpt lat="48.70006" lon="1.90555">
        <ele>139</ele>
        <time>2018-12-17T09:43:57+01:00</time>
      </trkpt>
      <trkpt lat="48.70019" lon="1.90555">
        <ele>134</ele>
        <time>2018-12-17T09:43:57+01:00</time>
      </trkpt>
      <trkpt lat="48.70026" lon="1.90554">
        <ele>131</ele>
        <time>2018-12-17T09:43:57+01:00</time>
      </trkpt>
      <trkpt lat="48.70037" lon="1.90558">
        <ele>132</ele>
        <time>2018-12-17T09:43:57+01:00</time>
      </trkpt>
      <trkpt lat="48.70036" lon="1.90545">
        <ele>135</ele>
        <time>2018-12-17T09:43:57+01:00</time>
      </trkpt>
      <trkpt lat="48.70031" lon="1.90532">
        <ele>139</ele>
        <time>2018-12-17T09:43:57+01:00</time>
      </trkpt>
      <trkpt lat="48.70031" lon="1.90515">
        <ele>141</ele>
        <time>2018-12-17T09:43:57+01:00</time>
      </trkpt>
      <trkpt lat="48.70029" lon="1.90502">
        <ele>140</ele>
        <time>2018-12-17T09:43:57+01:00</time>
      </trkpt>
      <trkpt lat="48.70025" lon="1.9049">
        <ele>142</ele>
        <time>2018-12-17T09:43:57+01:00</time>
      </trkpt>
      <trkpt lat="48.70023" lon="1.90466">
        <ele>148</ele>
        <time>2018-12-17T09:43:57+01:00</time>
      </trkpt>
      <trkpt lat="48.7002" lon="1.90461">
        <ele>150</ele>
        <time>2018-12-17T09:43:57+01:00</time>
      </trkpt>
      <trkpt lat="48.70018" lon="1.90448">
        <ele>153</ele>
        <time>2018-12-17T09:43:57+01:00</time>
      </trkpt>
      <trkpt lat="48.70016" lon="1.90427">
        <ele>150</ele>
        <time>2018-12-17T09:43:57+01:00</time>
      </trkpt>
      <trkpt lat="48.70012" lon="1.90408">
        <ele>146</ele>
        <time>2018-12-17T09:43:57+01:00</time>
      </trkpt>
      <trkpt lat="48.70006" lon="1.9039">
        <ele>145</ele>
        <time>2018-12-17T09:43:57+01:00</time>
      </trkpt>
      <trkpt lat="48.7" lon="1.90371">
        <ele>150</ele>
        <time>2018-12-17T09:43:57+01:00</time>
      </trkpt>
      <trkpt lat="48.69997" lon="1.90349">
        <ele>154</ele>
        <time>2018-12-17T09:43:57+01:00</time>
      </trkpt>
      <trkpt lat="48.69995" lon="1.90339">
        <ele>156</ele>
        <time>2018-12-17T09:43:57+01:00</time>
      </trkpt>
      <trkpt lat="48.69992" lon="1.90324">
        <ele>158</ele>
        <time>2018-12-17T09:43:57+01:00</time>
      </trkpt>
      <trkpt lat="48.69991" lon="1.90283">
        <ele>158</ele>
        <time>2018-12-17T09:43:57+01:00</time>
      </trkpt>
      <trkpt lat="48.69991" lon="1.90269">
        <ele>157</ele>
        <time>2018-12-17T09:43:57+01:00</time>
      </trkpt>
      <trkpt lat="48.69994" lon="1.90255">
        <ele>156</ele>
        <time>2018-12-17T09:43:57+01:00</time>
      </trkpt>
      <trkpt lat="48.69998" lon="1.90233">
        <ele>158</ele>
        <time>2018-12-17T09:43:57+01:00</time>
      </trkpt>
      <trkpt lat="48.69999" lon="1.90228">
        <ele>158</ele>
        <time>2018-12-17T09:43:57+01:00</time>
      </trkpt>
      <trkpt lat="48.70002" lon="1.902">
        <ele>160</ele>
        <time>2018-12-17T09:43:57+01:00</time>
      </trkpt>
      <trkpt lat="48.70003" lon="1.90195">
        <ele>160</ele>
        <time>2018-12-17T09:43:57+01:00</time>
      </trkpt>
      <trkpt lat="48.70002" lon="1.90169">
        <ele>162</ele>
        <time>2018-12-17T09:43:57+01:00</time>
      </trkpt>
      <trkpt lat="48.70004" lon="1.90153">
        <ele>159</ele>
        <time>2018-12-17T09:43:57+01:00</time>
      </trkpt>
      <trkpt lat="48.70006" lon="1.90141">
        <ele>156</ele>
        <time>2018-12-17T09:43:57+01:00</time>
      </trkpt>
      <trkpt lat="48.70007" lon="1.90112">
        <ele>153</ele>
        <time>2018-12-17T09:43:57+01:00</time>
      </trkpt>
      <trkpt lat="48.70007" lon="1.90096">
        <ele>149</ele>
        <time>2018-12-17T09:43:57+01:00</time>
      </trkpt>
      <trkpt lat="48.70009" lon="1.90077">
        <ele>143</ele>
        <time>2018-12-17T09:43:57+01:00</time>
      </trkpt>
      <trkpt lat="48.70011" lon="1.90053">
        <ele>137</ele>
        <time>2018-12-17T09:43:57+01:00</time>
      </trkpt>
      <trkpt lat="48.70009" lon="1.90035">
        <ele>136</ele>
        <time>2018-12-17T09:43:57+01:00</time>
      </trkpt>
      <trkpt lat="48.70009" lon="1.90021">
        <ele>135</ele>
        <time>2018-12-17T09:43:57+01:00</time>
      </trkpt>
      <trkpt lat="48.70009" lon="1.90001">
        <ele>137</ele>
        <time>2018-12-17T09:43:57+01:00</time>
      </trkpt>
      <trkpt lat="48.70009" lon="1.89985">
        <ele>137</ele>
        <time>2018-12-17T09:43:57+01:00</time>
      </trkpt>
      <trkpt lat="48.70003" lon="1.89961">
        <ele>150</ele>
        <time>2018-12-17T09:43:57+01:00</time>
      </trkpt>
      <trkpt lat="48.70004" lon="1.89941">
        <ele>155</ele>
        <time>2018-12-17T09:43:57+01:00</time>
      </trkpt>
      <trkpt lat="48.70004" lon="1.89922">
        <ele>156</ele>
        <time>2018-12-17T09:43:57+01:00</time>
      </trkpt>
      <trkpt lat="48.70004" lon="1.8992">
        <ele>155</ele>
        <time>2018-12-17T09:43:57+01:00</time>
      </trkpt>
      <trkpt lat="48.70007" lon="1.899">
        <ele>155</ele>
        <time>2018-12-17T09:43:57+01:00</time>
      </trkpt>
      <trkpt lat="48.70008" lon="1.89896">
        <ele>155</ele>
        <time>2018-12-17T09:43:57+01:00</time>
      </trkpt>
      <trkpt lat="48.70026" lon="1.89887">
        <ele>143</ele>
        <time>2018-12-17T09:43:57+01:00</time>
      </trkpt>
      <trkpt lat="48.70029" lon="1.89886">
        <ele>142</ele>
        <time>2018-12-17T09:43:57+01:00</time>
      </trkpt>
      <trkpt lat="48.70046" lon="1.89876">
        <ele>142</ele>
        <time>2018-12-17T09:43:57+01:00</time>
      </trkpt>
      <trkpt lat="48.70056" lon="1.89865">
        <ele>141</ele>
        <time>2018-12-17T09:43:57+01:00</time>
      </trkpt>
      <trkpt lat="48.70068" lon="1.89849">
        <ele>140</ele>
        <time>2018-12-17T09:43:57+01:00</time>
      </trkpt>
      <trkpt lat="48.70077" lon="1.89839">
        <ele>142</ele>
        <time>2018-12-17T09:43:57+01:00</time>
      </trkpt>
      <trkpt lat="48.70083" lon="1.8983">
        <ele>145</ele>
        <time>2018-12-17T09:43:57+01:00</time>
      </trkpt>
      <trkpt lat="48.70085" lon="1.89813">
        <ele>153</ele>
        <time>2018-12-17T09:43:57+01:00</time>
      </trkpt>
      <trkpt lat="48.70086" lon="1.89792">
        <ele>158</ele>
        <time>2018-12-17T09:43:57+01:00</time>
      </trkpt>
      <trkpt lat="48.70088" lon="1.89775">
        <ele>158</ele>
        <time>2018-12-17T09:43:57+01:00</time>
      </trkpt>
      <trkpt lat="48.70092" lon="1.89765">
        <ele>159</ele>
        <time>2018-12-17T09:43:57+01:00</time>
      </trkpt>
      <trkpt lat="48.70105" lon="1.89749">
        <ele>151</ele>
        <time>2018-12-17T09:43:57+01:00</time>
      </trkpt>
      <trkpt lat="48.70114" lon="1.8974">
        <ele>147</ele>
        <time>2018-12-17T09:43:57+01:00</time>
      </trkpt>
      <trkpt lat="48.7012" lon="1.89737">
        <ele>144</ele>
        <time>2018-12-17T09:43:57+01:00</time>
      </trkpt>
      <trkpt lat="48.70134" lon="1.89734">
        <ele>142</ele>
        <time>2018-12-17T09:43:57+01:00</time>
      </trkpt>
      <trkpt lat="48.70145" lon="1.89735">
        <ele>138</ele>
        <time>2018-12-17T09:43:57+01:00</time>
      </trkpt>
      <trkpt lat="48.70163" lon="1.89733">
        <ele>132</ele>
        <time>2018-12-17T09:43:57+01:00</time>
      </trkpt>
      <trkpt lat="48.70175" lon="1.89723">
        <ele>129</ele>
        <time>2018-12-17T09:43:57+01:00</time>
      </trkpt>
      <trkpt lat="48.70187" lon="1.89709">
        <ele>129</ele>
        <time>2018-12-17T09:43:57+01:00</time>
      </trkpt>
      <trkpt lat="48.70195" lon="1.89703">
        <ele>133</ele>
        <time>2018-12-17T09:43:57+01:00</time>
      </trkpt>
      <trkpt lat="48.702" lon="1.89697">
        <ele>143</ele>
        <time>2018-12-17T09:43:57+01:00</time>
      </trkpt>
      <trkpt lat="48.70211" lon="1.8968">
        <ele>154</ele>
        <time>2018-12-17T09:43:57+01:00</time>
      </trkpt>
      <trkpt lat="48.70216" lon="1.89666">
        <ele>160</ele>
        <time>2018-12-17T09:43:57+01:00</time>
      </trkpt>
      <trkpt lat="48.70227" lon="1.89646">
        <ele>167</ele>
        <time>2018-12-17T09:43:57+01:00</time>
      </trkpt>
      <trkpt lat="48.70238" lon="1.89628">
        <ele>168</ele>
        <time>2018-12-17T09:43:57+01:00</time>
      </trkpt>
      <trkpt lat="48.70243" lon="1.8962">
        <ele>167</ele>
        <time>2018-12-17T09:43:57+01:00</time>
      </trkpt>
      <trkpt lat="48.70252" lon="1.89601">
        <ele>166</ele>
        <time>2018-12-17T09:43:57+01:00</time>
      </trkpt>
      <trkpt lat="48.70254" lon="1.896">
        <ele>166</ele>
        <time>2018-12-17T09:43:57+01:00</time>
      </trkpt>
      <trkpt lat="48.70256" lon="1.89594">
        <ele>169</ele>
        <time>2018-12-17T09:43:57+01:00</time>
      </trkpt>
      <trkpt lat="48.70267" lon="1.89582">
        <ele>166</ele>
        <time>2018-12-17T09:43:57+01:00</time>
      </trkpt>
      <trkpt lat="48.70285" lon="1.89573">
        <ele>165</ele>
        <time>2018-12-17T09:43:57+01:00</time>
      </trkpt>
      <trkpt lat="48.70298" lon="1.89569">
        <ele>163</ele>
        <time>2018-12-17T09:43:57+01:00</time>
      </trkpt>
      <trkpt lat="48.7031" lon="1.8956">
        <ele>162</ele>
        <time>2018-12-17T09:43:57+01:00</time>
      </trkpt>
      <trkpt lat="48.70319" lon="1.89546">
        <ele>161</ele>
        <time>2018-12-17T09:43:57+01:00</time>
      </trkpt>
      <trkpt lat="48.70329" lon="1.89522">
        <ele>159</ele>
        <time>2018-12-17T09:43:57+01:00</time>
      </trkpt>
      <trkpt lat="48.70334" lon="1.89502">
        <ele>160</ele>
        <time>2018-12-17T09:43:57+01:00</time>
      </trkpt>
      <trkpt lat="48.70333" lon="1.8949">
        <ele>163</ele>
        <time>2018-12-17T09:43:57+01:00</time>
      </trkpt>
      <trkpt lat="48.70324" lon="1.89475">
        <ele>165</ele>
        <time>2018-12-17T09:43:57+01:00</time>
      </trkpt>
      <trkpt lat="48.70318" lon="1.89461">
        <ele>154</ele>
        <time>2018-12-17T09:43:57+01:00</time>
      </trkpt>
      <trkpt lat="48.7031" lon="1.89444">
        <ele>150</ele>
        <time>2018-12-17T09:43:57+01:00</time>
      </trkpt>
      <trkpt lat="48.70307" lon="1.89437">
        <ele>148</ele>
        <time>2018-12-17T09:43:57+01:00</time>
      </trkpt>
      <trkpt lat="48.70299" lon="1.89423">
        <ele>148</ele>
        <time>2018-12-17T09:43:57+01:00</time>
      </trkpt>
      <trkpt lat="48.70296" lon="1.89389">
        <ele>145</ele>
        <time>2018-12-17T09:43:57+01:00</time>
      </trkpt>
      <trkpt lat="48.70293" lon="1.89362">
        <ele>147</ele>
        <time>2018-12-17T09:43:57+01:00</time>
      </trkpt>
      <trkpt lat="48.70288" lon="1.89342">
        <ele>149</ele>
        <time>2018-12-17T09:43:57+01:00</time>
      </trkpt>
      <trkpt lat="48.70283" lon="1.89325">
        <ele>143</ele>
        <time>2018-12-17T09:43:57+01:00</time>
      </trkpt>
      <trkpt lat="48.70272" lon="1.89312">
        <ele>142</ele>
        <time>2018-12-17T09:43:57+01:00</time>
      </trkpt>
      <trkpt lat="48.70263" lon="1.89302">
        <ele>140</ele>
        <time>2018-12-17T09:43:57+01:00</time>
      </trkpt>
      <trkpt lat="48.70257" lon="1.89291">
        <ele>140</ele>
        <time>2018-12-17T09:43:57+01:00</time>
      </trkpt>
      <trkpt lat="48.70255" lon="1.89287">
        <ele>140</ele>
        <time>2018-12-17T09:43:57+01:00</time>
      </trkpt>
      <trkpt lat="48.70254" lon="1.89285">
        <ele>140</ele>
        <time>2018-12-17T09:43:57+01:00</time>
      </trkpt>
      <trkpt lat="48.70246" lon="1.89274">
        <ele>138</ele>
        <time>2018-12-17T09:43:57+01:00</time>
      </trkpt>
    </trkseg>
  </trk>
</gpx>